Time,TemperatureF,DewpointF,PressureIn,WindDirection,WindDirectionDegrees,WindSpeedMPH,WindSpeedGustMPH,Humidity,HourlyPrecipIn,Conditions,Clouds,dailyrainin,SolarRadiationWatts/m^2,SoftwareType,DateUTC
2013-03-21 00:00:00,52.2,47.5,29.89,WNW,302,3.0,4.0,84,0.00,,---,0.00,0.00,VWS V14.00,2013-03-21 04:00:00,
2013-03-21 00:01:00,52.2,47.5,29.88,WNW,302,2.0,4.0,84,0.00,,---,0.00,0.00,VWS V14.00,2013-03-21 04:01:00,
2013-03-21 00:02:00,52.2,47.5,29.88,WNW,302,3.0,4.0,84,0.00,,---,0.00,0.00,VWS V14.00,2013-03-21 04:02:00,
2013-03-21 00:03:00,52.2,47.5,29.88,WNW,297,2.0,4.0,84,0.00,,---,0.00,0.00,VWS V14.00,2013-03-21 04:03:00,
2013-03-21 00:04:00,52.2,47.5,29.88,NW,306,1.0,4.0,84,0.00,,---,0.00,0.00,VWS V14.00,2013-03-21 04:04:00,
2013-03-21 00:05:00,52.1,47.4,29.88,NW,306,3.0,4.0,84,0.00,,---,0.00,0.00,VWS V14.00,2013-03-21 04:05:00,
2013-03-21 00:06:00,52.2,47.8,29.88,NW,306,2.0,4.0,85,0.00,,---,0.00,0.00,VWS V14.00,2013-03-21 04:06:00,
2013-03-21 00:07:00,52.1,47.7,29.88,NW,305,2.0,4.0,85,0.00,,---,0.00,0.00,VWS V14.00,2013-03-21 04:07:00,
2013-03-21 00:08:00,52.1,47.4,29.88,NW,305,2.0,4.0,84,0.00,,---,0.00,0.00,VWS V14.00,2013-03-21 04:08:00,
2013-03-21 00:09:00,52.1,47.4,29.88,NW,305,3.0,4.0,84,0.00,,---,0.00,0.00,VWS V14.00,2013-03-21 04:09:00,
2013-03-21 00:10:00,52.0,47.3,29.88,WNW,298,4.0,4.0,84,0.00,,---,0.00,0.00,VWS V14.00,2013-03-21 04:10:00,
2013-03-21 00:11:00,52.0,47.3,29.88,West,278,2.0,6.0,84,0.00,,---,0.00,0.00,VWS V14.00,2013-03-21 04:11:00,
2013-03-21 00:12:00,52.0,47.3,29.88,West,278,3.0,6.0,84,0.00,,---,0.00,0.00,VWS V14.00,2013-03-21 04:12:00,
2013-03-21 00:13:00,52.0,47.3,29.88,West,278,3.0,6.0,84,0.00,,---,0.00,0.00,VWS V14.00,2013-03-21 04:13:00,
2013-03-21 00:14:00,52.0,47.3,29.88,West,278,3.0,6.0,84,0.00,,---,0.00,0.00,VWS V14.00,2013-03-21 04:14:00,
2013-03-21 00:15:00,52.0,47.3,29.88,West,278,3.0,6.0,84,0.00,,---,0.00,0.00,VWS V14.00,2013-03-21 04:15:00,
2013-03-21 00:16:00,52.0,47.3,29.88,West,278,2.0,6.0,84,0.00,,---,0.00,0.00,VWS V14.00,2013-03-21 04:16:00,
2013-03-21 00:17:00,52.0,47.6,29.88,West,278,3.0,6.0,85,0.00,,---,0.00,0.00,VWS V14.00,2013-03-21 04:17:00,
2013-03-21 00:18:00,52.0,47.6,29.88,West,278,3.0,6.0,85,0.00,,---,0.00,0.00,VWS V14.00,2013-03-21 04:18:00,
2013-03-21 00:19:00,51.9,47.2,29.88,West,278,2.0,6.0,84,0.00,,---,0.00,0.00,VWS V14.00,2013-03-21 04:19:00,
2013-03-21 00:20:00,51.9,47.2,29.88,West,278,2.0,6.0,84,0.00,,---,0.00,0.00,VWS V14.00,2013-03-21 04:20:00,
2013-03-21 00:21:00,51.9,47.2,29.88,West,278,2.0,6.0,84,0.00,,---,0.00,0.00,VWS V14.00,2013-03-21 04:21:00,
2013-03-21 00:22:00,51.9,47.2,29.88,West,278,2.0,6.0,84,0.00,,---,0.00,0.00,VWS V14.00,2013-03-21 04:22:00,
2013-03-21 00:23:00,51.9,47.2,29.88,West,278,0.0,6.0,84,0.00,,---,0.00,0.00,VWS V14.00,2013-03-21 04:23:00,
2013-03-21 00:24:00,51.9,47.5,29.88,West,278,1.0,6.0,85,0.00,,---,0.00,0.00,VWS V14.00,2013-03-21 04:24:00,
2013-03-21 00:25:00,51.9,47.5,29.88,West,278,0.0,6.0,85,0.00,,---,0.00,0.00,VWS V14.00,2013-03-21 04:25:00,
2013-03-21 00:26:00,51.8,47.4,29.88,West,278,0.0,6.0,85,0.00,,---,0.00,0.00,VWS V14.00,2013-03-21 04:26:00,
2013-03-21 00:27:00,51.8,47.4,29.88,West,278,0.0,6.0,85,0.00,,---,0.00,0.00,VWS V14.00,2013-03-21 04:27:00,
2013-03-21 00:28:00,51.7,47.3,29.88,West,278,0.0,6.0,85,0.00,,---,0.00,0.00,VWS V14.00,2013-03-21 04:28:00,
2013-03-21 00:29:00,51.7,47.3,29.88,West,278,0.0,6.0,85,0.00,,---,0.00,0.00,VWS V14.00,2013-03-21 04:29:00,
2013-03-21 00:30:00,51.7,47.3,29.88,West,278,0.0,6.0,85,0.00,,---,0.00,0.00,VWS V14.00,2013-03-21 04:30:00,
2013-03-21 00:31:00,51.7,47.3,29.88,West,278,0.0,0.0,85,0.00,,---,0.00,0.00,VWS V14.00,2013-03-21 04:31:00,
2013-03-21 00:32:00,51.7,47.3,29.88,West,278,0.0,0.0,85,0.00,,---,0.00,0.00,VWS V14.00,2013-03-21 04:32:00,
2013-03-21 00:33:00,51.7,47.3,29.88,West,278,0.0,0.0,85,0.00,,---,0.00,0.00,VWS V14.00,2013-03-21 04:33:00,
2013-03-21 00:34:00,51.6,47.2,29.88,West,278,0.0,0.0,85,0.00,,---,0.00,0.00,VWS V14.00,2013-03-21 04:34:00,
2013-03-21 00:35:00,51.7,47.3,29.88,West,278,0.0,0.0,85,0.00,,---,0.00,0.00,VWS V14.00,2013-03-21 04:35:00,
2013-03-21 00:36:00,51.7,47.3,29.88,West,278,0.0,0.0,85,0.00,,---,0.00,0.00,VWS V14.00,2013-03-21 04:36:00,
2013-03-21 00:37:00,51.7,47.3,29.88,West,278,0.0,0.0,85,0.00,,---,0.00,0.00,VWS V14.00,2013-03-21 04:37:00,
2013-03-21 00:38:00,51.7,47.7,29.88,West,278,0.0,0.0,86,0.00,,---,0.00,0.00,VWS V14.00,2013-03-21 04:38:00,
2013-03-21 00:39:00,51.7,47.7,29.88,West,278,2.0,2.0,86,0.00,,---,0.00,0.00,VWS V14.00,2013-03-21 04:39:00,
2013-03-21 00:40:00,51.7,47.7,29.89,West,278,2.0,3.0,86,0.00,,---,0.00,0.00,VWS V14.00,2013-03-21 04:40:00,
2013-03-21 00:41:00,51.7,47.7,29.89,West,278,3.0,3.0,86,0.00,,---,0.00,0.00,VWS V14.00,2013-03-21 04:41:00,
2013-03-21 00:42:00,51.6,47.6,29.89,West,278,2.0,3.0,86,0.00,,---,0.00,0.00,VWS V14.00,2013-03-21 04:42:00,
2013-03-21 00:43:00,51.6,47.6,29.88,West,278,2.0,3.0,86,0.00,,---,0.00,0.00,VWS V14.00,2013-03-21 04:43:00,
2013-03-21 00:44:00,51.6,47.2,29.89,West,278,1.0,3.0,85,0.00,,---,0.00,0.00,VWS V14.00,2013-03-21 04:44:00,
2013-03-21 00:45:00,51.6,47.2,29.89,West,277,2.0,5.0,85,0.00,,---,0.00,0.00,VWS V14.00,2013-03-21 04:45:00,
2013-03-21 00:46:00,51.5,47.2,29.88,West,277,2.0,5.0,85,0.00,,---,0.00,0.00,VWS V14.00,2013-03-21 04:46:00,
2013-03-21 00:47:00,51.5,47.2,29.88,West,277,3.0,5.0,85,0.00,,---,0.00,0.00,VWS V14.00,2013-03-21 04:47:00,
2013-03-21 00:48:00,51.4,47.0,29.88,West,274,3.0,5.0,85,0.00,,---,0.00,0.00,VWS V14.00,2013-03-21 04:48:00,
2013-03-21 00:49:00,51.4,47.0,29.88,West,271,5.0,6.0,85,0.00,,---,0.00,0.00,VWS V14.00,2013-03-21 04:49:00,
2013-03-21 00:50:00,51.4,47.0,29.88,West,271,3.0,6.0,85,0.00,,---,0.00,0.00,VWS V14.00,2013-03-21 04:50:00,
2013-03-21 00:51:00,51.4,47.0,29.88,West,271,2.0,6.0,85,0.00,,---,0.00,0.00,VWS V14.00,2013-03-21 04:51:00,
2013-03-21 00:52:00,51.3,47.0,29.89,West,271,2.0,6.0,85,0.00,,---,0.00,0.00,VWS V14.00,2013-03-21 04:52:00,
2013-03-21 00:53:00,51.3,47.0,29.89,West,271,2.0,6.0,85,0.00,,---,0.00,0.00,VWS V14.00,2013-03-21 04:53:00,
2013-03-21 00:54:00,51.3,47.0,29.89,West,270,3.0,6.0,85,0.00,,---,0.00,0.00,VWS V14.00,2013-03-21 04:54:00,
2013-03-21 00:55:00,51.3,47.0,29.89,West,270,3.0,6.0,85,0.00,,---,0.00,0.00,VWS V14.00,2013-03-21 04:55:00,
2013-03-21 00:56:00,51.3,47.0,29.89,West,270,3.0,6.0,85,0.00,,---,0.00,0.00,VWS V14.00,2013-03-21 04:56:00,
2013-03-21 00:57:00,51.2,46.8,29.89,West,270,2.0,6.0,85,0.00,,---,0.00,0.00,VWS V14.00,2013-03-21 04:57:00,
2013-03-21 00:58:00,51.2,46.8,29.89,West,270,3.0,6.0,85,0.00,,---,0.00,0.00,VWS V14.00,2013-03-21 04:58:00,
2013-03-21 00:59:00,51.2,46.8,29.89,West,270,3.0,6.0,85,0.00,,---,0.00,0.00,VWS V14.00,2013-03-21 04:59:00,
2013-03-21 01:00:00,51.2,46.8,29.89,West,270,2.0,6.0,85,0.00,,---,0.00,0.00,VWS V14.00,2013-03-21 05:00:00,
2013-03-21 01:01:00,51.2,46.8,29.88,West,270,2.0,3.0,85,0.00,,---,0.00,0.00,VWS V14.00,2013-03-21 05:01:00,
2013-03-21 01:02:00,51.2,47.2,29.89,West,270,3.0,5.0,86,0.00,,---,0.00,0.00,VWS V14.00,2013-03-21 05:02:00,
2013-03-21 01:03:00,51.2,47.2,29.89,West,270,2.0,5.0,86,0.00,,---,0.00,0.00,VWS V14.00,2013-03-21 05:03:00,
2013-03-21 01:04:00,51.1,47.1,29.88,West,270,2.0,5.0,86,0.00,,---,0.00,0.00,VWS V14.00,2013-03-21 05:04:00,
2013-03-21 01:05:00,51.2,47.2,29.88,West,270,0.0,5.0,86,0.00,,---,0.00,0.00,VWS V14.00,2013-03-21 05:05:00,
2013-03-21 01:06:00,51.2,47.2,29.89,West,270,0.0,5.0,86,0.00,,---,0.00,0.00,VWS V14.00,2013-03-21 05:06:00,
2013-03-21 01:07:00,51.2,47.2,29.88,West,270,2.0,5.0,86,0.00,,---,0.00,0.00,VWS V14.00,2013-03-21 05:07:00,
2013-03-21 01:08:00,51.2,47.2,29.88,West,270,1.0,5.0,86,0.00,,---,0.00,0.00,VWS V14.00,2013-03-21 05:08:00,
2013-03-21 01:09:00,51.2,47.2,29.88,West,270,1.0,5.0,86,0.00,,---,0.00,0.00,VWS V14.00,2013-03-21 05:09:00,
2013-03-21 01:10:00,51.2,47.2,29.88,West,270,0.0,5.0,86,0.00,,---,0.00,0.00,VWS V14.00,2013-03-21 05:10:00,
2013-03-21 01:11:00,51.3,47.3,29.88,West,270,2.0,5.0,86,0.00,,---,0.00,0.00,VWS V14.00,2013-03-21 05:11:00,
2013-03-21 01:12:00,51.3,47.3,29.88,West,270,3.0,5.0,86,0.00,,---,0.00,0.00,VWS V14.00,2013-03-21 05:12:00,
2013-03-21 01:13:00,51.3,47.3,29.88,West,270,3.0,5.0,86,0.00,,---,0.00,0.00,VWS V14.00,2013-03-21 05:13:00,
2013-03-21 01:14:00,51.2,47.2,29.88,West,270,0.0,5.0,86,0.00,,---,0.00,0.00,VWS V14.00,2013-03-21 05:14:00,
2013-03-21 01:15:00,51.2,47.2,29.88,West,270,0.0,5.0,86,0.00,,---,0.00,0.00,VWS V14.00,2013-03-21 05:15:00,
2013-03-21 01:16:00,51.2,47.2,29.89,West,270,0.0,5.0,86,0.00,,---,0.00,0.00,VWS V14.00,2013-03-21 05:16:00,
2013-03-21 01:17:00,51.2,47.2,29.89,West,270,2.0,5.0,86,0.00,,---,0.00,0.00,VWS V14.00,2013-03-21 05:17:00,
2013-03-21 01:18:00,51.2,47.2,29.89,West,270,3.0,5.0,86,0.00,,---,0.00,0.00,VWS V14.00,2013-03-21 05:18:00,
2013-03-21 01:19:00,51.2,47.2,29.89,West,270,3.0,5.0,86,0.00,,---,0.00,0.00,VWS V14.00,2013-03-21 05:19:00,
2013-03-21 01:20:00,51.1,47.1,29.89,West,270,5.0,5.0,86,0.00,,---,0.00,0.00,VWS V14.00,2013-03-21 05:20:00,
2013-03-21 01:21:00,51.1,47.1,29.89,West,270,3.0,5.0,86,0.00,,---,0.00,0.00,VWS V14.00,2013-03-21 05:21:00,
2013-03-21 01:22:00,51.0,47.0,29.89,West,270,3.0,5.0,86,0.00,,---,0.00,0.00,VWS V14.00,2013-03-21 05:22:00,
2013-03-21 01:23:00,51.0,47.0,29.89,West,270,5.0,5.0,86,0.00,,---,0.00,0.00,VWS V14.00,2013-03-21 05:23:00,
2013-03-21 01:24:00,51.0,47.0,29.89,West,270,5.0,6.0,86,0.00,,---,0.00,0.00,VWS V14.00,2013-03-21 05:24:00,
2013-03-21 01:25:00,51.0,47.0,29.89,West,269,5.0,6.0,86,0.00,,---,0.00,0.00,VWS V14.00,2013-03-21 05:25:00,
2013-03-21 01:26:00,50.9,47.2,29.89,West,269,6.0,6.0,87,0.00,,---,0.00,0.00,VWS V14.00,2013-03-21 05:26:00,
2013-03-21 01:27:00,50.9,47.2,29.89,West,268,5.0,6.0,87,0.00,,---,0.00,0.00,VWS V14.00,2013-03-21 05:27:00,
2013-03-21 01:28:00,50.9,47.2,29.89,West,264,5.0,6.0,87,0.00,,---,0.00,0.00,VWS V14.00,2013-03-21 05:28:00,
2013-03-21 01:29:00,50.9,47.2,29.89,West,264,5.0,6.0,87,0.00,,---,0.00,0.00,VWS V14.00,2013-03-21 05:29:00,
2013-03-21 01:30:00,50.9,47.2,29.89,West,263,5.0,6.0,87,0.00,,---,0.00,0.00,VWS V14.00,2013-03-21 05:30:00,
2013-03-21 01:31:00,50.9,47.2,29.89,West,262,5.0,6.0,87,0.00,,---,0.00,0.00,VWS V14.00,2013-03-21 05:31:00,
2013-03-21 01:32:00,50.9,47.2,29.89,West,262,3.0,6.0,87,0.00,,---,0.00,0.00,VWS V14.00,2013-03-21 05:32:00,
2013-03-21 01:33:00,50.9,47.2,29.89,West,262,3.0,6.0,87,0.00,,---,0.00,0.00,VWS V14.00,2013-03-21 05:33:00,
2013-03-21 01:34:00,50.8,47.1,29.89,West,262,2.0,6.0,87,0.00,,---,0.00,0.00,VWS V14.00,2013-03-21 05:34:00,
2013-03-21 01:35:00,50.8,47.1,29.89,West,262,3.0,6.0,87,0.00,,---,0.00,0.00,VWS V14.00,2013-03-21 05:35:00,
2013-03-21 01:36:00,50.8,47.1,29.89,West,262,2.0,6.0,87,0.00,,---,0.00,0.00,VWS V14.00,2013-03-21 05:36:00,
2013-03-21 01:37:00,50.8,47.1,29.89,West,262,2.0,6.0,87,0.00,,---,0.00,0.00,VWS V14.00,2013-03-21 05:37:00,
2013-03-21 01:38:00,50.8,47.1,29.89,West,262,2.0,6.0,87,0.00,,---,0.00,0.00,VWS V14.00,2013-03-21 05:38:00,
2013-03-21 01:39:00,50.8,47.1,29.89,West,262,1.0,6.0,87,0.00,,---,0.00,0.00,VWS V14.00,2013-03-21 05:39:00,
2013-03-21 01:40:00,50.8,47.1,29.89,West,262,0.0,6.0,87,0.00,,---,0.00,0.00,VWS V14.00,2013-03-21 05:40:00,
2013-03-21 01:41:00,50.8,47.1,29.89,West,262,2.0,6.0,87,0.00,,---,0.00,0.00,VWS V14.00,2013-03-21 05:41:00,
2013-03-21 01:42:00,50.8,47.1,29.89,West,262,2.0,6.0,87,0.00,,---,0.00,0.00,VWS V14.00,2013-03-21 05:42:00,
2013-03-21 01:43:00,50.8,47.1,29.88,West,262,0.0,6.0,87,0.00,,---,0.00,0.00,VWS V14.00,2013-03-21 05:43:00,
2013-03-21 01:44:00,50.8,47.1,29.88,West,262,0.0,6.0,87,0.00,,---,0.00,0.00,VWS V14.00,2013-03-21 05:44:00,
2013-03-21 01:45:00,50.8,47.1,29.88,West,262,0.0,6.0,87,0.00,,---,0.00,0.00,VWS V14.00,2013-03-21 05:45:00,
2013-03-21 01:46:00,50.7,47.0,29.88,West,262,0.0,6.0,87,0.00,,---,0.00,0.00,VWS V14.00,2013-03-21 05:46:00,
2013-03-21 01:47:00,50.7,47.0,29.88,West,262,0.0,6.0,87,0.00,,---,0.00,0.00,VWS V14.00,2013-03-21 05:47:00,
2013-03-21 01:48:00,50.7,47.0,29.88,West,262,0.0,6.0,87,0.00,,---,0.00,0.00,VWS V14.00,2013-03-21 05:48:00,
2013-03-21 01:49:00,50.7,47.0,29.88,West,262,1.0,6.0,87,0.00,,---,0.00,0.00,VWS V14.00,2013-03-21 05:49:00,
2013-03-21 01:50:00,50.7,47.0,29.88,West,262,2.0,6.0,87,0.00,,---,0.00,0.00,VWS V14.00,2013-03-21 05:50:00,
2013-03-21 01:51:00,50.7,47.0,29.88,West,262,3.0,6.0,87,0.00,,---,0.00,0.00,VWS V14.00,2013-03-21 05:51:00,
2013-03-21 01:52:00,50.7,47.0,29.88,West,262,3.0,6.0,87,0.00,,---,0.00,0.00,VWS V14.00,2013-03-21 05:52:00,
2013-03-21 01:53:00,50.6,46.9,29.88,West,262,3.0,6.0,87,0.00,,---,0.00,0.00,VWS V14.00,2013-03-21 05:53:00,
2013-03-21 01:54:00,50.7,47.0,29.88,West,262,2.0,6.0,87,0.00,,---,0.00,0.00,VWS V14.00,2013-03-21 05:54:00,
2013-03-21 01:55:00,50.6,46.9,29.88,West,262,2.0,6.0,87,0.00,,---,0.00,0.00,VWS V14.00,2013-03-21 05:55:00,
2013-03-21 01:56:00,50.6,46.9,29.88,West,261,2.0,6.0,87,0.00,,---,0.00,0.00,VWS V14.00,2013-03-21 05:56:00,
2013-03-21 01:57:00,50.6,46.6,29.88,West,261,3.0,6.0,86,0.00,,---,0.00,0.00,VWS V14.00,2013-03-21 05:57:00,
2013-03-21 01:58:00,50.6,46.6,29.88,West,261,2.0,6.0,86,0.00,,---,0.00,0.00,VWS V14.00,2013-03-21 05:58:00,
2013-03-21 01:59:00,50.6,46.6,29.88,West,262,2.0,6.0,86,0.00,,---,0.00,0.00,VWS V14.00,2013-03-21 05:59:00,
2013-03-21 02:00:00,50.5,46.5,29.88,West,261,0.0,6.0,86,0.00,,---,0.00,0.00,VWS V14.00,2013-03-21 06:00:00,
2013-03-21 02:01:00,50.5,46.5,29.88,West,261,1.0,1.0,86,0.00,,---,0.00,0.00,VWS V14.00,2013-03-21 06:01:00,
2013-03-21 02:02:00,50.5,46.5,29.88,West,261,0.0,1.0,86,0.00,,---,0.00,0.00,VWS V14.00,2013-03-21 06:02:00,
2013-03-21 02:03:00,50.5,46.5,29.88,West,262,2.0,3.0,86,0.00,,---,0.00,0.00,VWS V14.00,2013-03-21 06:03:00,
2013-03-21 02:04:00,50.5,46.5,29.88,West,261,2.0,3.0,86,0.00,,---,0.00,0.00,VWS V14.00,2013-03-21 06:04:00,
2013-03-21 02:05:00,50.5,46.8,29.88,West,262,1.0,3.0,87,0.00,,---,0.00,0.00,VWS V14.00,2013-03-21 06:05:00,
2013-03-21 02:06:00,50.5,46.8,29.88,West,261,0.0,3.0,87,0.00,,---,0.00,0.00,VWS V14.00,2013-03-21 06:06:00,
2013-03-21 02:07:00,50.5,46.5,29.88,West,261,0.0,3.0,86,0.00,,---,0.00,0.00,VWS V14.00,2013-03-21 06:07:00,
2013-03-21 02:08:00,50.4,46.4,29.88,West,261,1.0,3.0,86,0.00,,---,0.00,0.00,VWS V14.00,2013-03-21 06:08:00,
2013-03-21 02:09:00,50.4,46.4,29.88,West,262,0.0,3.0,86,0.00,,---,0.00,0.00,VWS V14.00,2013-03-21 06:09:00,
2013-03-21 02:10:00,50.4,46.4,29.88,West,261,3.0,3.0,86,0.00,,---,0.00,0.00,VWS V14.00,2013-03-21 06:10:00,
2013-03-21 02:11:00,50.3,46.3,29.88,West,262,1.0,5.0,86,0.00,,---,0.00,0.00,VWS V14.00,2013-03-21 06:11:00,
2013-03-21 02:12:00,50.3,46.3,29.88,West,262,0.0,5.0,86,0.00,,---,0.00,0.00,VWS V14.00,2013-03-21 06:12:00,
2013-03-21 02:13:00,50.4,46.4,29.88,West,262,0.0,5.0,86,0.00,,---,0.00,0.00,VWS V14.00,2013-03-21 06:13:00,
2013-03-21 02:14:00,50.4,46.7,29.88,West,262,2.0,5.0,87,0.00,,---,0.00,0.00,VWS V14.00,2013-03-21 06:14:00,
2013-03-21 02:15:00,50.4,46.7,29.88,West,262,2.0,5.0,87,0.00,,---,0.00,0.00,VWS V14.00,2013-03-21 06:15:00,
2013-03-21 02:16:00,50.4,46.4,29.88,West,262,2.0,5.0,86,0.00,,---,0.00,0.00,VWS V14.00,2013-03-21 06:16:00,
2013-03-21 02:17:00,50.3,46.3,29.88,West,262,0.0,5.0,86,0.00,,---,0.00,0.00,VWS V14.00,2013-03-21 06:17:00,
2013-03-21 02:18:00,50.3,46.3,29.88,West,262,0.0,5.0,86,0.00,,---,0.00,0.00,VWS V14.00,2013-03-21 06:18:00,
2013-03-21 02:19:00,50.3,46.3,29.88,West,262,0.0,5.0,86,0.00,,---,0.00,0.00,VWS V14.00,2013-03-21 06:19:00,
2013-03-21 02:20:00,50.3,46.3,29.88,West,262,2.0,5.0,86,0.00,,---,0.00,0.00,VWS V14.00,2013-03-21 06:20:00,
2013-03-21 02:21:00,50.2,46.2,29.88,West,262,1.0,5.0,86,0.00,,---,0.00,0.00,VWS V14.00,2013-03-21 06:21:00,
2013-03-21 02:22:00,50.2,45.9,29.88,West,262,0.0,5.0,85,0.00,,---,0.00,0.00,VWS V14.00,2013-03-21 06:22:00,
2013-03-21 02:23:00,50.2,45.9,29.88,West,262,2.0,5.0,85,0.00,,---,0.00,0.00,VWS V14.00,2013-03-21 06:23:00,
2013-03-21 02:24:00,50.1,45.8,29.88,West,262,2.0,5.0,85,0.00,,---,0.00,0.00,VWS V14.00,2013-03-21 06:24:00,
2013-03-21 02:25:00,50.1,45.8,29.88,West,262,5.0,5.0,85,0.00,,---,0.00,0.00,VWS V14.00,2013-03-21 06:25:00,
2013-03-21 02:26:00,50.1,45.8,29.88,West,262,2.0,5.0,85,0.00,,---,0.00,0.00,VWS V14.00,2013-03-21 06:26:00,
2013-03-21 02:27:00,50.0,45.7,29.88,West,262,3.0,5.0,85,0.00,,---,0.00,0.00,VWS V14.00,2013-03-21 06:27:00,
2013-03-21 02:28:00,50.0,45.4,29.88,West,262,2.0,5.0,84,0.00,,---,0.00,0.00,VWS V14.00,2013-03-21 06:28:00,
2013-03-21 02:29:00,50.0,45.7,29.88,West,262,3.0,5.0,85,0.00,,---,0.00,0.00,VWS V14.00,2013-03-21 06:29:00,
2013-03-21 02:30:00,49.9,45.3,29.88,West,262,2.0,5.0,84,0.00,,---,0.00,0.00,VWS V14.00,2013-03-21 06:30:00,
2013-03-21 02:31:00,49.9,45.3,29.88,West,262,5.0,5.0,84,0.00,,---,0.00,0.00,VWS V14.00,2013-03-21 06:31:00,
2013-03-21 02:32:00,49.9,45.3,29.89,West,262,3.0,5.0,84,0.00,,---,0.00,0.00,VWS V14.00,2013-03-21 06:32:00,
2013-03-21 02:33:00,49.9,45.3,29.89,West,261,3.0,5.0,84,0.00,,---,0.00,0.00,VWS V14.00,2013-03-21 06:33:00,
2013-03-21 02:34:00,49.9,45.3,29.89,West,261,2.0,5.0,84,0.00,,---,0.00,0.00,VWS V14.00,2013-03-21 06:34:00,
2013-03-21 02:35:00,49.8,45.2,29.89,West,261,5.0,5.0,84,0.00,,---,0.00,0.00,VWS V14.00,2013-03-21 06:35:00,
2013-03-21 02:36:00,49.7,45.1,29.89,West,261,3.0,5.0,84,0.00,,---,0.00,0.00,VWS V14.00,2013-03-21 06:36:00,
2013-03-21 02:37:00,49.7,45.1,29.89,West,261,5.0,5.0,84,0.00,,---,0.00,0.00,VWS V14.00,2013-03-21 06:37:00,
2013-03-21 02:38:00,49.7,45.1,29.89,West,264,3.0,7.0,84,0.00,,---,0.00,0.00,VWS V14.00,2013-03-21 06:38:00,
2013-03-21 02:39:00,49.7,45.1,29.89,West,265,3.0,7.0,84,0.00,,---,0.00,0.00,VWS V14.00,2013-03-21 06:39:00,
2013-03-21 02:40:00,49.7,45.1,29.89,West,264,6.0,7.0,84,0.00,,---,0.00,0.00,VWS V14.00,2013-03-21 06:40:00,
2013-03-21 02:41:00,49.6,45.0,29.89,West,264,3.0,7.0,84,0.00,,---,0.00,0.00,VWS V14.00,2013-03-21 06:41:00,
2013-03-21 02:42:00,49.6,44.7,29.89,West,260,5.0,7.0,83,0.00,,---,0.00,0.00,VWS V14.00,2013-03-21 06:42:00,
2013-03-21 02:43:00,49.6,44.7,29.89,West,260,2.0,7.0,83,0.00,,---,0.00,0.00,VWS V14.00,2013-03-21 06:43:00,
2013-03-21 02:44:00,49.5,44.6,29.89,West,262,3.0,7.0,83,0.00,,---,0.00,0.00,VWS V14.00,2013-03-21 06:44:00,
2013-03-21 02:45:00,49.5,44.6,29.89,West,264,5.0,7.0,83,0.00,,---,0.00,0.00,VWS V14.00,2013-03-21 06:45:00,
2013-03-21 02:46:00,49.5,44.6,29.89,West,260,2.0,7.0,83,0.00,,---,0.00,0.00,VWS V14.00,2013-03-21 06:46:00,
2013-03-21 02:47:00,49.4,44.5,29.89,West,279,5.0,7.0,83,0.00,,---,0.00,0.00,VWS V14.00,2013-03-21 06:47:00,
2013-03-21 02:48:00,49.4,44.5,29.89,West,274,5.0,7.0,83,0.00,,---,0.00,0.00,VWS V14.00,2013-03-21 06:48:00,
2013-03-21 02:49:00,49.4,44.5,29.89,West,274,3.0,7.0,83,0.00,,---,0.00,0.00,VWS V14.00,2013-03-21 06:49:00,
2013-03-21 02:50:00,49.4,44.5,29.89,West,274,3.0,7.0,83,0.00,,---,0.00,0.00,VWS V14.00,2013-03-21 06:50:00,
2013-03-21 02:51:00,49.4,44.1,29.89,West,274,5.0,7.0,82,0.00,,---,0.00,0.00,VWS V14.00,2013-03-21 06:51:00,
2013-03-21 02:52:00,49.4,44.1,29.89,West,273,5.0,7.0,82,0.00,,---,0.00,0.00,VWS V14.00,2013-03-21 06:52:00,
2013-03-21 02:53:00,49.3,44.0,29.89,West,273,2.0,7.0,82,0.00,,---,0.00,0.00,VWS V14.00,2013-03-21 06:53:00,
2013-03-21 02:54:00,49.3,44.0,29.89,West,268,6.0,7.0,82,0.00,,---,0.00,0.00,VWS V14.00,2013-03-21 06:54:00,
2013-03-21 02:55:00,49.3,44.0,29.89,WNW,287,3.0,7.0,82,0.00,,---,0.00,0.00,VWS V14.00,2013-03-21 06:55:00,
2013-03-21 02:56:00,49.3,44.0,29.89,West,268,6.0,7.0,82,0.00,,---,0.00,0.00,VWS V14.00,2013-03-21 06:56:00,
2013-03-21 02:57:00,49.4,43.8,29.89,West,267,5.0,7.0,81,0.00,,---,0.00,0.00,VWS V14.00,2013-03-21 06:57:00,
2013-03-21 02:58:00,49.4,44.1,29.89,West,269,3.0,7.0,82,0.00,,---,0.00,0.00,VWS V14.00,2013-03-21 06:58:00,
2013-03-21 02:59:00,49.5,44.2,29.89,West,268,2.0,7.0,82,0.00,,---,0.00,0.00,VWS V14.00,2013-03-21 06:59:00,
2013-03-21 03:00:00,49.4,43.8,29.89,West,268,3.0,7.0,81,0.00,,---,0.00,0.00,VWS V14.00,2013-03-21 07:00:00,
2013-03-21 03:01:00,49.4,43.8,29.89,West,268,3.0,5.0,81,0.00,,---,0.00,0.00,VWS V14.00,2013-03-21 07:01:00,
2013-03-21 03:02:00,49.4,43.8,29.89,West,269,5.0,5.0,81,0.00,,---,0.00,0.00,VWS V14.00,2013-03-21 07:02:00,
2013-03-21 03:03:00,49.4,43.8,29.89,West,269,5.0,5.0,81,0.00,,---,0.00,0.00,VWS V14.00,2013-03-21 07:03:00,
2013-03-21 03:04:00,49.4,43.8,29.89,West,269,3.0,5.0,81,0.00,,---,0.00,0.00,VWS V14.00,2013-03-21 07:04:00,
2013-03-21 03:05:00,49.4,43.8,29.89,West,269,3.0,5.0,81,0.00,,---,0.00,0.00,VWS V14.00,2013-03-21 07:05:00,
2013-03-21 03:06:00,49.4,43.8,29.89,West,268,3.0,5.0,81,0.00,,---,0.00,0.00,VWS V14.00,2013-03-21 07:06:00,
2013-03-21 03:07:00,49.4,43.8,29.89,West,268,3.0,5.0,81,0.00,,---,0.00,0.00,VWS V14.00,2013-03-21 07:07:00,
2013-03-21 03:08:00,49.3,43.7,29.89,West,273,5.0,6.0,81,0.00,,---,0.00,0.00,VWS V14.00,2013-03-21 07:08:00,
2013-03-21 03:09:00,49.3,43.4,29.89,West,272,3.0,6.0,80,0.00,,---,0.00,0.00,VWS V14.00,2013-03-21 07:09:00,
2013-03-21 03:10:00,49.3,43.4,29.89,West,280,6.0,7.0,80,0.00,,---,0.00,0.00,VWS V14.00,2013-03-21 07:10:00,
2013-03-21 03:11:00,49.2,43.3,29.89,WNW,293,4.0,7.0,80,0.00,,---,0.00,0.00,VWS V14.00,2013-03-21 07:11:00,
2013-03-21 03:12:00,49.3,43.1,29.89,WNW,293,3.0,7.0,79,0.00,,---,0.00,0.00,VWS V14.00,2013-03-21 07:12:00,
2013-03-21 03:13:00,49.3,43.4,29.89,WNW,293,3.0,7.0,80,0.00,,---,0.00,0.00,VWS V14.00,2013-03-21 07:13:00,
2013-03-21 03:14:00,49.3,43.4,29.89,WNW,293,2.0,7.0,80,0.00,,---,0.00,0.00,VWS V14.00,2013-03-21 07:14:00,
2013-03-21 03:15:00,49.3,43.1,29.89,WNW,291,5.0,7.0,79,0.00,,---,0.00,0.00,VWS V14.00,2013-03-21 07:15:00,
2013-03-21 03:16:00,49.3,43.1,29.89,WNW,289,3.0,7.0,79,0.00,,---,0.00,0.00,VWS V14.00,2013-03-21 07:16:00,
2013-03-21 03:17:00,49.2,43.0,29.89,WNW,289,2.0,7.0,79,0.00,,---,0.00,0.00,VWS V14.00,2013-03-21 07:17:00,
2013-03-21 03:18:00,49.3,43.1,29.89,WNW,285,4.0,7.0,79,0.00,,---,0.00,0.00,VWS V14.00,2013-03-21 07:18:00,
2013-03-21 03:19:00,49.2,42.6,29.89,WNW,285,3.0,7.0,78,0.00,,---,0.00,0.00,VWS V14.00,2013-03-21 07:19:00,
2013-03-21 03:20:00,49.2,42.6,29.89,WNW,290,4.0,7.0,78,0.00,,---,0.00,0.00,VWS V14.00,2013-03-21 07:20:00,
2013-03-21 03:21:00,49.2,42.6,29.89,WNW,290,4.0,7.0,78,0.00,,---,0.00,0.00,VWS V14.00,2013-03-21 07:21:00,
2013-03-21 03:22:00,49.2,42.6,29.89,WNW,287,3.0,7.0,78,0.00,,---,0.00,0.00,VWS V14.00,2013-03-21 07:22:00,
2013-03-21 03:23:00,49.2,42.6,29.89,NW,308,4.0,7.0,78,0.00,,---,0.00,0.00,VWS V14.00,2013-03-21 07:23:00,
2013-03-21 03:24:00,49.2,42.3,29.89,WNW,301,4.0,7.0,77,0.00,,---,0.00,0.00,VWS V14.00,2013-03-21 07:24:00,
2013-03-21 03:25:00,49.2,42.3,29.89,WNW,301,4.0,7.0,77,0.00,,---,0.00,0.00,VWS V14.00,2013-03-21 07:25:00,
2013-03-21 03:26:00,49.2,42.3,29.89,WNW,289,3.0,7.0,77,0.00,,---,0.00,0.00,VWS V14.00,2013-03-21 07:26:00,
2013-03-21 03:27:00,49.1,42.2,29.89,WNW,288,4.0,7.0,77,0.00,,---,0.00,0.00,VWS V14.00,2013-03-21 07:27:00,
2013-03-21 03:28:00,49.1,41.9,29.89,WNW,285,5.0,7.0,76,0.00,,---,0.00,0.00,VWS V14.00,2013-03-21 07:28:00,
2013-03-21 03:29:00,49.1,41.9,29.89,WNW,285,2.0,7.0,76,0.00,,---,0.00,0.00,VWS V14.00,2013-03-21 07:29:00,
2013-03-21 03:30:00,49.1,41.9,29.89,WNW,283,3.0,7.0,76,0.00,,---,0.00,0.00,VWS V14.00,2013-03-21 07:30:00,
2013-03-21 03:31:00,49.1,41.9,29.89,WNW,298,3.0,4.0,76,0.00,,---,0.00,0.00,VWS V14.00,2013-03-21 07:31:00,
2013-03-21 03:32:00,49.1,41.9,29.89,WNW,298,1.0,4.0,76,0.00,,---,0.00,0.00,VWS V14.00,2013-03-21 07:32:00,
2013-03-21 03:33:00,49.1,42.2,29.89,WNW,297,3.0,4.0,77,0.00,,---,0.00,0.00,VWS V14.00,2013-03-21 07:33:00,
2013-03-21 03:34:00,49.0,41.8,29.89,WNW,296,3.0,4.0,76,0.00,,---,0.00,0.00,VWS V14.00,2013-03-21 07:34:00,
2013-03-21 03:35:00,49.0,41.8,29.89,WNW,296,3.0,4.0,76,0.00,,---,0.00,0.00,VWS V14.00,2013-03-21 07:35:00,
2013-03-21 03:36:00,49.0,41.8,29.89,WNW,296,3.0,5.0,76,0.00,,---,0.00,0.00,VWS V14.00,2013-03-21 07:36:00,
2013-03-21 03:37:00,48.9,41.3,29.89,WNW,296,4.0,5.0,75,0.00,,---,0.00,0.00,VWS V14.00,2013-03-21 07:37:00,
2013-03-21 03:38:00,48.8,41.2,29.89,WNW,296,2.0,5.0,75,0.00,,---,0.00,0.00,VWS V14.00,2013-03-21 07:38:00,
2013-03-21 03:39:00,48.8,41.6,29.89,WNW,295,3.0,5.0,76,0.00,,---,0.00,0.00,VWS V14.00,2013-03-21 07:39:00,
2013-03-21 03:40:00,48.8,41.6,29.89,WNW,289,2.0,5.0,76,0.00,,---,0.00,0.00,VWS V14.00,2013-03-21 07:40:00,
2013-03-21 03:41:00,48.8,41.6,29.89,WNW,302,3.0,7.0,76,0.00,,---,0.00,0.00,VWS V14.00,2013-03-21 07:41:00,
2013-03-21 03:42:00,48.8,41.2,29.89,WNW,302,3.0,7.0,75,0.00,,---,0.00,0.00,VWS V14.00,2013-03-21 07:42:00,
2013-03-21 03:43:00,48.8,41.2,29.89,West,274,6.0,7.0,75,0.00,,---,0.00,0.00,VWS V14.00,2013-03-21 07:43:00,
2013-03-21 03:44:00,48.8,41.2,29.89,West,273,3.0,7.0,75,0.00,,---,0.00,0.00,VWS V14.00,2013-03-21 07:44:00,
2013-03-21 03:45:00,48.7,41.1,29.88,West,273,5.0,7.0,75,0.00,,---,0.00,0.00,VWS V14.00,2013-03-21 07:45:00,
2013-03-21 03:46:00,48.7,41.1,29.88,West,273,2.0,7.0,75,0.00,,---,0.00,0.00,VWS V14.00,2013-03-21 07:46:00,
2013-03-21 03:47:00,48.7,41.1,29.88,West,272,3.0,7.0,75,0.00,,---,0.00,0.00,VWS V14.00,2013-03-21 07:47:00,
2013-03-21 03:48:00,48.7,41.1,29.89,West,270,5.0,7.0,75,0.00,,---,0.00,0.00,VWS V14.00,2013-03-21 07:48:00,
2013-03-21 03:49:00,48.7,40.8,29.89,West,270,5.0,7.0,74,0.00,,---,0.00,0.00,VWS V14.00,2013-03-21 07:49:00,
2013-03-21 03:50:00,48.6,40.7,29.88,West,269,3.0,7.0,74,0.00,,---,0.00,0.00,VWS V14.00,2013-03-21 07:50:00,
2013-03-21 03:51:00,48.5,40.6,29.89,West,278,5.0,7.0,74,0.00,,---,0.00,0.00,VWS V14.00,2013-03-21 07:51:00,
2013-03-21 03:52:00,48.5,41.0,29.88,West,278,3.0,7.0,75,0.00,,---,0.00,0.00,VWS V14.00,2013-03-21 07:52:00,
2013-03-21 03:53:00,48.5,40.6,29.88,West,273,6.0,7.0,74,0.00,,---,0.00,0.00,VWS V14.00,2013-03-21 07:53:00,
2013-03-21 03:54:00,48.4,40.5,29.88,West,273,3.0,7.0,74,0.00,,---,0.00,0.00,VWS V14.00,2013-03-21 07:54:00,
2013-03-21 03:55:00,48.3,40.4,29.89,West,273,5.0,7.0,74,0.00,,---,0.00,0.00,VWS V14.00,2013-03-21 07:55:00,
2013-03-21 03:56:00,48.3,40.4,29.89,West,273,3.0,7.0,74,0.00,,---,0.00,0.00,VWS V14.00,2013-03-21 07:56:00,
2013-03-21 03:57:00,48.3,40.8,29.89,West,270,6.0,7.0,75,0.00,,---,0.00,0.00,VWS V14.00,2013-03-21 07:57:00,
2013-03-21 03:58:00,48.2,40.7,29.89,West,271,5.0,7.0,75,0.00,,---,0.00,0.00,VWS V14.00,2013-03-21 07:58:00,
2013-03-21 03:59:00,48.2,40.3,29.89,WNW,298,4.0,7.0,74,0.00,,---,0.00,0.00,VWS V14.00,2013-03-21 07:59:00,
2013-03-21 04:00:00,48.2,40.3,29.89,WNW,297,3.0,7.0,74,0.00,,---,0.00,0.00,VWS V14.00,2013-03-21 08:00:00,
2013-03-21 04:01:00,48.2,40.7,29.89,WNW,297,5.0,5.0,75,0.00,,---,0.00,0.00,VWS V14.00,2013-03-21 08:01:00,
2013-03-21 04:02:00,48.2,40.7,29.89,WNW,296,3.0,5.0,75,0.00,,---,0.00,0.00,VWS V14.00,2013-03-21 08:02:00,
2013-03-21 04:03:00,48.2,40.3,29.89,WNW,296,2.0,5.0,74,0.00,,---,0.00,0.00,VWS V14.00,2013-03-21 08:03:00,
2013-03-21 04:04:00,48.2,40.3,29.89,WNW,296,3.0,5.0,74,0.00,,---,0.00,0.00,VWS V14.00,2013-03-21 08:04:00,
2013-03-21 04:05:00,48.1,40.2,29.89,WNW,296,3.0,5.0,74,0.00,,---,0.00,0.00,VWS V14.00,2013-03-21 08:05:00,
2013-03-21 04:06:00,48.1,40.2,29.89,WNW,296,3.0,5.0,74,0.00,,---,0.00,0.00,VWS V14.00,2013-03-21 08:06:00,
2013-03-21 04:07:00,48.1,40.2,29.89,WNW,296,3.0,5.0,74,0.00,,---,0.00,0.00,VWS V14.00,2013-03-21 08:07:00,
2013-03-21 04:08:00,48.1,40.2,29.89,WNW,296,2.0,5.0,74,0.00,,---,0.00,0.00,VWS V14.00,2013-03-21 08:08:00,
2013-03-21 04:09:00,48.1,40.6,29.89,WNW,296,4.0,5.0,75,0.00,,---,0.00,0.00,VWS V14.00,2013-03-21 08:09:00,
2013-03-21 04:10:00,48.0,40.5,29.89,WNW,296,4.0,5.0,75,0.00,,---,0.00,0.00,VWS V14.00,2013-03-21 08:10:00,
2013-03-21 04:11:00,48.0,40.5,29.89,WNW,296,2.0,5.0,75,0.00,,---,0.00,0.00,VWS V14.00,2013-03-21 08:11:00,
2013-03-21 04:12:00,48.0,40.5,29.89,WNW,296,3.0,5.0,75,0.00,,---,0.00,0.00,VWS V14.00,2013-03-21 08:12:00,
2013-03-21 04:13:00,47.9,40.4,29.89,WNW,296,3.0,5.0,75,0.00,,---,0.00,0.00,VWS V14.00,2013-03-21 08:13:00,
2013-03-21 04:14:00,47.9,40.4,29.89,WNW,296,2.0,5.0,75,0.00,,---,0.00,0.00,VWS V14.00,2013-03-21 08:14:00,
2013-03-21 04:15:00,47.9,40.4,29.89,WNW,295,3.0,5.0,75,0.00,,---,0.00,0.00,VWS V14.00,2013-03-21 08:15:00,
2013-03-21 04:16:00,47.9,40.4,29.89,WNW,295,2.0,5.0,75,0.00,,---,0.00,0.00,VWS V14.00,2013-03-21 08:16:00,
2013-03-21 04:17:00,47.9,40.4,29.89,WNW,295,3.0,5.0,75,0.00,,---,0.00,0.00,VWS V14.00,2013-03-21 08:17:00,
2013-03-21 04:18:00,47.8,40.3,29.89,WNW,295,2.0,5.0,75,0.00,,---,0.00,0.00,VWS V14.00,2013-03-21 08:18:00,
2013-03-21 04:19:00,47.8,40.6,29.89,WNW,296,2.0,5.0,76,0.00,,---,0.00,0.00,VWS V14.00,2013-03-21 08:19:00,
2013-03-21 04:20:00,47.8,40.6,29.88,WNW,295,4.0,5.0,76,0.00,,---,0.00,0.00,VWS V14.00,2013-03-21 08:20:00,
2013-03-21 04:21:00,47.8,40.6,29.88,WNW,295,2.0,5.0,76,0.00,,---,0.00,0.00,VWS V14.00,2013-03-21 08:21:00,
2013-03-21 04:22:00,47.7,40.2,29.88,WNW,295,2.0,5.0,75,0.00,,---,0.00,0.00,VWS V14.00,2013-03-21 08:22:00,
2013-03-21 04:23:00,47.7,40.2,29.88,WNW,295,2.0,5.0,75,0.00,,---,0.00,0.00,VWS V14.00,2013-03-21 08:23:00,
2013-03-21 04:24:00,47.7,40.5,29.88,WNW,295,0.0,5.0,76,0.00,,---,0.00,0.00,VWS V14.00,2013-03-21 08:24:00,
2013-03-21 04:25:00,47.7,40.5,29.88,WNW,295,1.0,5.0,76,0.00,,---,0.00,0.00,VWS V14.00,2013-03-21 08:25:00,
2013-03-21 04:26:00,47.7,40.2,29.88,WNW,295,2.0,5.0,75,0.00,,---,0.00,0.00,VWS V14.00,2013-03-21 08:26:00,
2013-03-21 04:27:00,47.7,40.5,29.88,WNW,295,1.0,5.0,76,0.00,,---,0.00,0.00,VWS V14.00,2013-03-21 08:27:00,
2013-03-21 04:28:00,47.7,40.2,29.88,WNW,295,1.0,5.0,75,0.00,,---,0.00,0.00,VWS V14.00,2013-03-21 08:28:00,
2013-03-21 04:29:00,47.7,40.2,29.88,WNW,295,0.0,5.0,75,0.00,,---,0.00,0.00,VWS V14.00,2013-03-21 08:29:00,
2013-03-21 04:30:00,47.7,40.2,29.88,WNW,295,2.0,5.0,75,0.00,,---,0.00,0.00,VWS V14.00,2013-03-21 08:30:00,
2013-03-21 04:31:00,47.7,40.2,29.88,WNW,295,2.0,3.0,75,0.00,,---,0.00,0.00,VWS V14.00,2013-03-21 08:31:00,
2013-03-21 04:32:00,47.6,39.7,29.88,WNW,295,3.0,4.0,74,0.00,,---,0.00,0.00,VWS V14.00,2013-03-21 08:32:00,
2013-03-21 04:33:00,47.6,39.7,29.88,WNW,295,2.0,4.0,74,0.00,,---,0.00,0.00,VWS V14.00,2013-03-21 08:33:00,
2013-03-21 04:34:00,47.6,39.7,29.88,WNW,295,3.0,4.0,74,0.00,,---,0.00,0.00,VWS V14.00,2013-03-21 08:34:00,
2013-03-21 04:35:00,47.6,39.7,29.88,WNW,295,3.0,4.0,74,0.00,,---,0.00,0.00,VWS V14.00,2013-03-21 08:35:00,
2013-03-21 04:36:00,47.6,39.7,29.88,WNW,295,2.0,4.0,74,0.00,,---,0.00,0.00,VWS V14.00,2013-03-21 08:36:00,
2013-03-21 04:37:00,47.6,40.1,29.88,WNW,295,2.0,4.0,75,0.00,,---,0.00,0.00,VWS V14.00,2013-03-21 08:37:00,
2013-03-21 04:38:00,47.6,39.7,29.88,WNW,295,2.0,4.0,74,0.00,,---,0.00,0.00,VWS V14.00,2013-03-21 08:38:00,
2013-03-21 04:39:00,47.5,39.6,29.88,WNW,295,2.0,4.0,74,0.00,,---,0.00,0.00,VWS V14.00,2013-03-21 08:39:00,
2013-03-21 04:40:00,47.5,39.6,29.88,West,264,2.0,7.0,74,0.00,,---,0.00,0.00,VWS V14.00,2013-03-21 08:40:00,
2013-03-21 04:41:00,47.4,39.5,29.88,West,265,2.0,7.0,74,0.00,,---,0.00,0.00,VWS V14.00,2013-03-21 08:41:00,
2013-03-21 04:42:00,47.4,39.9,29.88,West,264,3.0,7.0,75,0.00,,---,0.00,0.00,VWS V14.00,2013-03-21 08:42:00,
2013-03-21 04:43:00,47.4,39.5,29.88,West,264,2.0,7.0,74,0.00,,---,0.00,0.00,VWS V14.00,2013-03-21 08:43:00,
2013-03-21 04:44:00,47.3,39.8,29.88,West,264,3.0,7.0,75,0.00,,---,0.00,0.00,VWS V14.00,2013-03-21 08:44:00,
2013-03-21 04:45:00,47.3,39.8,29.88,West,264,2.0,7.0,75,0.00,,---,0.00,0.00,VWS V14.00,2013-03-21 08:45:00,
2013-03-21 04:46:00,47.3,39.8,29.88,West,264,2.0,7.0,75,0.00,,---,0.00,0.00,VWS V14.00,2013-03-21 08:46:00,
2013-03-21 04:47:00,47.2,39.7,29.88,West,264,2.0,7.0,75,0.00,,---,0.00,0.00,VWS V14.00,2013-03-21 08:47:00,
2013-03-21 04:48:00,47.2,40.0,29.88,West,264,2.0,7.0,76,0.00,,---,0.00,0.00,VWS V14.00,2013-03-21 08:48:00,
2013-03-21 04:49:00,47.2,40.0,29.87,West,264,2.0,7.0,76,0.00,,---,0.00,0.00,VWS V14.00,2013-03-21 08:49:00,
2013-03-21 04:50:00,47.1,39.9,29.87,West,264,0.0,7.0,76,0.00,,---,0.00,0.00,VWS V14.00,2013-03-21 08:50:00,
2013-03-21 04:51:00,47.0,39.8,29.87,West,262,5.0,7.0,76,0.00,,---,0.00,0.00,VWS V14.00,2013-03-21 08:51:00,
2013-03-21 04:52:00,47.0,39.8,29.87,West,262,3.0,7.0,76,0.00,,---,0.00,0.00,VWS V14.00,2013-03-21 08:52:00,
2013-03-21 04:53:00,46.9,39.7,29.87,West,262,1.0,7.0,76,0.00,,---,0.00,0.00,VWS V14.00,2013-03-21 08:53:00,
2013-03-21 04:54:00,46.9,39.7,29.87,West,262,0.0,7.0,76,0.00,,---,0.00,0.00,VWS V14.00,2013-03-21 08:54:00,
2013-03-21 04:55:00,46.8,39.7,29.87,West,262,2.0,7.0,76,0.00,,---,0.00,0.00,VWS V14.00,2013-03-21 08:55:00,
2013-03-21 04:56:00,46.7,39.5,29.87,West,262,3.0,7.0,76,0.00,,---,0.00,0.00,VWS V14.00,2013-03-21 08:56:00,
2013-03-21 04:57:00,46.7,39.5,29.87,West,262,1.0,7.0,76,0.00,,---,0.00,0.00,VWS V14.00,2013-03-21 08:57:00,
2013-03-21 04:58:00,46.6,39.5,29.87,West,262,2.0,7.0,76,0.00,,---,0.00,0.00,VWS V14.00,2013-03-21 08:58:00,
2013-03-21 04:59:00,46.6,39.5,29.87,West,262,2.0,7.0,76,0.00,,---,0.00,0.00,VWS V14.00,2013-03-21 08:59:00,
2013-03-21 05:00:00,46.6,39.5,29.87,West,262,3.0,7.0,76,0.00,,---,0.00,0.00,VWS V14.00,2013-03-21 09:00:00,
2013-03-21 05:01:00,46.5,39.7,29.87,West,262,2.0,3.0,77,0.00,,---,0.00,0.00,VWS V14.00,2013-03-21 09:01:00,
2013-03-21 05:02:00,46.5,39.4,29.88,West,262,2.0,3.0,76,0.00,,---,0.00,0.00,VWS V14.00,2013-03-21 09:02:00,
2013-03-21 05:03:00,46.4,39.3,29.88,West,262,3.0,3.0,76,0.00,,---,0.00,0.00,VWS V14.00,2013-03-21 09:03:00,
2013-03-21 05:04:00,46.4,39.3,29.88,West,262,2.0,3.0,76,0.00,,---,0.00,0.00,VWS V14.00,2013-03-21 09:04:00,
2013-03-21 05:05:00,46.4,39.3,29.88,West,262,2.0,3.0,76,0.00,,---,0.00,0.00,VWS V14.00,2013-03-21 09:05:00,
2013-03-21 05:06:00,46.4,39.3,29.88,West,262,2.0,3.0,76,0.00,,---,0.00,0.00,VWS V14.00,2013-03-21 09:06:00,
2013-03-21 05:07:00,46.4,39.3,29.88,West,262,2.0,3.0,76,0.00,,---,0.00,0.00,VWS V14.00,2013-03-21 09:07:00,
2013-03-21 05:08:00,46.4,39.3,29.88,West,262,2.0,3.0,76,0.00,,---,0.00,0.00,VWS V14.00,2013-03-21 09:08:00,
2013-03-21 05:09:00,46.3,38.8,29.88,WNW,299,3.0,3.0,75,0.00,,---,0.00,0.00,VWS V14.00,2013-03-21 09:09:00,
2013-03-21 05:10:00,46.3,38.8,29.88,WNW,297,4.0,4.0,75,0.00,,---,0.00,0.00,VWS V14.00,2013-03-21 09:10:00,
2013-03-21 05:11:00,46.3,39.2,29.88,WNW,295,4.0,4.0,76,0.00,,---,0.00,0.00,VWS V14.00,2013-03-21 09:11:00,
2013-03-21 05:12:00,46.3,38.8,29.88,WNW,287,4.0,5.0,75,0.00,,---,0.00,0.00,VWS V14.00,2013-03-21 09:12:00,
2013-03-21 05:13:00,46.3,38.5,29.88,WNW,299,7.0,7.0,74,0.00,,---,0.00,0.00,VWS V14.00,2013-03-21 09:13:00,
2013-03-21 05:14:00,46.3,38.8,29.88,WNW,297,4.0,7.0,75,0.00,,---,0.00,0.00,VWS V14.00,2013-03-21 09:14:00,
2013-03-21 05:15:00,46.3,38.5,29.88,WNW,293,3.0,7.0,74,0.00,,---,0.00,0.00,VWS V14.00,2013-03-21 09:15:00,
2013-03-21 05:16:00,46.3,38.5,29.88,WNW,291,3.0,7.0,74,0.00,,---,0.00,0.00,VWS V14.00,2013-03-21 09:16:00,
2013-03-21 05:17:00,46.3,38.5,29.88,WNW,291,2.0,7.0,74,0.00,,---,0.00,0.00,VWS V14.00,2013-03-21 09:17:00,
2013-03-21 05:18:00,46.3,38.8,29.88,WNW,291,3.0,7.0,75,0.00,,---,0.00,0.00,VWS V14.00,2013-03-21 09:18:00,
2013-03-21 05:19:00,46.3,38.8,29.89,WNW,290,4.0,7.0,75,0.00,,---,0.00,0.00,VWS V14.00,2013-03-21 09:19:00,
2013-03-21 05:20:00,46.2,38.7,29.88,WNW,290,2.0,7.0,75,0.00,,---,0.00,0.00,VWS V14.00,2013-03-21 09:20:00,
2013-03-21 05:21:00,46.2,38.4,29.88,WNW,290,4.0,7.0,74,0.00,,---,0.00,0.00,VWS V14.00,2013-03-21 09:21:00,
2013-03-21 05:22:00,46.2,38.4,29.88,WNW,283,5.0,7.0,74,0.00,,---,0.00,0.00,VWS V14.00,2013-03-21 09:22:00,
2013-03-21 05:23:00,46.2,38.4,29.88,West,281,3.0,7.0,74,0.00,,---,0.00,0.00,VWS V14.00,2013-03-21 09:23:00,
2013-03-21 05:24:00,46.2,38.4,29.88,West,281,3.0,7.0,74,0.00,,---,0.00,0.00,VWS V14.00,2013-03-21 09:24:00,
2013-03-21 05:25:00,46.2,38.4,29.88,West,281,5.0,7.0,74,0.00,,---,0.00,0.00,VWS V14.00,2013-03-21 09:25:00,
2013-03-21 05:26:00,46.2,38.7,29.89,West,281,1.0,7.0,75,0.00,,---,0.00,0.00,VWS V14.00,2013-03-21 09:26:00,
2013-03-21 05:27:00,46.3,38.8,29.89,West,281,5.0,7.0,75,0.00,,---,0.00,0.00,VWS V14.00,2013-03-21 09:27:00,
2013-03-21 05:28:00,46.3,38.5,29.89,West,280,3.0,7.0,74,0.00,,---,0.00,0.00,VWS V14.00,2013-03-21 09:28:00,
2013-03-21 05:29:00,46.3,38.5,29.89,WNW,284,5.0,7.0,74,0.00,,---,0.00,0.00,VWS V14.00,2013-03-21 09:29:00,
2013-03-21 05:30:00,46.3,38.1,29.89,West,278,5.0,7.0,73,0.00,,---,0.00,0.00,VWS V14.00,2013-03-21 09:30:00,
2013-03-21 05:31:00,46.3,38.5,29.89,West,279,5.0,7.0,74,0.00,,---,0.00,0.00,VWS V14.00,2013-03-21 09:31:00,
2013-03-21 05:32:00,46.3,37.8,29.89,West,277,6.0,7.0,72,0.00,,---,0.00,0.00,VWS V14.00,2013-03-21 09:32:00,
2013-03-21 05:33:00,46.3,37.8,29.90,West,278,5.0,7.0,72,0.00,,---,0.00,0.00,VWS V14.00,2013-03-21 09:33:00,
2013-03-21 05:34:00,46.3,38.1,29.90,West,278,6.0,7.0,73,0.00,,---,0.00,0.00,VWS V14.00,2013-03-21 09:34:00,
2013-03-21 05:35:00,46.4,38.2,29.90,WNW,299,4.0,9.0,73,0.00,,---,0.00,0.00,VWS V14.00,2013-03-21 09:35:00,
2013-03-21 05:36:00,46.4,38.2,29.90,NW,304,6.0,9.0,73,0.00,,---,0.00,0.00,VWS V14.00,2013-03-21 09:36:00,
2013-03-21 05:37:00,46.4,37.9,29.89,WNW,297,3.0,9.0,72,0.00,,---,0.00,0.00,VWS V14.00,2013-03-21 09:37:00,
2013-03-21 05:38:00,46.5,38.0,29.89,WNW,297,4.0,9.0,72,0.00,,---,0.00,0.00,VWS V14.00,2013-03-21 09:38:00,
2013-03-21 05:39:00,46.5,38.0,29.89,West,270,5.0,9.0,72,0.00,,---,0.00,0.00,VWS V14.00,2013-03-21 09:39:00,
2013-03-21 05:40:00,46.5,38.3,29.90,WNW,299,4.0,9.0,73,0.00,,---,0.00,0.00,VWS V14.00,2013-03-21 09:40:00,
2013-03-21 05:41:00,46.5,38.0,29.89,WNW,298,4.0,9.0,72,0.00,,---,0.00,0.00,VWS V14.00,2013-03-21 09:41:00,
2013-03-21 05:42:00,46.6,37.7,29.90,WNW,291,4.0,9.0,71,0.00,,---,0.00,0.00,VWS V14.00,2013-03-21 09:42:00,
2013-03-21 05:43:00,46.6,37.7,29.90,WNW,293,5.0,9.0,71,0.00,,---,0.00,0.00,VWS V14.00,2013-03-21 09:43:00,
2013-03-21 05:44:00,46.6,37.7,29.90,WNW,285,4.0,9.0,71,0.00,,---,0.00,0.00,VWS V14.00,2013-03-21 09:44:00,
2013-03-21 05:45:00,46.6,37.3,29.90,NW,308,7.0,9.0,70,0.00,,---,0.00,0.00,VWS V14.00,2013-03-21 09:45:00,
2013-03-21 05:46:00,46.7,37.5,29.90,NW,317,8.0,10.0,70,0.00,,---,0.00,0.00,VWS V14.00,2013-03-21 09:46:00,
2013-03-21 05:47:00,46.7,37.5,29.90,NW,315,8.0,10.0,70,0.00,,---,0.00,0.00,VWS V14.00,2013-03-21 09:47:00,
2013-03-21 05:48:00,46.8,37.5,29.90,NW,313,7.0,10.0,70,0.00,,---,0.00,0.00,VWS V14.00,2013-03-21 09:48:00,
2013-03-21 05:49:00,46.8,37.2,29.90,NW,306,6.0,10.0,69,0.00,,---,0.00,0.00,VWS V14.00,2013-03-21 09:49:00,
2013-03-21 05:50:00,46.9,36.9,29.90,WNW,303,5.0,10.0,68,0.00,,---,0.00,0.00,VWS V14.00,2013-03-21 09:50:00,
2013-03-21 05:51:00,46.9,36.9,29.90,NW,318,4.0,10.0,68,0.00,,---,0.00,0.00,VWS V14.00,2013-03-21 09:51:00,
2013-03-21 05:52:00,46.9,36.9,29.90,NW,312,2.0,10.0,68,0.00,,---,0.00,0.00,VWS V14.00,2013-03-21 09:52:00,
2013-03-21 05:53:00,47.0,37.0,29.90,NW,325,9.0,10.0,68,0.00,,---,0.00,0.00,VWS V14.00,2013-03-21 09:53:00,
2013-03-21 05:54:00,47.0,37.4,29.90,WNW,297,3.0,10.0,69,0.00,,---,0.00,0.00,VWS V14.00,2013-03-21 09:54:00,
2013-03-21 05:55:00,47.1,37.1,29.90,WNW,298,5.0,10.0,68,0.00,,---,0.00,0.00,VWS V14.00,2013-03-21 09:55:00,
2013-03-21 05:56:00,47.2,37.2,29.90,NW,315,8.0,10.0,68,0.00,,---,0.00,0.00,VWS V14.00,2013-03-21 09:56:00,
2013-03-21 05:57:00,47.2,36.4,29.90,WNW,297,4.0,10.0,66,0.00,,---,0.00,0.00,VWS V14.00,2013-03-21 09:57:00,
2013-03-21 05:58:00,47.3,36.9,29.90,WNW,302,7.0,10.0,67,0.00,,---,0.00,0.00,VWS V14.00,2013-03-21 09:58:00,
2013-03-21 05:59:00,47.3,36.9,29.90,WNW,302,5.0,10.0,67,0.00,,---,0.00,0.00,VWS V14.00,2013-03-21 09:59:00,
2013-03-21 06:00:00,47.4,36.6,29.90,WNW,295,5.0,10.0,66,0.00,,---,0.00,0.00,VWS V14.00,2013-03-21 10:00:00,
2013-03-21 06:01:00,47.4,36.6,29.90,NW,314,6.0,9.0,66,0.00,,---,0.00,0.00,VWS V14.00,2013-03-21 10:01:00,
2013-03-21 06:02:00,47.5,36.7,29.90,WNW,294,5.0,9.0,66,0.00,,---,0.00,0.00,VWS V14.00,2013-03-21 10:02:00,
2013-03-21 06:03:00,47.5,36.3,29.90,NW,306,5.0,10.0,65,0.00,,---,0.00,0.00,VWS V14.00,2013-03-21 10:03:00,
2013-03-21 06:04:00,47.6,36.4,29.90,NW,306,4.0,10.0,65,0.00,,---,0.00,0.00,VWS V14.00,2013-03-21 10:04:00,
2013-03-21 06:05:00,47.6,36.8,29.90,NW,313,6.0,10.0,66,0.00,,---,0.00,0.00,VWS V14.00,2013-03-21 10:05:00,
2013-03-21 06:06:00,47.6,36.0,29.91,NW,313,4.0,10.0,64,0.00,,---,0.00,0.00,VWS V14.00,2013-03-21 10:06:00,
2013-03-21 06:07:00,47.6,36.4,29.91,NW,306,3.0,10.0,65,0.00,,---,0.00,0.00,VWS V14.00,2013-03-21 10:07:00,
2013-03-21 06:08:00,47.6,36.8,29.90,NW,306,7.0,10.0,66,0.00,,---,0.00,0.00,VWS V14.00,2013-03-21 10:08:00,
2013-03-21 06:09:00,47.7,36.5,29.91,NW,324,7.0,10.0,65,0.00,,---,0.00,0.00,VWS V14.00,2013-03-21 10:09:00,
2013-03-21 06:10:00,47.7,36.5,29.91,NNW,328,7.0,10.0,65,0.00,,---,0.00,0.00,VWS V14.00,2013-03-21 10:10:00,
2013-03-21 06:11:00,47.6,36.4,29.91,WNW,297,7.0,10.0,65,0.00,,---,0.00,0.00,VWS V14.00,2013-03-21 10:11:00,
2013-03-21 06:12:00,47.6,36.0,29.91,NW,308,4.0,10.0,64,0.00,,---,0.00,0.00,VWS V14.00,2013-03-21 10:12:00,
2013-03-21 06:13:00,47.6,35.6,29.91,WNW,296,7.0,10.0,63,0.00,,---,0.00,0.00,VWS V14.00,2013-03-21 10:13:00,
2013-03-21 06:14:00,47.6,36.0,29.91,NW,306,5.0,10.0,64,0.00,,---,0.00,0.00,VWS V14.00,2013-03-21 10:14:00,
2013-03-21 06:15:00,47.5,35.9,29.91,NW,317,4.0,10.0,64,0.00,,---,0.00,0.00,VWS V14.00,2013-03-21 10:15:00,
2013-03-21 06:16:00,47.5,35.9,29.91,NW,317,3.0,10.0,64,0.00,,---,0.00,0.00,VWS V14.00,2013-03-21 10:16:00,
2013-03-21 06:17:00,47.5,35.9,29.91,NW,321,8.0,10.0,64,0.00,,---,0.00,0.00,VWS V14.00,2013-03-21 10:17:00,
2013-03-21 06:18:00,47.4,35.5,29.91,NW,306,6.0,10.0,63,0.00,,---,0.00,0.00,VWS V14.00,2013-03-21 10:18:00,
2013-03-21 06:19:00,47.4,35.8,29.91,NW,318,4.0,10.0,64,0.00,,---,0.00,0.00,VWS V14.00,2013-03-21 10:19:00,
2013-03-21 06:20:00,47.4,36.2,29.91,NW,316,6.0,10.0,65,0.00,,---,0.00,0.00,VWS V14.00,2013-03-21 10:20:00,
2013-03-21 06:21:00,47.4,36.2,29.91,NW,315,4.0,10.0,65,0.00,,---,0.00,0.00,VWS V14.00,2013-03-21 10:21:00,
2013-03-21 06:22:00,47.5,35.9,29.91,WNW,296,4.0,10.0,64,0.00,,---,0.00,0.00,VWS V14.00,2013-03-21 10:22:00,
2013-03-21 06:23:00,47.4,35.8,29.90,NW,325,7.0,10.0,64,0.00,,---,0.00,0.00,VWS V14.00,2013-03-21 10:23:00,
2013-03-21 06:24:00,47.4,35.5,29.91,NW,315,6.0,10.0,63,0.00,,---,0.00,0.00,VWS V14.00,2013-03-21 10:24:00,
2013-03-21 06:25:00,47.3,35.8,29.90,NW,306,5.0,10.0,64,0.00,,---,0.00,0.00,VWS V14.00,2013-03-21 10:25:00,
2013-03-21 06:26:00,47.3,35.8,29.90,NNW,336,5.0,10.0,64,0.00,,---,0.00,0.00,VWS V14.00,2013-03-21 10:26:00,
2013-03-21 06:27:00,47.3,35.8,29.91,NW,318,6.0,10.0,64,0.00,,---,0.00,0.00,VWS V14.00,2013-03-21 10:27:00,
2013-03-21 06:28:00,47.3,35.8,29.91,NW,312,5.0,10.0,64,0.00,,---,0.00,0.00,VWS V14.00,2013-03-21 10:28:00,
2013-03-21 06:29:00,47.2,36.0,29.91,WNW,294,4.0,10.0,65,0.00,,---,0.00,0.00,VWS V14.00,2013-03-21 10:29:00,
2013-03-21 06:30:00,47.2,36.0,29.91,NW,320,6.0,10.0,65,0.00,,---,0.00,0.00,VWS V14.00,2013-03-21 10:30:00,
2013-03-21 06:31:00,47.2,36.0,29.91,NW,306,3.0,8.0,65,0.00,,---,0.00,0.00,VWS V14.00,2013-03-21 10:31:00,
2013-03-21 06:32:00,47.1,36.0,29.91,NNW,327,3.0,8.0,65,0.00,,---,0.00,0.00,VWS V14.00,2013-03-21 10:32:00,
2013-03-21 06:33:00,47.1,36.0,29.91,NW,312,5.0,8.0,65,0.00,,---,0.00,0.00,VWS V14.00,2013-03-21 10:33:00,
2013-03-21 06:34:00,47.1,35.6,29.91,NW,312,4.0,8.0,64,0.00,,---,0.00,0.00,VWS V14.00,2013-03-21 10:34:00,
2013-03-21 06:35:00,47.0,35.5,29.91,NW,312,5.0,8.0,64,0.00,,---,0.00,0.00,VWS V14.00,2013-03-21 10:35:00,
2013-03-21 06:36:00,47.0,35.5,29.91,NW,308,6.0,8.0,64,0.00,,---,0.00,0.00,VWS V14.00,2013-03-21 10:36:00,
2013-03-21 06:37:00,46.9,35.4,29.91,NW,314,6.0,8.0,64,0.00,,---,0.00,0.00,VWS V14.00,2013-03-21 10:37:00,
2013-03-21 06:38:00,46.9,35.8,29.91,NW,316,5.0,8.0,65,0.00,,---,0.00,0.00,VWS V14.00,2013-03-21 10:38:00,
2013-03-21 06:39:00,46.9,36.2,29.91,WNW,301,9.0,9.0,66,0.00,,---,0.00,0.00,VWS V14.00,2013-03-21 10:39:00,
2013-03-21 06:40:00,46.8,35.7,29.91,WNW,299,5.0,9.0,65,0.00,,---,0.00,0.00,VWS V14.00,2013-03-21 10:40:00,
2013-03-21 06:41:00,46.8,36.0,29.91,NW,312,7.0,9.0,66,0.00,,---,0.00,0.00,VWS V14.00,2013-03-21 10:41:00,
2013-03-21 06:42:00,46.7,35.6,29.91,NW,318,8.0,10.0,65,0.00,,---,0.00,0.00,VWS V14.00,2013-03-21 10:42:00,
2013-03-21 06:43:00,46.7,35.6,29.91,NW,314,4.0,10.0,65,0.00,,---,0.00,0.00,VWS V14.00,2013-03-21 10:43:00,
2013-03-21 06:44:00,46.7,35.6,29.91,NW,318,5.0,10.0,65,0.00,,---,0.00,0.00,VWS V14.00,2013-03-21 10:44:00,
2013-03-21 06:45:00,46.7,35.2,29.91,NW,312,7.0,10.0,64,0.00,,---,0.00,0.00,VWS V14.00,2013-03-21 10:45:00,
2013-03-21 06:46:00,46.7,35.6,29.91,NW,318,9.0,10.0,65,0.00,,---,0.00,0.00,VWS V14.00,2013-03-21 10:46:00,
2013-03-21 06:47:00,46.7,36.0,29.91,NW,322,8.0,10.0,66,0.00,,---,0.00,0.00,VWS V14.00,2013-03-21 10:47:00,
2013-03-21 06:48:00,46.7,35.6,29.91,NW,312,9.0,11.0,65,0.00,,---,0.00,0.00,VWS V14.00,2013-03-21 10:48:00,
2013-03-21 06:49:00,46.7,35.2,29.91,NW,304,5.0,11.0,64,0.00,,---,0.00,0.00,VWS V14.00,2013-03-21 10:49:00,
2013-03-21 06:50:00,46.7,35.2,29.91,WNW,303,5.0,11.0,64,0.00,,---,0.00,0.00,VWS V14.00,2013-03-21 10:50:00,
2013-03-21 06:51:00,46.7,35.2,29.91,NW,311,4.0,11.0,64,0.00,,---,0.00,0.00,VWS V14.00,2013-03-21 10:51:00,
2013-03-21 06:52:00,46.7,35.6,29.91,NW,309,5.0,11.0,65,0.00,,---,0.00,0.00,VWS V14.00,2013-03-21 10:52:00,
2013-03-21 06:53:00,46.7,36.0,29.92,NW,309,3.0,11.0,66,0.00,,---,0.00,0.00,VWS V14.00,2013-03-21 10:53:00,
2013-03-21 06:54:00,46.6,35.1,29.91,West,276,6.0,11.0,64,0.00,,---,0.00,0.00,VWS V14.00,2013-03-21 10:54:00,
2013-03-21 06:55:00,46.6,35.5,29.91,West,281,5.0,11.0,65,0.00,,---,0.00,0.00,VWS V14.00,2013-03-21 10:55:00,
2013-03-21 06:56:00,46.6,35.5,29.92,WNW,283,3.0,11.0,65,0.00,,---,0.00,0.00,VWS V14.00,2013-03-21 10:56:00,
2013-03-21 06:57:00,46.5,35.8,29.91,West,280,3.0,11.0,66,0.00,,---,0.00,0.00,VWS V14.00,2013-03-21 10:57:00,
2013-03-21 06:58:00,46.5,35.8,29.91,West,280,3.0,11.0,66,0.00,,---,0.00,0.00,VWS V14.00,2013-03-21 10:58:00,
2013-03-21 06:59:00,46.4,35.7,29.91,WNW,303,5.0,11.0,66,0.00,,---,0.00,0.00,VWS V14.00,2013-03-21 10:59:00,
2013-03-21 07:00:00,46.4,35.3,29.91,NNW,330,4.0,11.0,65,0.00,,---,0.00,0.00,VWS V14.00,2013-03-21 11:00:00,
2013-03-21 07:01:00,46.4,35.7,29.91,WNW,297,4.0,8.0,66,0.00,,---,0.00,0.00,VWS V14.00,2013-03-21 11:01:00,
2013-03-21 07:02:00,46.3,35.2,29.91,WNW,297,3.0,8.0,65,0.00,,---,0.00,0.00,VWS V14.00,2013-03-21 11:02:00,
2013-03-21 07:03:00,46.2,35.1,29.91,NW,307,7.0,8.0,65,0.00,,---,0.00,0.00,VWS V14.00,2013-03-21 11:03:00,
2013-03-21 07:04:00,46.2,35.5,29.91,NW,315,8.0,8.0,66,0.00,,---,0.00,0.00,VWS V14.00,2013-03-21 11:04:00,
2013-03-21 07:05:00,46.1,35.0,29.91,NW,310,5.0,9.0,65,0.00,,---,0.00,0.00,VWS V14.00,2013-03-21 11:05:00,
2013-03-21 07:06:00,46.1,35.4,29.91,NW,308,4.0,9.0,66,0.00,,---,0.00,0.00,VWS V14.00,2013-03-21 11:06:00,
2013-03-21 07:07:00,46.0,34.9,29.91,WNW,295,3.0,9.0,65,0.00,,---,0.00,0.00,VWS V14.00,2013-03-21 11:07:00,
2013-03-21 07:08:00,46.0,35.3,29.91,WNW,293,8.0,9.0,66,0.00,,---,0.00,0.00,VWS V14.00,2013-03-21 11:08:00,
2013-03-21 07:09:00,46.0,35.3,29.91,WNW,303,4.0,9.0,66,0.00,,---,0.00,0.00,VWS V14.00,2013-03-21 11:09:00,
2013-03-21 07:10:00,46.0,34.9,29.92,WNW,297,5.0,9.0,65,0.00,,---,0.00,5.00,VWS V14.00,2013-03-21 11:10:00,
2013-03-21 07:11:00,46.0,34.9,29.91,WNW,295,4.0,9.0,65,0.00,,---,0.00,5.00,VWS V14.00,2013-03-21 11:11:00,
2013-03-21 07:12:00,46.0,34.9,29.92,WNW,295,4.0,9.0,65,0.00,,---,0.00,5.00,VWS V14.00,2013-03-21 11:12:00,
2013-03-21 07:13:00,46.0,35.3,29.92,WNW,297,7.0,9.0,66,0.00,,---,0.00,5.00,VWS V14.00,2013-03-21 11:13:00,
2013-03-21 07:14:00,46.0,35.3,29.92,WNW,299,5.0,9.0,66,0.00,,---,0.00,5.00,VWS V14.00,2013-03-21 11:14:00,
2013-03-21 07:15:00,45.9,34.8,29.91,WNW,299,7.0,9.0,65,0.00,,---,0.00,7.00,VWS V14.00,2013-03-21 11:15:00,
2013-03-21 07:16:00,45.9,34.8,29.92,WNW,291,4.0,9.0,65,0.00,,---,0.00,7.00,VWS V14.00,2013-03-21 11:16:00,
2013-03-21 07:17:00,45.9,35.2,29.92,WNW,291,5.0,9.0,66,0.00,,---,0.00,7.00,VWS V14.00,2013-03-21 11:17:00,
2013-03-21 07:18:00,45.8,35.5,29.92,NW,325,6.0,9.0,67,0.00,,---,0.00,7.00,VWS V14.00,2013-03-21 11:18:00,
2013-03-21 07:19:00,45.8,35.1,29.92,NW,307,6.0,9.0,66,0.00,,---,0.00,7.00,VWS V14.00,2013-03-21 11:19:00,
2013-03-21 07:20:00,45.8,35.1,29.92,NW,310,5.0,9.0,66,0.00,,---,0.00,9.00,VWS V14.00,2013-03-21 11:20:00,
2013-03-21 07:21:00,45.8,35.5,29.92,NW,310,5.0,9.0,67,0.00,,---,0.00,9.00,VWS V14.00,2013-03-21 11:21:00,
2013-03-21 07:22:00,45.8,35.1,29.92,WNW,293,5.0,9.0,66,0.00,,---,0.00,9.00,VWS V14.00,2013-03-21 11:22:00,
2013-03-21 07:23:00,45.7,35.4,29.92,WNW,294,5.0,9.0,67,0.00,,---,0.00,11.00,VWS V14.00,2013-03-21 11:23:00,
2013-03-21 07:24:00,45.6,34.5,29.92,WNW,300,3.0,9.0,65,0.00,,---,0.00,12.00,VWS V14.00,2013-03-21 11:24:00,
2013-03-21 07:25:00,45.6,34.9,29.92,WNW,299,4.0,9.0,66,0.00,,---,0.00,12.00,VWS V14.00,2013-03-21 11:25:00,
2013-03-21 07:26:00,45.6,35.3,29.92,WNW,296,4.0,9.0,67,0.00,,---,0.00,14.00,VWS V14.00,2013-03-21 11:26:00,
2013-03-21 07:27:00,45.6,35.3,29.92,WNW,296,3.0,9.0,67,0.00,,---,0.00,14.00,VWS V14.00,2013-03-21 11:27:00,
2013-03-21 07:28:00,45.6,35.3,29.92,WNW,294,4.0,9.0,67,0.00,,---,0.00,14.00,VWS V14.00,2013-03-21 11:28:00,
2013-03-21 07:29:00,45.5,35.2,29.92,WNW,294,4.0,9.0,67,0.00,,---,0.00,16.00,VWS V14.00,2013-03-21 11:29:00,
2013-03-21 07:30:00,45.5,35.2,29.92,WNW,292,4.0,9.0,67,0.00,,---,0.00,16.00,VWS V14.00,2013-03-21 11:30:00,
2013-03-21 07:31:00,45.5,35.2,29.92,WNW,292,4.0,5.0,67,0.00,,---,0.00,18.00,VWS V14.00,2013-03-21 11:31:00,
2013-03-21 07:32:00,45.5,35.2,29.92,WNW,292,5.0,5.0,67,0.00,,---,0.00,19.00,VWS V14.00,2013-03-21 11:32:00,
2013-03-21 07:33:00,45.4,35.1,29.92,WNW,291,4.0,5.0,67,0.00,,---,0.00,19.00,VWS V14.00,2013-03-21 11:33:00,
2013-03-21 07:34:00,45.4,35.1,29.92,WNW,291,3.0,5.0,67,0.00,,---,0.00,21.00,VWS V14.00,2013-03-21 11:34:00,
2013-03-21 07:35:00,45.4,35.1,29.92,WNW,291,3.0,5.0,67,0.00,,---,0.00,23.00,VWS V14.00,2013-03-21 11:35:00,
2013-03-21 07:36:00,45.4,35.1,29.92,WNW,291,3.0,5.0,67,0.00,,---,0.00,25.00,VWS V14.00,2013-03-21 11:36:00,
2013-03-21 07:37:00,45.4,35.1,29.92,WNW,289,4.0,5.0,67,0.00,,---,0.00,26.00,VWS V14.00,2013-03-21 11:37:00,
2013-03-21 07:38:00,45.4,35.1,29.92,WNW,290,4.0,5.0,67,0.00,,---,0.00,26.00,VWS V14.00,2013-03-21 11:38:00,
2013-03-21 07:39:00,45.4,34.7,29.92,WNW,292,4.0,7.0,66,0.00,,---,0.00,26.00,VWS V14.00,2013-03-21 11:39:00,
2013-03-21 07:40:00,45.4,35.1,29.92,WNW,291,7.0,7.0,67,0.00,,---,0.00,28.00,VWS V14.00,2013-03-21 11:40:00,
2013-03-21 07:41:00,45.4,34.3,29.92,WNW,289,5.0,8.0,65,0.00,,---,0.00,28.00,VWS V14.00,2013-03-21 11:41:00,
2013-03-21 07:42:00,45.3,34.6,29.92,WNW,288,4.0,8.0,66,0.00,,---,0.00,30.00,VWS V14.00,2013-03-21 11:42:00,
2013-03-21 07:43:00,45.3,34.6,29.93,West,281,5.0,8.0,66,0.00,,---,0.00,33.00,VWS V14.00,2013-03-21 11:43:00,
2013-03-21 07:44:00,45.4,35.1,29.93,West,280,5.0,8.0,67,0.00,,---,0.00,35.00,VWS V14.00,2013-03-21 11:44:00,
2013-03-21 07:45:00,45.3,35.0,29.93,West,276,5.0,8.0,67,0.00,,---,0.00,37.00,VWS V14.00,2013-03-21 11:45:00,
2013-03-21 07:46:00,45.3,34.6,29.93,West,275,5.0,8.0,66,0.00,,---,0.00,40.00,VWS V14.00,2013-03-21 11:46:00,
2013-03-21 07:47:00,45.3,35.0,29.93,WNW,285,7.0,8.0,67,0.00,,---,0.00,42.00,VWS V14.00,2013-03-21 11:47:00,
2013-03-21 07:48:00,45.2,34.5,29.93,WNW,293,4.0,8.0,66,0.00,,---,0.00,44.00,VWS V14.00,2013-03-21 11:48:00,
2013-03-21 07:49:00,45.2,34.9,29.93,WNW,292,4.0,8.0,67,0.00,,---,0.00,47.00,VWS V14.00,2013-03-21 11:49:00,
2013-03-21 07:50:00,45.2,34.9,29.93,WNW,292,3.0,8.0,67,0.00,,---,0.00,60.00,VWS V14.00,2013-03-21 11:50:00,
2013-03-21 07:51:00,45.3,35.0,29.93,WNW,291,4.0,8.0,67,0.00,,---,0.00,63.00,VWS V14.00,2013-03-21 11:51:00,
2013-03-21 07:52:00,45.3,35.0,29.93,WNW,297,4.0,8.0,67,0.00,,---,0.00,62.00,VWS V14.00,2013-03-21 11:52:00,
2013-03-21 07:53:00,45.3,35.0,29.93,WNW,296,3.0,8.0,67,0.00,,---,0.00,65.00,VWS V14.00,2013-03-21 11:53:00,
2013-03-21 07:54:00,45.3,35.0,29.93,WNW,288,5.0,8.0,67,0.00,,---,0.00,72.00,VWS V14.00,2013-03-21 11:54:00,
2013-03-21 07:55:00,45.3,34.6,29.93,WNW,285,3.0,8.0,66,0.00,,---,0.00,79.00,VWS V14.00,2013-03-21 11:55:00,
2013-03-21 07:56:00,45.3,35.0,29.93,WNW,285,4.0,8.0,67,0.00,,---,0.00,74.00,VWS V14.00,2013-03-21 11:56:00,
2013-03-21 07:57:00,45.4,35.5,29.93,NW,313,3.0,8.0,68,0.00,,---,0.00,81.00,VWS V14.00,2013-03-21 11:57:00,
2013-03-21 07:58:00,45.4,35.1,29.93,NW,312,3.0,8.0,67,0.00,,---,0.00,90.00,VWS V14.00,2013-03-21 11:58:00,
2013-03-21 07:59:00,45.4,35.1,29.93,West,281,5.0,8.0,67,0.00,,---,0.00,95.00,VWS V14.00,2013-03-21 11:59:00,
2013-03-21 08:00:00,45.4,35.1,29.93,West,280,3.0,3.0,67,0.00,,---,0.00,86.00,VWS V14.00,2013-03-21 12:00:00,
2013-03-21 08:01:00,45.5,35.2,29.93,WNW,290,5.0,6.0,67,0.00,,---,0.00,105.00,VWS V14.00,2013-03-21 12:01:00,
2013-03-21 08:02:00,45.5,34.8,29.93,West,280,5.0,6.0,66,0.00,,---,0.00,105.00,VWS V14.00,2013-03-21 12:02:00,
2013-03-21 08:03:00,45.5,34.8,29.93,West,263,6.0,7.0,66,0.00,,---,0.00,109.00,VWS V14.00,2013-03-21 12:03:00,
2013-03-21 08:04:00,45.5,35.2,29.93,WSW,249,8.0,8.0,67,0.00,,---,0.00,109.00,VWS V14.00,2013-03-21 12:04:00,
2013-03-21 08:05:00,45.6,34.9,29.94,WNW,283,4.0,8.0,66,0.00,,---,0.00,105.00,VWS V14.00,2013-03-21 12:05:00,
2013-03-21 08:06:00,45.6,35.3,29.94,West,278,5.0,8.0,67,0.00,,---,0.00,114.00,VWS V14.00,2013-03-21 12:06:00,
2013-03-21 08:07:00,45.7,35.4,29.94,West,280,6.0,8.0,67,0.00,,---,0.00,118.00,VWS V14.00,2013-03-21 12:07:00,
2013-03-21 08:08:00,45.8,35.1,29.94,West,279,7.0,8.0,66,0.00,,---,0.00,104.00,VWS V14.00,2013-03-21 12:08:00,
2013-03-21 08:09:00,45.8,35.1,29.95,WNW,301,3.0,8.0,66,0.00,,---,0.00,123.00,VWS V14.00,2013-03-21 12:09:00,
2013-03-21 08:10:00,45.8,35.1,29.95,West,260,8.0,8.0,66,0.00,,---,0.00,104.00,VWS V14.00,2013-03-21 12:10:00,
2013-03-21 08:11:00,45.8,34.7,29.94,West,272,6.0,9.0,65,0.00,,---,0.00,118.00,VWS V14.00,2013-03-21 12:11:00,
2013-03-21 08:12:00,45.8,34.7,29.95,West,274,6.0,9.0,65,0.00,,---,0.00,105.00,VWS V14.00,2013-03-21 12:12:00,
2013-03-21 08:13:00,45.8,35.1,29.95,WNW,293,5.0,9.0,66,0.00,,---,0.00,130.00,VWS V14.00,2013-03-21 12:13:00,
2013-03-21 08:14:00,45.8,34.7,29.95,West,278,5.0,9.0,65,0.00,,---,0.00,130.00,VWS V14.00,2013-03-21 12:14:00,
2013-03-21 08:15:00,45.8,34.7,29.95,WNW,295,4.0,9.0,65,0.00,,---,0.00,141.00,VWS V14.00,2013-03-21 12:15:00,
2013-03-21 08:16:00,45.8,35.1,29.95,WNW,297,5.0,9.0,66,0.00,,---,0.00,113.00,VWS V14.00,2013-03-21 12:16:00,
2013-03-21 08:17:00,45.8,34.7,29.95,NNW,339,4.0,9.0,65,0.00,,---,0.00,144.00,VWS V14.00,2013-03-21 12:17:00,
2013-03-21 08:18:00,45.9,34.8,29.95,WNW,290,2.0,9.0,65,0.00,,---,0.00,141.00,VWS V14.00,2013-03-21 12:18:00,
2013-03-21 08:19:00,45.9,35.2,29.95,WNW,289,5.0,9.0,66,0.00,,---,0.00,162.00,VWS V14.00,2013-03-21 12:19:00,
2013-03-21 08:20:00,46.0,35.3,29.95,WNW,302,5.0,9.0,66,0.00,,---,0.00,153.00,VWS V14.00,2013-03-21 12:20:00,
2013-03-21 08:21:00,46.0,34.9,29.95,NW,306,5.0,9.0,65,0.00,,---,0.00,160.00,VWS V14.00,2013-03-21 12:21:00,
2013-03-21 08:22:00,46.1,35.4,29.95,WNW,291,4.0,9.0,66,0.00,,---,0.00,148.00,VWS V14.00,2013-03-21 12:22:00,
2013-03-21 08:23:00,46.2,35.1,29.95,WNW,283,9.0,9.0,65,0.00,,---,0.00,151.00,VWS V14.00,2013-03-21 12:23:00,
2013-03-21 08:24:00,46.2,34.7,29.95,WNW,287,8.0,10.0,64,0.00,,---,0.00,144.00,VWS V14.00,2013-03-21 12:24:00,
2013-03-21 08:25:00,46.3,34.8,29.95,WNW,303,4.0,11.0,64,0.00,,---,0.00,160.00,VWS V14.00,2013-03-21 12:25:00,
2013-03-21 08:26:00,46.3,34.4,29.95,NNW,334,4.0,11.0,63,0.00,,---,0.00,155.00,VWS V14.00,2013-03-21 12:26:00,
2013-03-21 08:27:00,46.4,34.5,29.95,NW,304,6.0,11.0,63,0.00,,---,0.00,144.00,VWS V14.00,2013-03-21 12:27:00,
2013-03-21 08:28:00,46.5,35.0,29.95,NW,310,8.0,11.0,64,0.00,,---,0.00,146.00,VWS V14.00,2013-03-21 12:28:00,
2013-03-21 08:29:00,46.5,34.6,29.95,NW,310,9.0,13.0,63,0.00,,---,0.00,146.00,VWS V14.00,2013-03-21 12:29:00,
2013-03-21 08:30:00,46.6,34.7,29.95,NW,319,13.0,14.0,63,0.00,,---,0.00,137.00,VWS V14.00,2013-03-21 12:30:00,
2013-03-21 08:31:00,46.6,34.7,29.95,NNW,328,8.0,14.0,63,0.00,,---,0.00,130.00,VWS V14.00,2013-03-21 12:31:00,
2013-03-21 08:32:00,46.6,34.7,29.95,NNW,345,10.0,14.0,63,0.00,,---,0.00,128.00,VWS V14.00,2013-03-21 12:32:00,
2013-03-21 08:33:00,46.7,35.2,29.94,NW,320,11.0,16.0,64,0.00,,---,0.00,146.00,VWS V14.00,2013-03-21 12:33:00,
2013-03-21 08:34:00,46.9,36.5,29.94,NNW,333,3.0,16.0,67,0.00,,---,0.00,135.00,VWS V14.00,2013-03-21 12:34:00,
2013-03-21 08:35:00,47.0,36.2,29.94,NNW,328,12.0,16.0,66,0.00,,---,0.00,135.00,VWS V14.00,2013-03-21 12:35:00,
2013-03-21 08:36:00,47.1,36.0,29.94,NW,322,9.0,16.0,65,0.00,,---,0.00,142.00,VWS V14.00,2013-03-21 12:36:00,
2013-03-21 08:37:00,47.1,35.2,29.95,NW,322,8.0,16.0,63,0.00,,---,0.00,113.00,VWS V14.00,2013-03-21 12:37:00,
2013-03-21 08:38:00,47.1,36.0,29.94,NW,323,12.0,16.0,65,0.00,,---,0.00,158.00,VWS V14.00,2013-03-21 12:38:00,
2013-03-21 08:39:00,47.1,35.2,29.94,NW,324,10.0,16.0,63,0.00,,---,0.00,160.00,VWS V14.00,2013-03-21 12:39:00,
2013-03-21 08:40:00,47.1,35.2,29.95,NW,321,11.0,16.0,63,0.00,,---,0.00,165.00,VWS V14.00,2013-03-21 12:40:00,
2013-03-21 08:41:00,47.1,35.2,29.95,NW,325,9.0,16.0,63,0.00,,---,0.00,146.00,VWS V14.00,2013-03-21 12:41:00,
2013-03-21 08:42:00,47.1,36.0,29.95,WNW,298,8.0,16.0,65,0.00,,---,0.00,179.00,VWS V14.00,2013-03-21 12:42:00,
2013-03-21 08:43:00,47.2,36.0,29.95,NW,306,4.0,16.0,65,0.00,,---,0.00,132.00,VWS V14.00,2013-03-21 12:43:00,
2013-03-21 08:44:00,47.2,35.7,29.95,NW,326,9.0,16.0,64,0.00,,---,0.00,199.00,VWS V14.00,2013-03-21 12:44:00,
2013-03-21 08:45:00,47.2,35.7,29.95,NW,319,7.0,16.0,64,0.00,,---,0.00,206.00,VWS V14.00,2013-03-21 12:45:00,
2013-03-21 08:46:00,47.3,35.8,29.95,NW,319,7.0,16.0,64,0.00,,---,0.00,230.00,VWS V14.00,2013-03-21 12:46:00,
2013-03-21 08:47:00,47.3,35.4,29.95,NNW,329,7.0,16.0,63,0.00,,---,0.00,192.00,VWS V14.00,2013-03-21 12:47:00,
2013-03-21 08:48:00,47.4,35.8,29.95,NNW,328,9.0,16.0,64,0.00,,---,0.00,267.00,VWS V14.00,2013-03-21 12:48:00,
2013-03-21 08:49:00,47.4,35.5,29.94,NNW,330,9.0,16.0,63,0.00,,---,0.00,248.00,VWS V14.00,2013-03-21 12:49:00,
2013-03-21 08:50:00,47.4,35.0,29.94,NNW,328,11.0,16.0,62,0.00,,---,0.00,279.00,VWS V14.00,2013-03-21 12:50:00,
2013-03-21 08:51:00,47.4,35.5,29.95,NW,320,8.0,16.0,63,0.00,,---,0.00,295.00,VWS V14.00,2013-03-21 12:51:00,
2013-03-21 08:52:00,47.4,35.8,29.95,NW,321,9.0,16.0,64,0.00,,---,0.00,306.00,VWS V14.00,2013-03-21 12:52:00,
2013-03-21 08:53:00,47.4,35.8,29.95,NNW,347,8.0,16.0,64,0.00,,---,0.00,311.00,VWS V14.00,2013-03-21 12:53:00,
2013-03-21 08:54:00,47.5,35.5,29.95,NW,326,10.0,16.0,63,0.00,,---,0.00,316.00,VWS V14.00,2013-03-21 12:54:00,
2013-03-21 08:55:00,47.6,35.6,29.95,NW,322,9.0,16.0,63,0.00,,---,0.00,313.00,VWS V14.00,2013-03-21 12:55:00,
2013-03-21 08:56:00,47.7,35.7,29.95,NNW,328,9.0,16.0,63,0.00,,---,0.00,329.00,VWS V14.00,2013-03-21 12:56:00,
2013-03-21 08:57:00,47.8,37.0,29.95,NNW,328,7.0,16.0,66,0.00,,---,0.00,332.00,VWS V14.00,2013-03-21 12:57:00,
2013-03-21 08:58:00,47.8,35.4,29.95,NNW,330,7.0,16.0,62,0.00,,---,0.00,332.00,VWS V14.00,2013-03-21 12:58:00,
2013-03-21 08:59:00,47.9,35.5,29.95,NW,322,10.0,16.0,62,0.00,,---,0.00,309.00,VWS V14.00,2013-03-21 12:59:00,
2013-03-21 09:00:00,47.9,35.5,29.95,NW,322,9.0,16.0,62,0.00,,---,0.00,338.00,VWS V14.00,2013-03-21 13:00:00,
2013-03-21 09:01:00,48.0,35.6,29.95,NW,322,9.0,11.0,62,0.00,,---,0.00,338.00,VWS V14.00,2013-03-21 13:01:00,
2013-03-21 09:02:00,48.1,36.5,29.95,NNW,335,8.0,11.0,64,0.00,,---,0.00,341.00,VWS V14.00,2013-03-21 13:02:00,
2013-03-21 09:03:00,48.1,35.3,29.95,NW,325,8.0,13.0,61,0.00,,---,0.00,345.00,VWS V14.00,2013-03-21 13:03:00,
2013-03-21 09:04:00,48.2,35.0,29.95,NW,316,6.0,14.0,60,0.00,,---,0.00,338.00,VWS V14.00,2013-03-21 13:04:00,
2013-03-21 09:05:00,48.2,35.4,29.95,NW,326,10.0,14.0,61,0.00,,---,0.00,338.00,VWS V14.00,2013-03-21 13:05:00,
2013-03-21 09:06:00,48.3,35.1,29.95,NW,321,11.0,15.0,60,0.00,,---,0.00,330.00,VWS V14.00,2013-03-21 13:06:00,
2013-03-21 09:07:00,48.3,35.5,29.95,NW,318,8.0,15.0,61,0.00,,---,0.00,313.00,VWS V14.00,2013-03-21 13:07:00,
2013-03-21 09:08:00,48.4,35.6,29.95,NW,326,11.0,15.0,61,0.00,,---,0.00,285.00,VWS V14.00,2013-03-21 13:08:00,
2013-03-21 09:09:00,48.5,35.7,29.95,NW,304,8.0,15.0,61,0.00,,---,0.00,288.00,VWS V14.00,2013-03-21 13:09:00,
2013-03-21 09:10:00,48.6,36.2,29.95,WNW,297,9.0,15.0,62,0.00,,---,0.00,301.00,VWS V14.00,2013-03-21 13:10:00,
2013-03-21 09:11:00,48.6,36.2,29.95,NW,306,9.0,15.0,62,0.00,,---,0.00,301.00,VWS V14.00,2013-03-21 13:11:00,
2013-03-21 09:12:00,48.7,35.0,29.95,NW,318,11.0,15.0,59,0.00,,---,0.00,332.00,VWS V14.00,2013-03-21 13:12:00,
2013-03-21 09:13:00,48.8,35.5,29.95,NW,318,13.0,15.0,60,0.00,,---,0.00,332.00,VWS V14.00,2013-03-21 13:13:00,
2013-03-21 09:14:00,48.8,35.1,29.96,WNW,290,9.0,15.0,59,0.00,,---,0.00,341.00,VWS V14.00,2013-03-21 13:14:00,
2013-03-21 09:15:00,48.8,35.1,29.96,NNW,341,13.0,15.0,59,0.00,,---,0.00,339.00,VWS V14.00,2013-03-21 13:15:00,
2013-03-21 09:16:00,48.8,34.7,29.96,NW,317,9.0,15.0,58,0.00,,---,0.00,353.00,VWS V14.00,2013-03-21 13:16:00,
2013-03-21 09:17:00,48.9,35.6,29.96,NW,321,14.0,15.0,60,0.00,,---,0.00,380.00,VWS V14.00,2013-03-21 13:17:00,
2013-03-21 09:18:00,48.9,35.2,29.96,NNW,336,10.0,15.0,59,0.00,,---,0.00,376.00,VWS V14.00,2013-03-21 13:18:00,
2013-03-21 09:19:00,49.0,35.3,29.96,NW,312,9.0,15.0,59,0.00,,---,0.00,390.00,VWS V14.00,2013-03-21 13:19:00,
2013-03-21 09:20:00,49.0,35.7,29.96,NW,320,8.0,15.0,60,0.00,,---,0.00,350.00,VWS V14.00,2013-03-21 13:20:00,
2013-03-21 09:21:00,49.1,35.0,29.96,NW,312,10.0,15.0,58,0.00,,---,0.00,396.00,VWS V14.00,2013-03-21 13:21:00,
2013-03-21 09:22:00,49.1,35.0,29.96,NNW,330,11.0,15.0,58,0.00,,---,0.00,410.00,VWS V14.00,2013-03-21 13:22:00,
2013-03-21 09:23:00,49.2,35.5,29.96,NW,322,12.0,15.0,59,0.00,,---,0.00,410.00,VWS V14.00,2013-03-21 13:23:00,
2013-03-21 09:24:00,49.2,35.5,29.96,NNW,332,10.0,15.0,59,0.00,,---,0.00,415.00,VWS V14.00,2013-03-21 13:24:00,
2013-03-21 09:25:00,49.2,34.6,29.96,NW,326,12.0,15.0,57,0.00,,---,0.00,422.00,VWS V14.00,2013-03-21 13:25:00,
2013-03-21 09:26:00,49.3,35.6,29.96,NW,321,11.0,15.0,59,0.00,,---,0.00,434.00,VWS V14.00,2013-03-21 13:26:00,
2013-03-21 09:27:00,49.3,35.2,29.96,WNW,298,11.0,15.0,58,0.00,,---,0.00,427.00,VWS V14.00,2013-03-21 13:27:00,
2013-03-21 09:28:00,49.4,35.3,29.96,NW,324,14.0,15.0,58,0.00,,---,0.00,439.00,VWS V14.00,2013-03-21 13:28:00,
2013-03-21 09:29:00,49.5,35.3,29.96,NNW,329,11.0,15.0,58,0.00,,---,0.00,457.00,VWS V14.00,2013-03-21 13:29:00,
2013-03-21 09:30:00,49.6,35.5,29.96,NNW,336,14.0,16.0,58,0.00,,---,0.00,464.00,VWS V14.00,2013-03-21 13:30:00,
2013-03-21 09:31:00,49.6,35.9,29.96,NNW,347,10.0,15.0,59,0.00,,---,0.00,468.00,VWS V14.00,2013-03-21 13:31:00,
2013-03-21 09:32:00,49.7,36.0,29.96,NNW,333,10.0,15.0,59,0.00,,---,0.00,459.00,VWS V14.00,2013-03-21 13:32:00,
2013-03-21 09:33:00,49.9,37.4,29.96,NW,318,11.0,15.0,62,0.00,,---,0.00,457.00,VWS V14.00,2013-03-21 13:33:00,
2013-03-21 09:34:00,50.0,36.7,29.96,North,350,8.0,15.0,60,0.00,,---,0.00,471.00,VWS V14.00,2013-03-21 13:34:00,
2013-03-21 09:35:00,50.0,34.9,29.96,NW,320,10.0,15.0,56,0.00,,---,0.00,482.00,VWS V14.00,2013-03-21 13:35:00,
2013-03-21 09:36:00,50.1,36.3,29.96,NNW,332,12.0,15.0,59,0.00,,---,0.00,487.00,VWS V14.00,2013-03-21 13:36:00,
2013-03-21 09:37:00,50.1,36.3,29.96,NNE,15,12.0,16.0,59,0.00,,---,0.00,504.00,VWS V14.00,2013-03-21 13:37:00,
2013-03-21 09:38:00,50.2,36.0,29.96,NNW,330,10.0,16.0,58,0.00,,---,0.00,513.00,VWS V14.00,2013-03-21 13:38:00,
2013-03-21 09:39:00,50.3,37.4,29.96,North,352,10.0,16.0,61,0.00,,---,0.00,526.00,VWS V14.00,2013-03-21 13:39:00,
2013-03-21 09:40:00,50.4,35.8,29.96,North,358,15.0,17.0,57,0.00,,---,0.00,520.00,VWS V14.00,2013-03-21 13:40:00,
2013-03-21 09:41:00,50.4,35.3,29.95,North,8,12.0,17.0,56,0.00,,---,0.00,536.00,VWS V14.00,2013-03-21 13:41:00,
2013-03-21 09:42:00,50.4,34.4,29.95,North,354,12.0,19.0,54,0.00,,---,0.00,540.00,VWS V14.00,2013-03-21 13:42:00,
2013-03-21 09:43:00,50.4,34.9,29.96,NW,325,14.0,19.0,55,0.00,,---,0.00,506.00,VWS V14.00,2013-03-21 13:43:00,
2013-03-21 09:44:00,50.4,34.4,29.96,North,6,14.0,19.0,54,0.00,,---,0.00,512.00,VWS V14.00,2013-03-21 13:44:00,
2013-03-21 09:45:00,50.4,34.4,29.96,NNW,345,12.0,19.0,54,0.00,,---,0.00,512.00,VWS V14.00,2013-03-21 13:45:00,
2013-03-21 09:46:00,50.4,35.3,29.96,NNW,344,12.0,21.0,56,0.00,,---,0.00,483.00,VWS V14.00,2013-03-21 13:46:00,
2013-03-21 09:47:00,50.4,33.9,29.96,North,349,10.0,21.0,53,0.00,,---,0.00,496.00,VWS V14.00,2013-03-21 13:47:00,
2013-03-21 09:48:00,50.4,34.9,29.95,North,2,14.0,21.0,55,0.00,,---,0.00,461.00,VWS V14.00,2013-03-21 13:48:00,
2013-03-21 09:49:00,50.4,34.9,29.95,NNW,336,12.0,21.0,55,0.00,,---,0.00,503.00,VWS V14.00,2013-03-21 13:49:00,
2013-03-21 09:50:00,50.4,35.3,29.95,NNW,333,13.0,21.0,56,0.00,,---,0.00,548.00,VWS V14.00,2013-03-21 13:50:00,
2013-03-21 09:51:00,50.4,34.9,29.95,North,359,8.0,21.0,55,0.00,,---,0.00,547.00,VWS V14.00,2013-03-21 13:51:00,
2013-03-21 09:52:00,50.5,35.8,29.96,NNW,335,9.0,21.0,57,0.00,,---,0.00,557.00,VWS V14.00,2013-03-21 13:52:00,
2013-03-21 09:53:00,50.5,35.4,29.96,North,358,10.0,21.0,56,0.00,,---,0.00,554.00,VWS V14.00,2013-03-21 13:53:00,
2013-03-21 09:54:00,50.6,34.6,29.96,NNW,337,14.0,21.0,54,0.00,,---,0.00,540.00,VWS V14.00,2013-03-21 13:54:00,
2013-03-21 09:55:00,50.5,35.0,29.96,North,349,13.0,21.0,55,0.00,,---,0.00,534.00,VWS V14.00,2013-03-21 13:55:00,
2013-03-21 09:56:00,50.5,35.0,29.96,NNW,333,14.0,21.0,55,0.00,,---,0.00,524.00,VWS V14.00,2013-03-21 13:56:00,
2013-03-21 09:57:00,50.5,35.0,29.96,NNW,347,10.0,21.0,55,0.00,,---,0.00,526.00,VWS V14.00,2013-03-21 13:57:00,
2013-03-21 09:58:00,50.5,33.5,29.96,North,356,9.0,21.0,52,0.00,,---,0.00,545.00,VWS V14.00,2013-03-21 13:58:00,
2013-03-21 09:59:00,50.5,34.5,29.96,NNW,344,14.0,21.0,54,0.00,,---,0.00,557.00,VWS V14.00,2013-03-21 13:59:00,
2013-03-21 10:00:00,50.5,35.0,29.96,NNW,337,14.0,21.0,55,0.00,,---,0.00,573.00,VWS V14.00,2013-03-21 14:00:00,
2013-03-21 10:01:00,50.6,35.0,29.96,NNW,327,16.0,16.0,55,0.00,,---,0.00,563.00,VWS V14.00,2013-03-21 14:01:00,
2013-03-21 10:02:00,50.6,34.1,29.96,NNW,341,11.0,17.0,53,0.00,,---,0.00,575.00,VWS V14.00,2013-03-21 14:02:00,
2013-03-21 10:03:00,50.6,35.0,29.96,NNW,328,13.0,17.0,55,0.00,,---,0.00,577.00,VWS V14.00,2013-03-21 14:03:00,
2013-03-21 10:04:00,50.6,34.1,29.96,North,353,6.0,17.0,53,0.00,,---,0.00,585.00,VWS V14.00,2013-03-21 14:04:00,
2013-03-21 10:05:00,50.6,35.0,29.96,North,349,11.0,17.0,55,0.00,,---,0.00,589.00,VWS V14.00,2013-03-21 14:05:00,
2013-03-21 10:06:00,50.6,34.1,29.96,NNW,338,13.0,17.0,53,0.00,,---,0.00,598.00,VWS V14.00,2013-03-21 14:06:00,
2013-03-21 10:07:00,50.6,35.0,29.96,NNW,332,14.0,17.0,55,0.00,,---,0.00,589.00,VWS V14.00,2013-03-21 14:07:00,
2013-03-21 10:08:00,50.6,33.6,29.96,NNW,333,13.0,17.0,52,0.00,,---,0.00,566.00,VWS V14.00,2013-03-21 14:08:00,
2013-03-21 10:09:00,50.6,34.6,29.96,NNW,332,13.0,17.0,54,0.00,,---,0.00,612.00,VWS V14.00,2013-03-21 14:09:00,
2013-03-21 10:10:00,50.6,35.0,29.96,NNW,337,13.0,17.0,55,0.00,,---,0.00,608.00,VWS V14.00,2013-03-21 14:10:00,
2013-03-21 10:11:00,50.6,33.6,29.96,NNW,343,10.0,17.0,52,0.00,,---,0.00,594.00,VWS V14.00,2013-03-21 14:11:00,
2013-03-21 10:12:00,50.6,33.6,29.96,NNW,342,10.0,17.0,52,0.00,,---,0.00,575.00,VWS V14.00,2013-03-21 14:12:00,
2013-03-21 10:13:00,50.6,34.1,29.96,NNW,345,10.0,17.0,53,0.00,,---,0.00,596.00,VWS V14.00,2013-03-21 14:13:00,
2013-03-21 10:14:00,50.6,35.0,29.96,NW,313,16.0,17.0,55,0.00,,---,0.00,589.00,VWS V14.00,2013-03-21 14:14:00,
2013-03-21 10:15:00,50.7,33.7,29.96,NW,320,14.0,17.0,52,0.00,,---,0.00,598.00,VWS V14.00,2013-03-21 14:15:00,
2013-03-21 10:16:00,50.7,33.7,29.96,NW,318,8.0,17.0,52,0.00,,---,0.00,612.00,VWS V14.00,2013-03-21 14:16:00,
2013-03-21 10:17:00,50.8,34.8,29.96,NW,321,18.0,19.0,54,0.00,,---,0.00,617.00,VWS V14.00,2013-03-21 14:17:00,
2013-03-21 10:18:00,50.8,34.3,29.96,NW,326,15.0,19.0,53,0.00,,---,0.00,633.00,VWS V14.00,2013-03-21 14:18:00,
2013-03-21 10:19:00,50.8,33.8,29.96,NNW,333,9.0,19.0,52,0.00,,---,0.00,626.00,VWS V14.00,2013-03-21 14:19:00,
2013-03-21 10:20:00,50.8,34.3,29.96,NNW,327,17.0,19.0,53,0.00,,---,0.00,633.00,VWS V14.00,2013-03-21 14:20:00,
2013-03-21 10:21:00,50.8,35.2,29.96,NNW,343,12.0,19.0,55,0.00,,---,0.00,628.00,VWS V14.00,2013-03-21 14:21:00,
2013-03-21 10:22:00,50.8,33.8,29.96,NNW,340,12.0,19.0,52,0.00,,---,0.00,654.00,VWS V14.00,2013-03-21 14:22:00,
2013-03-21 10:23:00,50.7,33.7,29.96,North,353,15.0,19.0,52,0.00,,---,0.00,643.00,VWS V14.00,2013-03-21 14:23:00,
2013-03-21 10:24:00,50.7,34.2,29.95,NNW,347,9.0,19.0,53,0.00,,---,0.00,575.00,VWS V14.00,2013-03-21 14:24:00,
2013-03-21 10:25:00,50.8,32.8,29.95,North,351,9.0,19.0,50,0.00,,---,0.00,582.00,VWS V14.00,2013-03-21 14:25:00,
2013-03-21 10:26:00,50.8,33.8,29.95,NNW,342,7.0,19.0,52,0.00,,---,0.00,606.00,VWS V14.00,2013-03-21 14:26:00,
2013-03-21 10:27:00,50.8,35.2,29.95,NNW,330,10.0,19.0,55,0.00,,---,0.00,582.00,VWS V14.00,2013-03-21 14:27:00,
2013-03-21 10:28:00,50.8,34.8,29.95,North,5,9.0,19.0,54,0.00,,---,0.00,650.00,VWS V14.00,2013-03-21 14:28:00,
2013-03-21 10:29:00,50.9,35.3,29.95,North,9,12.0,19.0,55,0.00,,---,0.00,645.00,VWS V14.00,2013-03-21 14:29:00,
2013-03-21 10:30:00,51.0,34.0,29.95,NNW,339,11.0,19.0,52,0.00,,---,0.00,656.00,VWS V14.00,2013-03-21 14:30:00,
2013-03-21 10:31:00,51.1,34.6,29.95,NW,306,7.0,13.0,53,0.00,,---,0.00,650.00,VWS V14.00,2013-03-21 14:31:00,
2013-03-21 10:32:00,51.2,34.2,29.95,NNW,328,7.0,13.0,52,0.00,,---,0.00,642.00,VWS V14.00,2013-03-21 14:32:00,
2013-03-21 10:33:00,51.2,33.7,29.95,NW,311,10.0,16.0,51,0.00,,---,0.00,671.00,VWS V14.00,2013-03-21 14:33:00,
2013-03-21 10:34:00,51.2,32.7,29.96,NW,317,16.0,16.0,49,0.00,,---,0.00,679.00,VWS V14.00,2013-03-21 14:34:00,
2013-03-21 10:35:00,51.2,32.2,29.96,NW,307,10.0,16.0,48,0.00,,---,0.00,705.00,VWS V14.00,2013-03-21 14:35:00,
2013-03-21 10:36:00,51.3,33.3,29.96,NW,320,14.0,16.0,50,0.00,,---,0.00,707.00,VWS V14.00,2013-03-21 14:36:00,
2013-03-21 10:37:00,51.3,32.8,29.96,NW,320,11.0,18.0,49,0.00,,---,0.00,708.00,VWS V14.00,2013-03-21 14:37:00,
2013-03-21 10:38:00,51.3,34.8,29.96,NW,322,13.0,18.0,53,0.00,,---,0.00,701.00,VWS V14.00,2013-03-21 14:38:00,
2013-03-21 10:39:00,51.3,33.8,29.96,NW,320,14.0,18.0,51,0.00,,---,0.00,722.00,VWS V14.00,2013-03-21 14:39:00,
2013-03-21 10:40:00,51.3,34.3,29.96,NW,320,13.0,18.0,52,0.00,,---,0.00,724.00,VWS V14.00,2013-03-21 14:40:00,
2013-03-21 10:41:00,51.2,33.2,29.96,NNW,338,13.0,18.0,50,0.00,,---,0.00,726.00,VWS V14.00,2013-03-21 14:41:00,
2013-03-21 10:42:00,51.3,33.8,29.96,NW,324,11.0,18.0,51,0.00,,---,0.00,729.00,VWS V14.00,2013-03-21 14:42:00,
2013-03-21 10:43:00,51.2,33.7,29.96,NW,326,11.0,18.0,51,0.00,,---,0.00,733.00,VWS V14.00,2013-03-21 14:43:00,
2013-03-21 10:44:00,51.3,33.8,29.95,NNW,340,10.0,18.0,51,0.00,,---,0.00,737.00,VWS V14.00,2013-03-21 14:44:00,
2013-03-21 10:45:00,51.3,33.3,29.95,NNW,339,12.0,18.0,50,0.00,,---,0.00,745.00,VWS V14.00,2013-03-21 14:45:00,
2013-03-21 10:46:00,51.3,34.3,29.95,NNW,343,11.0,18.0,52,0.00,,---,0.00,670.00,VWS V14.00,2013-03-21 14:46:00,
2013-03-21 10:47:00,51.3,33.8,29.95,NNW,339,11.0,18.0,51,0.00,,---,0.00,754.00,VWS V14.00,2013-03-21 14:47:00,
2013-03-21 10:48:00,51.4,33.9,29.95,NNW,332,7.0,18.0,51,0.00,,---,0.00,744.00,VWS V14.00,2013-03-21 14:48:00,
2013-03-21 10:49:00,51.4,33.4,29.95,NNW,341,8.0,18.0,50,0.00,,---,0.00,754.00,VWS V14.00,2013-03-21 14:49:00,
2013-03-21 10:50:00,51.4,33.4,29.96,NNW,333,5.0,18.0,50,0.00,,---,0.00,759.00,VWS V14.00,2013-03-21 14:50:00,
2013-03-21 10:51:00,51.5,35.0,29.96,NNW,329,11.0,18.0,53,0.00,,---,0.00,761.00,VWS V14.00,2013-03-21 14:51:00,
2013-03-21 10:52:00,51.6,35.0,29.96,NW,324,16.0,18.0,53,0.00,,---,0.00,761.00,VWS V14.00,2013-03-21 14:52:00,
2013-03-21 10:53:00,51.7,34.7,29.96,WNW,285,12.0,18.0,52,0.00,,---,0.00,747.00,VWS V14.00,2013-03-21 14:53:00,
2013-03-21 10:54:00,51.8,33.8,29.96,WNW,298,10.0,18.0,50,0.00,,---,0.00,689.00,VWS V14.00,2013-03-21 14:54:00,
2013-03-21 10:55:00,51.9,32.3,29.95,WNW,294,12.0,18.0,47,0.00,,---,0.00,728.00,VWS V14.00,2013-03-21 14:55:00,
2013-03-21 10:56:00,52.0,32.4,29.95,WNW,298,10.0,18.0,47,0.00,,---,0.00,779.00,VWS V14.00,2013-03-21 14:56:00,
2013-03-21 10:57:00,52.0,31.9,29.95,NW,313,7.0,18.0,46,0.00,,---,0.00,780.00,VWS V14.00,2013-03-21 14:57:00,
2013-03-21 10:58:00,52.0,32.9,29.95,NW,324,11.0,18.0,48,0.00,,---,0.00,754.00,VWS V14.00,2013-03-21 14:58:00,
2013-03-21 10:59:00,52.0,32.9,29.95,NW,322,11.0,18.0,48,0.00,,---,0.00,782.00,VWS V14.00,2013-03-21 14:59:00,
2013-03-21 11:00:00,52.0,32.9,29.95,NW,316,7.0,18.0,48,0.00,,---,0.00,775.00,VWS V14.00,2013-03-21 15:00:00,
2013-03-21 11:01:00,52.0,33.5,29.96,NNW,328,9.0,13.0,49,0.00,,---,0.00,788.00,VWS V14.00,2013-03-21 15:01:00,
2013-03-21 11:02:00,52.0,32.4,29.96,NW,312,7.0,13.0,47,0.00,,---,0.00,784.00,VWS V14.00,2013-03-21 15:02:00,
2013-03-21 11:03:00,52.0,32.4,29.95,NW,323,6.0,13.0,47,0.00,,---,0.00,786.00,VWS V14.00,2013-03-21 15:03:00,
2013-03-21 11:04:00,52.0,33.5,29.95,WNW,298,5.0,13.0,49,0.00,,---,0.00,789.00,VWS V14.00,2013-03-21 15:04:00,
2013-03-21 11:05:00,52.1,33.0,29.96,WNW,302,8.0,13.0,48,0.00,,---,0.00,791.00,VWS V14.00,2013-03-21 15:05:00,
2013-03-21 11:06:00,52.1,33.0,29.96,NW,325,13.0,15.0,48,0.00,,---,0.00,793.00,VWS V14.00,2013-03-21 15:06:00,
2013-03-21 11:07:00,52.2,33.1,29.96,NNW,330,10.0,17.0,48,0.00,,---,0.00,796.00,VWS V14.00,2013-03-21 15:07:00,
2013-03-21 11:08:00,52.3,34.7,29.96,NNW,333,10.0,17.0,51,0.00,,---,0.00,798.00,VWS V14.00,2013-03-21 15:08:00,
2013-03-21 11:09:00,52.4,34.8,29.95,NNW,331,11.0,17.0,51,0.00,,---,0.00,803.00,VWS V14.00,2013-03-21 15:09:00,
2013-03-21 11:10:00,52.4,33.3,29.95,NW,304,9.0,17.0,48,0.00,,---,0.00,805.00,VWS V14.00,2013-03-21 15:10:00,
2013-03-21 11:11:00,52.4,33.3,29.95,West,281,7.0,17.0,48,0.00,,---,0.00,809.00,VWS V14.00,2013-03-21 15:11:00,
2013-03-21 11:12:00,52.5,32.9,29.95,NW,306,7.0,17.0,47,0.00,,---,0.00,810.00,VWS V14.00,2013-03-21 15:12:00,
2013-03-21 11:13:00,52.5,32.3,29.95,WNW,299,12.0,17.0,46,0.00,,---,0.00,812.00,VWS V14.00,2013-03-21 15:13:00,
2013-03-21 11:14:00,52.6,33.0,29.95,NW,316,4.0,17.0,47,0.00,,---,0.00,816.00,VWS V14.00,2013-03-21 15:14:00,
2013-03-21 11:15:00,52.7,34.6,29.96,NNW,337,15.0,17.0,50,0.00,,---,0.00,817.00,VWS V14.00,2013-03-21 15:15:00,
2013-03-21 11:16:00,52.8,34.2,29.95,NW,319,10.0,17.0,49,0.00,,---,0.00,819.00,VWS V14.00,2013-03-21 15:16:00,
2013-03-21 11:17:00,52.8,34.2,29.96,NW,326,7.0,17.0,49,0.00,,---,0.00,823.00,VWS V14.00,2013-03-21 15:17:00,
2013-03-21 11:18:00,52.8,32.6,29.96,NNW,335,4.0,17.0,46,0.00,,---,0.00,824.00,VWS V14.00,2013-03-21 15:18:00,
2013-03-21 11:19:00,52.8,33.2,29.95,NNW,347,7.0,17.0,47,0.00,,---,0.00,826.00,VWS V14.00,2013-03-21 15:19:00,
2013-03-21 11:20:00,52.8,32.6,29.96,NNW,333,4.0,17.0,46,0.00,,---,0.00,830.00,VWS V14.00,2013-03-21 15:20:00,
2013-03-21 11:21:00,52.9,32.7,29.96,NNW,333,11.0,17.0,46,0.00,,---,0.00,830.00,VWS V14.00,2013-03-21 15:21:00,
2013-03-21 11:22:00,52.9,33.2,29.96,NW,320,11.0,17.0,47,0.00,,---,0.00,831.00,VWS V14.00,2013-03-21 15:22:00,
2013-03-21 11:23:00,52.9,32.7,29.96,NNW,327,12.0,17.0,46,0.00,,---,0.00,835.00,VWS V14.00,2013-03-21 15:23:00,
2013-03-21 11:24:00,52.9,33.8,29.96,NNW,330,9.0,17.0,48,0.00,,---,0.00,838.00,VWS V14.00,2013-03-21 15:24:00,
2013-03-21 11:25:00,52.9,32.7,29.96,NNW,341,7.0,17.0,46,0.00,,---,0.00,842.00,VWS V14.00,2013-03-21 15:25:00,
2013-03-21 11:26:00,53.0,33.3,29.96,NNW,327,12.0,17.0,47,0.00,,---,0.00,842.00,VWS V14.00,2013-03-21 15:26:00,
2013-03-21 11:27:00,53.0,34.4,29.96,NNW,327,9.0,17.0,49,0.00,,---,0.00,846.00,VWS V14.00,2013-03-21 15:27:00,
2013-03-21 11:28:00,53.1,34.0,29.96,West,270,10.0,17.0,48,0.00,,---,0.00,849.00,VWS V14.00,2013-03-21 15:28:00,
2013-03-21 11:29:00,53.2,32.4,29.96,WNW,289,8.0,17.0,45,0.00,,---,0.00,853.00,VWS V14.00,2013-03-21 15:29:00,
2013-03-21 11:30:00,53.3,31.4,29.96,NW,310,8.0,17.0,43,0.00,,---,0.00,854.00,VWS V14.00,2013-03-21 15:30:00,
2013-03-21 11:31:00,53.3,30.8,29.96,NW,310,6.0,13.0,42,0.00,,---,0.00,856.00,VWS V14.00,2013-03-21 15:31:00,
2013-03-21 11:32:00,53.4,31.5,29.96,WNW,295,11.0,13.0,43,0.00,,---,0.00,861.00,VWS V14.00,2013-03-21 15:32:00,
2013-03-21 11:33:00,53.5,32.1,29.96,NW,312,11.0,13.0,44,0.00,,---,0.00,860.00,VWS V14.00,2013-03-21 15:33:00,
2013-03-21 11:34:00,53.6,32.2,29.96,NW,308,9.0,13.0,44,0.00,,---,0.00,863.00,VWS V14.00,2013-03-21 15:34:00,
2013-03-21 11:35:00,53.6,32.2,29.96,NW,312,5.0,13.0,44,0.00,,---,0.00,863.00,VWS V14.00,2013-03-21 15:35:00,
2013-03-21 11:36:00,53.8,34.1,29.96,NNW,336,11.0,13.0,47,0.00,,---,0.00,865.00,VWS V14.00,2013-03-21 15:36:00,
2013-03-21 11:37:00,53.9,33.1,29.95,NW,322,11.0,15.0,45,0.00,,---,0.00,867.00,VWS V14.00,2013-03-21 15:37:00,
2013-03-21 11:38:00,53.9,33.1,29.95,NNW,335,9.0,15.0,45,0.00,,---,0.00,870.00,VWS V14.00,2013-03-21 15:38:00,
2013-03-21 11:39:00,54.0,35.3,29.95,NW,325,10.0,15.0,49,0.00,,---,0.00,872.00,VWS V14.00,2013-03-21 15:39:00,
2013-03-21 11:40:00,54.2,35.0,29.95,WNW,289,4.0,15.0,48,0.00,,---,0.00,875.00,VWS V14.00,2013-03-21 15:40:00,
2013-03-21 11:41:00,54.3,36.1,29.95,NW,312,9.0,15.0,50,0.00,,---,0.00,879.00,VWS V14.00,2013-03-21 15:41:00,
2013-03-21 11:42:00,54.4,32.4,29.95,WNW,302,5.0,15.0,43,0.00,,---,0.00,882.00,VWS V14.00,2013-03-21 15:42:00,
2013-03-21 11:43:00,54.5,31.9,29.95,NW,324,12.0,15.0,42,0.00,,---,0.00,881.00,VWS V14.00,2013-03-21 15:43:00,
2013-03-21 11:44:00,54.7,32.7,29.95,WNW,287,9.0,15.0,43,0.00,,---,0.00,884.00,VWS V14.00,2013-03-21 15:44:00,
2013-03-21 11:45:00,54.7,32.1,29.95,NW,309,6.0,15.0,42,0.00,,---,0.00,886.00,VWS V14.00,2013-03-21 15:45:00,
2013-03-21 11:46:00,54.8,31.6,29.95,WNW,303,4.0,15.0,41,0.00,,---,0.00,889.00,VWS V14.00,2013-03-21 15:46:00,
2013-03-21 11:47:00,54.9,31.0,29.95,WNW,300,11.0,15.0,40,0.00,,---,0.00,891.00,VWS V14.00,2013-03-21 15:47:00,
2013-03-21 11:48:00,55.0,32.3,29.95,NW,316,10.0,15.0,42,0.00,,---,0.00,893.00,VWS V14.00,2013-03-21 15:48:00,
2013-03-21 11:49:00,55.0,30.5,29.95,NW,324,12.0,15.0,39,0.00,,---,0.00,896.00,VWS V14.00,2013-03-21 15:49:00,
2013-03-21 11:50:00,55.1,30.6,29.95,NW,321,14.0,15.0,39,0.00,,---,0.00,904.00,VWS V14.00,2013-03-21 15:50:00,
2013-03-21 11:51:00,55.1,33.6,29.95,West,264,8.0,15.0,44,0.00,,---,0.00,904.00,VWS V14.00,2013-03-21 15:51:00,
2013-03-21 11:52:00,55.2,32.5,29.95,WNW,298,9.0,15.0,42,0.00,,---,0.00,907.00,VWS V14.00,2013-03-21 15:52:00,
2013-03-21 11:53:00,55.3,33.2,29.95,NW,320,15.0,17.0,43,0.00,,---,0.00,907.00,VWS V14.00,2013-03-21 15:53:00,
2013-03-21 11:54:00,55.3,32.0,29.95,NW,305,6.0,17.0,41,0.00,,---,0.00,904.00,VWS V14.00,2013-03-21 15:54:00,
2013-03-21 11:55:00,55.3,30.8,29.95,WNW,301,7.0,17.0,39,0.00,,---,0.00,909.00,VWS V14.00,2013-03-21 15:55:00,
2013-03-21 11:56:00,55.2,30.7,29.95,West,278,8.0,17.0,39,0.00,,---,0.00,909.00,VWS V14.00,2013-03-21 15:56:00,
2013-03-21 11:57:00,55.2,30.7,29.95,West,280,8.0,17.0,39,0.00,,---,0.00,912.00,VWS V14.00,2013-03-21 15:57:00,
2013-03-21 11:58:00,55.2,30.7,29.95,NW,314,10.0,17.0,39,0.00,,---,0.00,916.00,VWS V14.00,2013-03-21 15:58:00,
2013-03-21 11:59:00,55.3,31.4,29.95,NW,316,15.0,17.0,40,0.00,,---,0.00,918.00,VWS V14.00,2013-03-21 15:59:00,
2013-03-21 12:00:00,55.4,30.2,29.95,WNW,301,12.0,17.0,38,0.00,,---,0.00,923.00,VWS V14.00,2013-03-21 16:00:00,
2013-03-21 12:01:00,55.5,30.3,29.95,NW,308,9.0,15.0,38,0.00,,---,0.00,928.00,VWS V14.00,2013-03-21 16:01:00,
2013-03-21 12:02:00,55.7,31.1,29.94,NW,307,15.0,16.0,39,0.00,,---,0.00,928.00,VWS V14.00,2013-03-21 16:02:00,
2013-03-21 12:03:00,55.7,29.2,29.94,West,271,9.0,16.0,36,0.00,,---,0.00,923.00,VWS V14.00,2013-03-21 16:03:00,
2013-03-21 12:04:00,55.8,29.9,29.94,West,280,9.0,16.0,37,0.00,,---,0.00,923.00,VWS V14.00,2013-03-21 16:04:00,
2013-03-21 12:05:00,55.9,29.4,29.95,WNW,287,11.0,16.0,36,0.00,,---,0.00,923.00,VWS V14.00,2013-03-21 16:05:00,
2013-03-21 12:06:00,55.9,30.0,29.95,WNW,301,9.0,16.0,37,0.00,,---,0.00,928.00,VWS V14.00,2013-03-21 16:06:00,
2013-03-21 12:07:00,55.9,30.7,29.95,West,273,8.0,16.0,38,0.00,,---,0.00,932.00,VWS V14.00,2013-03-21 16:07:00,
2013-03-21 12:08:00,56.0,30.1,29.95,West,274,16.0,16.0,37,0.00,,---,0.00,932.00,VWS V14.00,2013-03-21 16:08:00,
2013-03-21 12:09:00,56.0,29.4,29.94,West,278,11.0,17.0,36,0.00,,---,0.00,930.00,VWS V14.00,2013-03-21 16:09:00,
2013-03-21 12:10:00,56.0,30.8,29.94,NW,320,16.0,17.0,38,0.00,,---,0.00,932.00,VWS V14.00,2013-03-21 16:10:00,
2013-03-21 12:11:00,56.0,30.1,29.94,NW,316,12.0,19.0,37,0.00,,---,0.00,932.00,VWS V14.00,2013-03-21 16:11:00,
2013-03-21 12:12:00,56.1,30.2,29.94,NW,320,12.0,19.0,37,0.00,,---,0.00,933.00,VWS V14.00,2013-03-21 16:12:00,
2013-03-21 12:13:00,56.2,31.0,29.94,WNW,286,12.0,19.0,38,0.00,,---,0.00,940.00,VWS V14.00,2013-03-21 16:13:00,
2013-03-21 12:14:00,56.3,29.0,29.94,WNW,299,15.0,19.0,35,0.00,,---,0.00,940.00,VWS V14.00,2013-03-21 16:14:00,
2013-03-21 12:15:00,56.4,29.1,29.94,WNW,292,12.0,19.0,35,0.00,,---,0.00,946.00,VWS V14.00,2013-03-21 16:15:00,
2013-03-21 12:16:00,56.4,31.1,29.94,WNW,296,11.0,19.0,38,0.00,,---,0.00,944.00,VWS V14.00,2013-03-21 16:16:00,
2013-03-21 12:17:00,56.5,29.9,29.94,West,281,9.0,19.0,36,0.00,,---,0.00,944.00,VWS V14.00,2013-03-21 16:17:00,
2013-03-21 12:18:00,56.5,29.9,29.94,NW,306,8.0,19.0,36,0.00,,---,0.00,944.00,VWS V14.00,2013-03-21 16:18:00,
2013-03-21 12:19:00,56.5,30.6,29.94,NW,318,7.0,19.0,37,0.00,,---,0.00,951.00,VWS V14.00,2013-03-21 16:19:00,
2013-03-21 12:20:00,56.5,30.6,29.94,NNW,327,14.0,19.0,37,0.00,,---,0.00,954.00,VWS V14.00,2013-03-21 16:20:00,
2013-03-21 12:21:00,56.6,29.3,29.93,NW,310,10.0,19.0,35,0.00,,---,0.00,956.00,VWS V14.00,2013-03-21 16:21:00,
2013-03-21 12:22:00,56.6,32.6,29.94,WNW,282,10.0,19.0,40,0.00,,---,0.00,895.00,VWS V14.00,2013-03-21 16:22:00,
2013-03-21 12:23:00,56.8,31.5,29.94,NW,315,8.0,19.0,38,0.00,,---,0.00,956.00,VWS V14.00,2013-03-21 16:23:00,
2013-03-21 12:24:00,56.9,32.2,29.94,WNW,302,10.0,19.0,39,0.00,,---,0.00,956.00,VWS V14.00,2013-03-21 16:24:00,
2013-03-21 12:25:00,57.0,31.0,29.94,WNW,290,7.0,19.0,37,0.00,,---,0.00,958.00,VWS V14.00,2013-03-21 16:25:00,
2013-03-21 12:26:00,57.0,30.3,29.94,West,272,14.0,19.0,36,0.00,,---,0.00,958.00,VWS V14.00,2013-03-21 16:26:00,
2013-03-21 12:27:00,56.9,30.2,29.94,WNW,290,5.0,19.0,36,0.00,,---,0.00,958.00,VWS V14.00,2013-03-21 16:27:00,
2013-03-21 12:28:00,57.0,30.3,29.94,NW,314,5.0,19.0,36,0.00,,---,0.00,962.00,VWS V14.00,2013-03-21 16:28:00,
2013-03-21 12:29:00,57.1,30.4,29.94,NW,311,6.0,19.0,36,0.00,,---,0.00,965.00,VWS V14.00,2013-03-21 16:29:00,
2013-03-21 12:30:00,57.1,31.1,29.94,NW,311,5.0,19.0,37,0.00,,---,0.00,970.00,VWS V14.00,2013-03-21 16:30:00,
2013-03-21 12:31:00,57.3,33.2,29.94,WNW,287,5.0,9.0,40,0.00,,---,0.00,976.00,VWS V14.00,2013-03-21 16:31:00,
2013-03-21 12:32:00,57.3,32.6,29.94,West,281,6.0,9.0,39,0.00,,---,0.00,977.00,VWS V14.00,2013-03-21 16:32:00,
2013-03-21 12:33:00,57.5,30.8,29.94,West,264,3.0,9.0,36,0.00,,---,0.00,976.00,VWS V14.00,2013-03-21 16:33:00,
2013-03-21 12:34:00,57.5,30.8,29.94,West,264,6.0,9.0,36,0.00,,---,0.00,974.00,VWS V14.00,2013-03-21 16:34:00,
2013-03-21 12:35:00,57.5,30.8,29.94,NW,311,4.0,9.0,36,0.00,,---,0.00,969.00,VWS V14.00,2013-03-21 16:35:00,
2013-03-21 12:36:00,57.6,31.5,29.94,WNW,293,10.0,10.0,37,0.00,,---,0.00,965.00,VWS V14.00,2013-03-21 16:36:00,
2013-03-21 12:37:00,57.7,31.0,29.94,WNW,297,10.0,11.0,36,0.00,,---,0.00,983.00,VWS V14.00,2013-03-21 16:37:00,
2013-03-21 12:38:00,57.8,29.6,29.93,WNW,285,7.0,11.0,34,0.00,,---,0.00,984.00,VWS V14.00,2013-03-21 16:38:00,
2013-03-21 12:39:00,57.9,30.4,29.93,West,274,15.0,16.0,35,0.00,,---,0.00,986.00,VWS V14.00,2013-03-21 16:39:00,
2013-03-21 12:40:00,58.0,28.3,29.93,WNW,291,8.0,16.0,32,0.00,,---,0.00,984.00,VWS V14.00,2013-03-21 16:40:00,
2013-03-21 12:41:00,58.0,30.5,29.93,West,262,13.0,16.0,35,0.00,,---,0.00,990.00,VWS V14.00,2013-03-21 16:41:00,
2013-03-21 12:42:00,58.0,28.3,29.93,West,272,14.0,17.0,32,0.00,,---,0.00,979.00,VWS V14.00,2013-03-21 16:42:00,
2013-03-21 12:43:00,57.8,27.4,29.94,WNW,299,11.0,17.0,31,0.00,,---,0.00,990.00,VWS V14.00,2013-03-21 16:43:00,
2013-03-21 12:44:00,57.8,27.4,29.93,West,264,9.0,17.0,31,0.00,,---,0.00,991.00,VWS V14.00,2013-03-21 16:44:00,
2013-03-21 12:45:00,57.9,28.2,29.93,WNW,293,10.0,17.0,32,0.00,,---,0.00,993.00,VWS V14.00,2013-03-21 16:45:00,
2013-03-21 12:46:00,58.1,27.6,29.93,West,261,14.0,17.0,31,0.00,,---,0.00,991.00,VWS V14.00,2013-03-21 16:46:00,
2013-03-21 12:47:00,58.2,28.5,29.93,West,270,11.0,20.0,32,0.00,,---,0.00,991.00,VWS V14.00,2013-03-21 16:47:00,
2013-03-21 12:48:00,58.3,27.0,29.94,WNW,288,14.0,20.0,30,0.00,,---,0.00,1000.00,VWS V14.00,2013-03-21 16:48:00,
2013-03-21 12:49:00,58.2,26.1,29.93,West,281,10.0,20.0,29,0.00,,---,0.00,1000.00,VWS V14.00,2013-03-21 16:49:00,
2013-03-21 12:50:00,58.2,26.9,29.93,WNW,285,12.0,20.0,30,0.00,,---,0.00,995.00,VWS V14.00,2013-03-21 16:50:00,
2013-03-21 12:51:00,58.1,26.0,29.93,NW,309,8.0,20.0,29,0.00,,---,0.00,991.00,VWS V14.00,2013-03-21 16:51:00,
2013-03-21 12:52:00,58.0,26.8,29.93,WNW,297,8.0,20.0,30,0.00,,---,0.00,1000.00,VWS V14.00,2013-03-21 16:52:00,
2013-03-21 12:53:00,58.1,26.9,29.93,WNW,289,7.0,20.0,30,0.00,,---,0.00,1013.00,VWS V14.00,2013-03-21 16:53:00,
2013-03-21 12:54:00,58.2,28.5,29.93,NW,314,10.0,20.0,32,0.00,,---,0.00,1018.00,VWS V14.00,2013-03-21 16:54:00,
2013-03-21 12:55:00,58.2,29.3,29.93,NW,319,10.0,20.0,33,0.00,,---,0.00,1011.00,VWS V14.00,2013-03-21 16:55:00,
2013-03-21 12:56:00,58.3,28.6,29.93,West,275,10.0,20.0,32,0.00,,---,0.00,1030.00,VWS V14.00,2013-03-21 16:56:00,
2013-03-21 12:57:00,58.4,27.9,29.94,WNW,301,13.0,20.0,31,0.00,,---,0.00,1037.00,VWS V14.00,2013-03-21 16:57:00,
2013-03-21 12:58:00,58.5,26.4,29.93,WNW,285,10.0,20.0,29,0.00,,---,0.00,1056.00,VWS V14.00,2013-03-21 16:58:00,
2013-03-21 12:59:00,58.6,27.3,29.93,NW,317,10.0,20.0,30,0.00,,---,0.00,1004.00,VWS V14.00,2013-03-21 16:59:00,
2013-03-21 13:00:00,58.6,25.6,29.93,NW,318,6.0,20.0,28,0.00,,---,0.00,953.00,VWS V14.00,2013-03-21 17:00:00,
2013-03-21 13:01:00,58.6,27.3,29.93,WNW,291,4.0,10.0,30,0.00,,---,0.00,953.00,VWS V14.00,2013-03-21 17:01:00,
2013-03-21 13:02:00,58.7,27.4,29.93,NW,308,5.0,10.0,30,0.00,,---,0.00,1046.00,VWS V14.00,2013-03-21 17:02:00,
2013-03-21 13:03:00,58.7,27.4,29.93,WNW,298,4.0,10.0,30,0.00,,---,0.00,1034.00,VWS V14.00,2013-03-21 17:03:00,
2013-03-21 13:04:00,58.8,27.5,29.93,NW,314,5.0,10.0,30,0.00,,---,0.00,1039.00,VWS V14.00,2013-03-21 17:04:00,
2013-03-21 13:05:00,58.8,29.8,29.93,NW,312,6.0,12.0,33,0.00,,---,0.00,1032.00,VWS V14.00,2013-03-21 17:05:00,
2013-03-21 13:06:00,58.8,28.3,29.93,NW,321,4.0,12.0,31,0.00,,---,0.00,1025.00,VWS V14.00,2013-03-21 17:06:00,
2013-03-21 13:07:00,58.8,27.5,29.93,North,352,13.0,13.0,30,0.00,,---,0.00,1032.00,VWS V14.00,2013-03-21 17:07:00,
2013-03-21 13:08:00,58.9,29.1,29.93,NW,312,5.0,17.0,32,0.00,,---,0.00,1030.00,VWS V14.00,2013-03-21 17:08:00,
2013-03-21 13:09:00,58.9,28.3,29.93,WNW,299,8.0,17.0,31,0.00,,---,0.00,1027.00,VWS V14.00,2013-03-21 17:09:00,
2013-03-21 13:10:00,59.0,29.2,29.93,WNW,298,7.0,17.0,32,0.00,,---,0.00,1030.00,VWS V14.00,2013-03-21 17:10:00,
2013-03-21 13:11:00,59.0,27.6,29.92,WSW,237,5.0,17.0,30,0.00,,---,0.00,1039.00,VWS V14.00,2013-03-21 17:11:00,
2013-03-21 13:12:00,59.1,29.3,29.92,West,273,13.0,17.0,32,0.00,,---,0.00,1067.00,VWS V14.00,2013-03-21 17:12:00,
2013-03-21 13:13:00,59.1,26.9,29.92,WNW,282,13.0,17.0,29,0.00,,---,0.00,1067.00,VWS V14.00,2013-03-21 17:13:00,
2013-03-21 13:14:00,59.1,26.9,29.92,West,266,9.0,17.0,29,0.00,,---,0.00,916.00,VWS V14.00,2013-03-21 17:14:00,
2013-03-21 13:15:00,59.2,27.0,29.92,WNW,291,12.0,18.0,29,0.00,,---,0.00,919.00,VWS V14.00,2013-03-21 17:15:00,
2013-03-21 13:16:00,59.2,26.1,29.93,West,266,11.0,18.0,28,0.00,,---,0.00,998.00,VWS V14.00,2013-03-21 17:16:00,
2013-03-21 13:17:00,59.2,27.0,29.92,West,279,14.0,18.0,29,0.00,,---,0.00,998.00,VWS V14.00,2013-03-21 17:17:00,
2013-03-21 13:18:00,59.2,26.1,29.92,WNW,287,16.0,18.0,28,0.00,,---,0.00,988.00,VWS V14.00,2013-03-21 17:18:00,
2013-03-21 13:19:00,59.2,25.3,29.92,WNW,291,13.0,18.0,27,0.00,,---,0.00,1034.00,VWS V14.00,2013-03-21 17:19:00,
2013-03-21 13:20:00,59.2,27.0,29.92,West,266,8.0,19.0,29,0.00,,---,0.00,969.00,VWS V14.00,2013-03-21 17:20:00,
2013-03-21 13:21:00,59.3,26.2,29.92,West,278,9.0,19.0,28,0.00,,---,0.00,962.00,VWS V14.00,2013-03-21 17:21:00,
2013-03-21 13:22:00,59.3,27.1,29.92,NW,306,8.0,19.0,29,0.00,,---,0.00,1055.00,VWS V14.00,2013-03-21 17:22:00,
2013-03-21 13:23:00,59.4,27.2,29.93,West,271,8.0,19.0,29,0.00,,---,0.00,1013.00,VWS V14.00,2013-03-21 17:23:00,
2013-03-21 13:24:00,59.5,26.4,29.93,WNW,297,12.0,19.0,28,0.00,,---,0.00,1023.00,VWS V14.00,2013-03-21 17:24:00,
2013-03-21 13:25:00,59.6,25.6,29.93,WNW,296,16.0,19.0,27,0.00,,---,0.00,976.00,VWS V14.00,2013-03-21 17:25:00,
2013-03-21 13:26:00,59.8,25.8,29.92,West,264,16.0,19.0,27,0.00,,---,0.00,960.00,VWS V14.00,2013-03-21 17:26:00,
2013-03-21 13:27:00,59.8,26.6,29.93,West,280,13.0,19.0,28,0.00,,---,0.00,1037.00,VWS V14.00,2013-03-21 17:27:00,
2013-03-21 13:28:00,59.7,23.9,29.92,WSW,252,11.0,19.0,25,0.00,,---,0.00,979.00,VWS V14.00,2013-03-21 17:28:00,
2013-03-21 13:29:00,59.5,24.6,29.92,West,264,13.0,19.0,26,0.00,,---,0.00,1025.00,VWS V14.00,2013-03-21 17:29:00,
2013-03-21 13:30:00,59.5,24.6,29.92,WNW,299,11.0,19.0,26,0.00,,---,0.00,1027.00,VWS V14.00,2013-03-21 17:30:00,
2013-03-21 13:31:00,59.5,24.6,29.92,West,277,9.0,20.0,26,0.00,,---,0.00,1018.00,VWS V14.00,2013-03-21 17:31:00,
2013-03-21 13:32:00,59.4,24.5,29.92,West,279,17.0,20.0,26,0.00,,---,0.00,1014.00,VWS V14.00,2013-03-21 17:32:00,
2013-03-21 13:33:00,59.4,24.5,29.92,West,261,14.0,20.0,26,0.00,,---,0.00,1025.00,VWS V14.00,2013-03-21 17:33:00,
2013-03-21 13:34:00,59.4,24.5,29.92,WNW,301,13.0,20.0,26,0.00,,---,0.00,1020.00,VWS V14.00,2013-03-21 17:34:00,
2013-03-21 13:35:00,59.5,28.1,29.92,NW,312,12.0,20.0,30,0.00,,---,0.00,1002.00,VWS V14.00,2013-03-21 17:35:00,
2013-03-21 13:36:00,59.6,25.6,29.92,NNW,329,8.0,20.0,27,0.00,,---,0.00,983.00,VWS V14.00,2013-03-21 17:36:00,
2013-03-21 13:37:00,59.7,26.6,29.92,West,262,11.0,20.0,28,0.00,,---,0.00,1007.00,VWS V14.00,2013-03-21 17:37:00,
2013-03-21 13:38:00,59.8,25.8,29.92,WSW,252,14.0,20.0,27,0.00,,---,0.00,1016.00,VWS V14.00,2013-03-21 17:38:00,
2013-03-21 13:39:00,59.9,25.9,29.91,West,279,17.0,20.0,27,0.00,,---,0.00,1020.00,VWS V14.00,2013-03-21 17:39:00,
2013-03-21 13:40:00,60.0,25.0,29.91,West,268,11.0,20.0,26,0.00,,---,0.00,1020.00,VWS V14.00,2013-03-21 17:40:00,
2013-03-21 13:41:00,60.0,25.0,29.91,WSW,258,14.0,20.0,26,0.00,,---,0.00,1011.00,VWS V14.00,2013-03-21 17:41:00,
2013-03-21 13:42:00,60.0,25.0,29.91,West,262,10.0,20.0,26,0.00,,---,0.00,1018.00,VWS V14.00,2013-03-21 17:42:00,
2013-03-21 13:43:00,60.1,26.0,29.91,SW,226,13.0,24.0,27,0.00,,---,0.00,1018.00,VWS V14.00,2013-03-21 17:43:00,
2013-03-21 13:44:00,60.2,26.1,29.91,West,270,14.0,24.0,27,0.00,,---,0.00,1016.00,VWS V14.00,2013-03-21 17:44:00,
2013-03-21 13:45:00,60.2,26.1,29.91,West,273,19.0,24.0,27,0.00,,---,0.00,1016.00,VWS V14.00,2013-03-21 17:45:00,
2013-03-21 13:46:00,60.2,25.2,29.91,WSW,252,12.0,24.0,26,0.00,,---,0.00,1011.00,VWS V14.00,2013-03-21 17:46:00,
2013-03-21 13:47:00,60.2,25.2,29.91,WSW,246,8.0,24.0,26,0.00,,---,0.00,937.00,VWS V14.00,2013-03-21 17:47:00,
2013-03-21 13:48:00,60.2,26.1,29.91,WNW,289,10.0,24.0,27,0.00,,---,0.00,976.00,VWS V14.00,2013-03-21 17:48:00,
2013-03-21 13:49:00,60.2,25.2,29.91,WNW,291,5.0,24.0,26,0.00,,---,0.00,967.00,VWS V14.00,2013-03-21 17:49:00,
2013-03-21 13:50:00,60.3,26.2,29.91,NW,316,11.0,24.0,27,0.00,,---,0.00,983.00,VWS V14.00,2013-03-21 17:50:00,
2013-03-21 13:51:00,60.4,25.4,29.91,NW,320,12.0,24.0,26,0.00,,---,0.00,1027.00,VWS V14.00,2013-03-21 17:51:00,
2013-03-21 13:52:00,60.5,25.5,29.91,NW,316,13.0,24.0,26,0.00,,---,0.00,977.00,VWS V14.00,2013-03-21 17:52:00,
2013-03-21 13:53:00,60.7,24.7,29.91,West,278,9.0,24.0,25,0.00,,---,0.00,1007.00,VWS V14.00,2013-03-21 17:53:00,
2013-03-21 13:54:00,60.8,24.8,29.91,NW,306,8.0,24.0,25,0.00,,---,0.00,963.00,VWS V14.00,2013-03-21 17:54:00,
2013-03-21 13:55:00,60.9,27.6,29.91,NNW,330,18.0,24.0,28,0.00,,---,0.00,912.00,VWS V14.00,2013-03-21 17:55:00,
2013-03-21 13:56:00,60.9,26.7,29.91,NW,322,11.0,24.0,27,0.00,,---,0.00,916.00,VWS V14.00,2013-03-21 17:56:00,
2013-03-21 13:57:00,60.9,25.8,29.91,WNW,282,11.0,24.0,26,0.00,,---,0.00,951.00,VWS V14.00,2013-03-21 17:57:00,
2013-03-21 13:58:00,60.9,24.9,29.91,West,280,16.0,24.0,25,0.00,,---,0.00,791.00,VWS V14.00,2013-03-21 17:58:00,
2013-03-21 13:59:00,60.9,24.9,29.91,WNW,295,14.0,24.0,25,0.00,,---,0.00,759.00,VWS V14.00,2013-03-21 17:59:00,
2013-03-21 14:00:00,60.7,23.7,29.91,WNW,293,9.0,24.0,24,0.00,,---,0.00,742.00,VWS V14.00,2013-03-21 18:00:00,
2013-03-21 14:01:00,60.7,24.7,29.91,NW,311,9.0,12.0,25,0.00,,---,0.00,754.00,VWS V14.00,2013-03-21 18:01:00,
2013-03-21 14:02:00,60.7,24.7,29.91,WNW,291,10.0,14.0,25,0.00,,---,0.00,735.00,VWS V14.00,2013-03-21 18:02:00,
2013-03-21 14:03:00,60.7,24.7,29.91,WNW,287,14.0,18.0,25,0.00,,---,0.00,803.00,VWS V14.00,2013-03-21 18:03:00,
2013-03-21 14:04:00,60.7,25.6,29.91,NW,325,12.0,18.0,26,0.00,,---,0.00,830.00,VWS V14.00,2013-03-21 18:04:00,
2013-03-21 14:05:00,60.8,27.5,29.91,WNW,289,8.0,18.0,28,0.00,,---,0.00,826.00,VWS V14.00,2013-03-21 18:05:00,
2013-03-21 14:06:00,60.9,27.6,29.91,West,280,14.0,18.0,28,0.00,,---,0.00,846.00,VWS V14.00,2013-03-21 18:06:00,
2013-03-21 14:07:00,61.0,26.8,29.90,WNW,291,11.0,18.0,27,0.00,,---,0.00,766.00,VWS V14.00,2013-03-21 18:07:00,
2013-03-21 14:08:00,61.0,25.9,29.90,WNW,301,14.0,18.0,26,0.00,,---,0.00,770.00,VWS V14.00,2013-03-21 18:08:00,
2013-03-21 14:09:00,61.0,25.9,29.90,NW,306,9.0,18.0,26,0.00,,---,0.00,846.00,VWS V14.00,2013-03-21 18:09:00,
2013-03-21 14:10:00,61.1,26.9,29.90,West,278,11.0,18.0,27,0.00,,---,0.00,782.00,VWS V14.00,2013-03-21 18:10:00,
2013-03-21 14:11:00,61.1,26.9,29.91,WNW,289,10.0,18.0,27,0.00,,---,0.00,784.00,VWS V14.00,2013-03-21 18:11:00,
2013-03-21 14:12:00,61.1,26.0,29.90,WNW,286,5.0,18.0,26,0.00,,---,0.00,784.00,VWS V14.00,2013-03-21 18:12:00,
2013-03-21 14:13:00,61.2,28.7,29.90,WNW,296,5.0,18.0,29,0.00,,---,0.00,932.00,VWS V14.00,2013-03-21 18:13:00,
2013-03-21 14:14:00,61.3,26.1,29.90,WNW,296,13.0,18.0,26,0.00,,---,0.00,895.00,VWS V14.00,2013-03-21 18:14:00,
2013-03-21 14:15:00,61.4,28.0,29.90,WNW,292,12.0,18.0,28,0.00,,---,0.00,889.00,VWS V14.00,2013-03-21 18:15:00,
2013-03-21 14:16:00,61.5,27.2,29.90,WNW,294,10.0,18.0,27,0.00,,---,0.00,838.00,VWS V14.00,2013-03-21 18:16:00,
2013-03-21 14:17:00,61.6,26.4,29.89,WNW,283,12.0,18.0,26,0.00,,---,0.00,860.00,VWS V14.00,2013-03-21 18:17:00,
2013-03-21 14:18:00,61.8,28.4,29.89,WNW,299,11.0,18.0,28,0.00,,---,0.00,840.00,VWS V14.00,2013-03-21 18:18:00,
2013-03-21 14:19:00,61.9,27.6,29.89,WNW,301,9.0,18.0,27,0.00,,---,0.00,847.00,VWS V14.00,2013-03-21 18:19:00,
2013-03-21 14:20:00,61.9,24.7,29.89,NW,311,6.0,18.0,24,0.00,,---,0.00,888.00,VWS V14.00,2013-03-21 18:20:00,
2013-03-21 14:21:00,61.9,26.7,29.89,NW,312,1.0,18.0,26,0.00,,---,0.00,904.00,VWS V14.00,2013-03-21 18:21:00,
2013-03-21 14:22:00,61.9,27.6,29.89,WNW,302,7.0,18.0,27,0.00,,---,0.00,865.00,VWS V14.00,2013-03-21 18:22:00,
2013-03-21 14:23:00,61.9,27.6,29.89,NNW,335,9.0,18.0,27,0.00,,---,0.00,954.00,VWS V14.00,2013-03-21 18:23:00,
2013-03-21 14:24:00,61.9,26.7,29.89,NW,309,13.0,18.0,26,0.00,,---,0.00,953.00,VWS V14.00,2013-03-21 18:24:00,
2013-03-21 14:25:00,61.8,25.6,29.89,NW,318,13.0,18.0,25,0.00,,---,0.00,962.00,VWS V14.00,2013-03-21 18:25:00,
2013-03-21 14:26:00,61.8,26.6,29.89,WNW,283,8.0,18.0,26,0.00,,---,0.00,954.00,VWS V14.00,2013-03-21 18:26:00,
2013-03-21 14:27:00,61.9,27.6,29.89,WNW,288,10.0,18.0,27,0.00,,---,0.00,998.00,VWS V14.00,2013-03-21 18:27:00,
2013-03-21 14:28:00,62.0,26.8,29.89,WNW,283,9.0,18.0,26,0.00,,---,0.00,1032.00,VWS V14.00,2013-03-21 18:28:00,
2013-03-21 14:29:00,62.0,27.7,29.89,NW,312,14.0,19.0,27,0.00,,---,0.00,1009.00,VWS V14.00,2013-03-21 18:29:00,
2013-03-21 14:30:00,62.0,25.8,29.89,NW,310,10.0,19.0,25,0.00,,---,0.00,919.00,VWS V14.00,2013-03-21 18:30:00,
2013-03-21 14:31:00,62.0,25.8,29.89,WNW,300,13.0,14.0,25,0.00,,---,0.00,919.00,VWS V14.00,2013-03-21 18:31:00,
2013-03-21 14:32:00,62.0,26.8,29.89,West,274,14.0,16.0,26,0.00,,---,0.00,751.00,VWS V14.00,2013-03-21 18:32:00,
2013-03-21 14:33:00,62.0,26.8,29.89,WNW,293,9.0,17.0,26,0.00,,---,0.00,805.00,VWS V14.00,2013-03-21 18:33:00,
2013-03-21 14:34:00,61.9,25.7,29.89,WNW,291,5.0,17.0,25,0.00,,---,0.00,846.00,VWS V14.00,2013-03-21 18:34:00,
2013-03-21 14:35:00,61.8,25.6,29.89,West,274,8.0,17.0,25,0.00,,---,0.00,821.00,VWS V14.00,2013-03-21 18:35:00,
2013-03-21 14:36:00,61.7,25.5,29.89,West,279,9.0,17.0,25,0.00,,---,0.00,821.00,VWS V14.00,2013-03-21 18:36:00,
2013-03-21 14:37:00,61.6,25.5,29.89,West,279,7.0,17.0,25,0.00,,---,0.00,612.00,VWS V14.00,2013-03-21 18:37:00,
2013-03-21 14:38:00,61.6,25.5,29.89,NW,310,9.0,17.0,25,0.00,,---,0.00,612.00,VWS V14.00,2013-03-21 18:38:00,
2013-03-21 14:39:00,61.6,26.4,29.89,NW,318,7.0,17.0,26,0.00,,---,0.00,612.00,VWS V14.00,2013-03-21 18:39:00,
2013-03-21 14:40:00,61.7,28.3,29.89,NW,320,10.0,17.0,28,0.00,,---,0.00,865.00,VWS V14.00,2013-03-21 18:40:00,
2013-03-21 14:41:00,61.8,26.6,29.88,West,274,15.0,17.0,26,0.00,,---,0.00,800.00,VWS V14.00,2013-03-21 18:41:00,
2013-03-21 14:42:00,61.9,25.7,29.88,WNW,282,10.0,17.0,25,0.00,,---,0.00,715.00,VWS V14.00,2013-03-21 18:42:00,
2013-03-21 14:43:00,61.8,25.6,29.88,West,263,9.0,17.0,25,0.00,,---,0.00,710.00,VWS V14.00,2013-03-21 18:43:00,
2013-03-21 14:44:00,61.8,25.6,29.88,WNW,286,11.0,17.0,25,0.00,,---,0.00,795.00,VWS V14.00,2013-03-21 18:44:00,
2013-03-21 14:45:00,61.8,24.6,29.88,West,260,8.0,17.0,24,0.00,,---,0.00,874.00,VWS V14.00,2013-03-21 18:45:00,
2013-03-21 14:46:00,61.8,25.6,29.88,West,264,16.0,17.0,25,0.00,,---,0.00,860.00,VWS V14.00,2013-03-21 18:46:00,
2013-03-21 14:47:00,62.0,25.8,29.88,NW,310,12.0,22.0,25,0.00,,---,0.00,835.00,VWS V14.00,2013-03-21 18:47:00,
2013-03-21 14:48:00,62.1,25.9,29.88,NW,310,17.0,22.0,25,0.00,,---,0.00,835.00,VWS V14.00,2013-03-21 18:48:00,
2013-03-21 14:49:00,62.2,26.9,29.88,WNW,297,10.0,22.0,26,0.00,,---,0.00,835.00,VWS V14.00,2013-03-21 18:49:00,
2013-03-21 14:50:00,62.3,27.0,29.88,WNW,283,9.0,22.0,26,0.00,,---,0.00,835.00,VWS V14.00,2013-03-21 18:50:00,
2013-03-21 14:51:00,62.3,27.0,29.88,WNW,293,9.0,22.0,26,0.00,,---,0.00,603.00,VWS V14.00,2013-03-21 18:51:00,
2013-03-21 14:52:00,62.4,27.1,29.88,WNW,297,14.0,22.0,26,0.00,,---,0.00,666.00,VWS V14.00,2013-03-21 18:52:00,
2013-03-21 14:53:00,62.3,26.1,29.88,WNW,283,5.0,22.0,25,0.00,,---,0.00,666.00,VWS V14.00,2013-03-21 18:53:00,
2013-03-21 14:54:00,62.3,26.1,29.88,West,266,14.0,22.0,25,0.00,,---,0.00,884.00,VWS V14.00,2013-03-21 18:54:00,
2013-03-21 14:55:00,62.3,26.1,29.87,WSW,252,10.0,22.0,25,0.00,,---,0.00,800.00,VWS V14.00,2013-03-21 18:55:00,
2013-03-21 14:56:00,62.2,25.0,29.88,NW,306,5.0,22.0,24,0.00,,---,0.00,800.00,VWS V14.00,2013-03-21 18:56:00,
2013-03-21 14:57:00,62.2,26.0,29.88,WNW,283,9.0,22.0,25,0.00,,---,0.00,1074.00,VWS V14.00,2013-03-21 18:57:00,
2013-03-21 14:58:00,62.2,26.0,29.87,NW,308,10.0,22.0,25,0.00,,---,0.00,1044.00,VWS V14.00,2013-03-21 18:58:00,
2013-03-21 14:59:00,62.3,26.1,29.87,WNW,291,8.0,22.0,25,0.00,,---,0.00,1025.00,VWS V14.00,2013-03-21 18:59:00,
2013-03-21 15:00:00,62.5,27.2,29.87,WNW,303,10.0,22.0,26,0.00,,---,0.00,935.00,VWS V14.00,2013-03-21 19:00:00,
2013-03-21 15:01:00,62.7,24.4,29.87,WNW,302,10.0,12.0,23,0.00,,---,0.00,935.00,VWS V14.00,2013-03-21 19:01:00,
2013-03-21 15:02:00,62.7,26.4,29.87,West,270,10.0,14.0,25,0.00,,---,0.00,1030.00,VWS V14.00,2013-03-21 19:02:00,
2013-03-21 15:03:00,62.8,26.5,29.87,WNW,297,11.0,14.0,25,0.00,,---,0.00,712.00,VWS V14.00,2013-03-21 19:03:00,
2013-03-21 15:04:00,62.9,26.6,29.87,NNW,330,10.0,14.0,25,0.00,,---,0.00,722.00,VWS V14.00,2013-03-21 19:04:00,
2013-03-21 15:05:00,62.9,27.5,29.87,WNW,293,11.0,18.0,26,0.00,,---,0.00,754.00,VWS V14.00,2013-03-21 19:05:00,
2013-03-21 15:06:00,62.9,25.6,29.87,NW,318,9.0,18.0,24,0.00,,---,0.00,754.00,VWS V14.00,2013-03-21 19:06:00,
2013-03-21 15:07:00,62.9,27.5,29.86,NNW,328,15.0,18.0,26,0.00,,---,0.00,904.00,VWS V14.00,2013-03-21 19:07:00,
2013-03-21 15:08:00,62.9,29.3,29.86,NW,307,6.0,18.0,28,0.00,,---,0.00,928.00,VWS V14.00,2013-03-21 19:08:00,
2013-03-21 15:09:00,62.9,30.2,29.86,NW,325,9.0,18.0,29,0.00,,---,0.00,896.00,VWS V14.00,2013-03-21 19:09:00,
2013-03-21 15:10:00,62.9,31.0,29.87,WNW,283,5.0,18.0,30,0.00,,---,0.00,926.00,VWS V14.00,2013-03-21 19:10:00,
2013-03-21 15:11:00,63.1,29.5,29.87,NW,304,8.0,18.0,28,0.00,,---,0.00,830.00,VWS V14.00,2013-03-21 19:11:00,
2013-03-21 15:12:00,63.2,26.8,29.86,West,272,13.0,18.0,25,0.00,,---,0.00,830.00,VWS V14.00,2013-03-21 19:12:00,
2013-03-21 15:13:00,63.4,26.0,29.86,WNW,299,8.0,18.0,24,0.00,,---,0.00,940.00,VWS V14.00,2013-03-21 19:13:00,
2013-03-21 15:14:00,63.4,27.9,29.87,West,276,11.0,18.0,26,0.00,,---,0.00,923.00,VWS V14.00,2013-03-21 19:14:00,
2013-03-21 15:15:00,63.4,26.0,29.86,West,278,11.0,18.0,24,0.00,,---,0.00,921.00,VWS V14.00,2013-03-21 19:15:00,
2013-03-21 15:16:00,63.4,26.0,29.86,West,263,5.0,18.0,24,0.00,,---,0.00,935.00,VWS V14.00,2013-03-21 19:16:00,
2013-03-21 15:17:00,63.3,24.9,29.86,WNW,290,8.0,18.0,23,0.00,,---,0.00,932.00,VWS V14.00,2013-03-21 19:17:00,
2013-03-21 15:18:00,63.2,27.8,29.86,West,266,7.0,18.0,26,0.00,,---,0.00,923.00,VWS V14.00,2013-03-21 19:18:00,
2013-03-21 15:19:00,63.2,26.8,29.86,NW,320,6.0,18.0,25,0.00,,---,0.00,916.00,VWS V14.00,2013-03-21 19:19:00,
2013-03-21 15:20:00,63.3,25.9,29.86,WNW,293,7.0,18.0,24,0.00,,---,0.00,911.00,VWS V14.00,2013-03-21 19:20:00,
2013-03-21 15:21:00,63.4,25.0,29.86,NW,317,9.0,18.0,23,0.00,,---,0.00,909.00,VWS V14.00,2013-03-21 19:21:00,
2013-03-21 15:22:00,63.6,28.1,29.86,WNW,295,5.0,18.0,26,0.00,,---,0.00,907.00,VWS V14.00,2013-03-21 19:22:00,
2013-03-21 15:23:00,63.7,27.2,29.86,NW,309,6.0,18.0,25,0.00,,---,0.00,905.00,VWS V14.00,2013-03-21 19:23:00,
2013-03-21 15:24:00,63.8,25.3,29.86,West,274,9.0,18.0,23,0.00,,---,0.00,902.00,VWS V14.00,2013-03-21 19:24:00,
2013-03-21 15:25:00,64.0,30.3,29.86,WNW,291,10.0,18.0,28,0.00,,---,0.00,900.00,VWS V14.00,2013-03-21 19:25:00,
2013-03-21 15:26:00,64.2,26.7,29.86,WNW,301,16.0,18.0,24,0.00,,---,0.00,898.00,VWS V14.00,2013-03-21 19:26:00,
2013-03-21 15:27:00,64.1,23.4,29.86,WNW,300,8.0,18.0,21,0.00,,---,0.00,893.00,VWS V14.00,2013-03-21 19:27:00,
2013-03-21 15:28:00,64.1,25.6,29.86,NW,324,8.0,18.0,23,0.00,,---,0.00,888.00,VWS V14.00,2013-03-21 19:28:00,
2013-03-21 15:29:00,64.1,26.6,29.86,WNW,303,7.0,18.0,24,0.00,,---,0.00,886.00,VWS V14.00,2013-03-21 19:29:00,
2013-03-21 15:30:00,64.1,25.6,29.86,WNW,297,11.0,18.0,23,0.00,,---,0.00,882.00,VWS V14.00,2013-03-21 19:30:00,
2013-03-21 15:31:00,64.2,26.7,29.86,West,271,17.0,17.0,24,0.00,,---,0.00,881.00,VWS V14.00,2013-03-21 19:31:00,
2013-03-21 15:32:00,64.1,24.5,29.86,West,268,11.0,18.0,22,0.00,,---,0.00,877.00,VWS V14.00,2013-03-21 19:32:00,
2013-03-21 15:33:00,64.0,24.4,29.86,West,281,10.0,18.0,22,0.00,,---,0.00,875.00,VWS V14.00,2013-03-21 19:33:00,
2013-03-21 15:34:00,63.9,25.4,29.86,WSW,255,10.0,18.0,23,0.00,,---,0.00,875.00,VWS V14.00,2013-03-21 19:34:00,
2013-03-21 15:35:00,63.8,24.2,29.86,West,270,10.0,18.0,22,0.00,,---,0.00,872.00,VWS V14.00,2013-03-21 19:35:00,
2013-03-21 15:36:00,63.8,26.3,29.86,West,281,5.0,18.0,24,0.00,,---,0.00,870.00,VWS V14.00,2013-03-21 19:36:00,
2013-03-21 15:37:00,64.0,26.5,29.86,NW,324,7.0,18.0,24,0.00,,---,0.00,872.00,VWS V14.00,2013-03-21 19:37:00,
2013-03-21 15:38:00,64.1,25.6,29.86,WNW,283,11.0,18.0,23,0.00,,---,0.00,870.00,VWS V14.00,2013-03-21 19:38:00,
2013-03-21 15:39:00,64.3,24.7,29.86,West,262,14.0,18.0,22,0.00,,---,0.00,867.00,VWS V14.00,2013-03-21 19:39:00,
2013-03-21 15:40:00,64.4,25.8,29.86,West,260,11.0,18.0,23,0.00,,---,0.00,865.00,VWS V14.00,2013-03-21 19:40:00,
2013-03-21 15:41:00,64.4,23.6,29.86,WSW,249,8.0,18.0,21,0.00,,---,0.00,865.00,VWS V14.00,2013-03-21 19:41:00,
2013-03-21 15:42:00,64.3,22.4,29.86,West,267,8.0,18.0,20,0.00,,---,0.00,863.00,VWS V14.00,2013-03-21 19:42:00,
2013-03-21 15:43:00,64.3,23.6,29.86,West,278,9.0,18.0,21,0.00,,---,0.00,856.00,VWS V14.00,2013-03-21 19:43:00,
2013-03-21 15:44:00,64.3,23.6,29.86,WSW,256,13.0,18.0,21,0.00,,---,0.00,853.00,VWS V14.00,2013-03-21 19:44:00,
2013-03-21 15:45:00,64.3,26.8,29.86,NW,306,5.0,18.0,24,0.00,,---,0.00,851.00,VWS V14.00,2013-03-21 19:45:00,
2013-03-21 15:46:00,64.4,28.8,29.86,WNW,303,8.0,18.0,26,0.00,,---,0.00,847.00,VWS V14.00,2013-03-21 19:46:00,
2013-03-21 15:47:00,64.4,24.8,29.86,West,259,13.0,18.0,22,0.00,,---,0.00,847.00,VWS V14.00,2013-03-21 19:47:00,
2013-03-21 15:48:00,64.5,25.9,29.86,WSW,251,5.0,18.0,23,0.00,,---,0.00,847.00,VWS V14.00,2013-03-21 19:48:00,
2013-03-21 15:49:00,64.6,24.9,29.86,WNW,295,12.0,18.0,22,0.00,,---,0.00,849.00,VWS V14.00,2013-03-21 19:49:00,
2013-03-21 15:50:00,64.5,24.8,29.86,West,270,7.0,18.0,22,0.00,,---,0.00,853.00,VWS V14.00,2013-03-21 19:50:00,
2013-03-21 15:51:00,64.5,25.9,29.86,WNW,295,9.0,18.0,23,0.00,,---,0.00,854.00,VWS V14.00,2013-03-21 19:51:00,
2013-03-21 15:52:00,64.5,24.8,29.86,WNW,285,9.0,18.0,22,0.00,,---,0.00,821.00,VWS V14.00,2013-03-21 19:52:00,
2013-03-21 15:53:00,64.5,23.7,29.85,West,277,10.0,18.0,21,0.00,,---,0.00,828.00,VWS V14.00,2013-03-21 19:53:00,
2013-03-21 15:54:00,64.5,24.8,29.85,West,272,10.0,18.0,22,0.00,,---,0.00,831.00,VWS V14.00,2013-03-21 19:54:00,
2013-03-21 15:55:00,64.5,24.8,29.85,West,264,11.0,18.0,22,0.00,,---,0.00,821.00,VWS V14.00,2013-03-21 19:55:00,
2013-03-21 15:56:00,64.5,24.8,29.85,West,266,10.0,18.0,22,0.00,,---,0.00,821.00,VWS V14.00,2013-03-21 19:56:00,
2013-03-21 15:57:00,64.5,24.8,29.85,WNW,301,16.0,18.0,22,0.00,,---,0.00,821.00,VWS V14.00,2013-03-21 19:57:00,
2013-03-21 15:58:00,64.5,24.8,29.85,WNW,297,12.0,18.0,22,0.00,,---,0.00,821.00,VWS V14.00,2013-03-21 19:58:00,
2013-03-21 15:59:00,64.5,23.7,29.85,West,262,15.0,18.0,21,0.00,,---,0.00,821.00,VWS V14.00,2013-03-21 19:59:00,
2013-03-21 16:00:00,64.5,24.8,29.85,WNW,283,13.0,18.0,22,0.00,,---,0.00,821.00,VWS V14.00,2013-03-21 20:00:00,
2013-03-21 16:01:00,64.5,23.7,29.85,WSW,252,10.0,16.0,21,0.00,,---,0.00,482.00,VWS V14.00,2013-03-21 20:01:00,
2013-03-21 16:02:00,64.4,23.6,29.85,West,272,14.0,16.0,21,0.00,,---,0.00,381.00,VWS V14.00,2013-03-21 20:02:00,
2013-03-21 16:03:00,64.4,23.6,29.85,West,264,16.0,19.0,21,0.00,,---,0.00,381.00,VWS V14.00,2013-03-21 20:03:00,
2013-03-21 16:04:00,64.4,24.8,29.85,NNW,337,5.0,19.0,22,0.00,,---,0.00,381.00,VWS V14.00,2013-03-21 20:04:00,
2013-03-21 16:05:00,64.4,24.8,29.85,NW,320,12.0,19.0,22,0.00,,---,0.00,844.00,VWS V14.00,2013-03-21 20:05:00,
2013-03-21 16:06:00,64.5,24.8,29.85,NNW,329,11.0,19.0,22,0.00,,---,0.00,863.00,VWS V14.00,2013-03-21 20:06:00,
2013-03-21 16:07:00,64.7,26.1,29.85,WNW,303,10.0,19.0,23,0.00,,---,0.00,831.00,VWS V14.00,2013-03-21 20:07:00,
2013-03-21 16:08:00,64.8,28.2,29.85,NW,324,21.0,21.0,25,0.00,,---,0.00,777.00,VWS V14.00,2013-03-21 20:08:00,
2013-03-21 16:09:00,64.9,29.2,29.86,NNW,328,20.0,24.0,26,0.00,,---,0.00,809.00,VWS V14.00,2013-03-21 20:09:00,
2013-03-21 16:10:00,64.9,28.3,29.86,WNW,298,10.0,24.0,25,0.00,,---,0.00,809.00,VWS V14.00,2013-03-21 20:10:00,
2013-03-21 16:11:00,64.9,26.2,29.86,NW,323,10.0,24.0,23,0.00,,---,0.00,798.00,VWS V14.00,2013-03-21 20:11:00,
2013-03-21 16:12:00,64.9,25.2,29.86,NNW,333,11.0,24.0,22,0.00,,---,0.00,793.00,VWS V14.00,2013-03-21 20:12:00,
2013-03-21 16:13:00,65.0,27.4,29.85,NNW,328,13.0,24.0,24,0.00,,---,0.00,786.00,VWS V14.00,2013-03-21 20:13:00,
2013-03-21 16:14:00,65.0,26.3,29.85,NNW,328,13.0,24.0,23,0.00,,---,0.00,742.00,VWS V14.00,2013-03-21 20:14:00,
2013-03-21 16:15:00,64.9,27.3,29.85,NNW,328,16.0,24.0,24,0.00,,---,0.00,777.00,VWS V14.00,2013-03-21 20:15:00,
2013-03-21 16:16:00,64.9,28.3,29.85,NNW,331,11.0,24.0,25,0.00,,---,0.00,775.00,VWS V14.00,2013-03-21 20:16:00,
2013-03-21 16:17:00,64.8,29.1,29.85,NW,326,9.0,24.0,26,0.00,,---,0.00,775.00,VWS V14.00,2013-03-21 20:17:00,
2013-03-21 16:18:00,64.7,31.7,29.85,NNW,330,11.0,24.0,29,0.00,,---,0.00,775.00,VWS V14.00,2013-03-21 20:18:00,
2013-03-21 16:19:00,64.7,29.0,29.85,West,271,7.0,24.0,26,0.00,,---,0.00,775.00,VWS V14.00,2013-03-21 20:19:00,
2013-03-21 16:20:00,64.7,26.1,29.86,West,262,8.0,24.0,23,0.00,,---,0.00,775.00,VWS V14.00,2013-03-21 20:20:00,
2013-03-21 16:21:00,64.8,26.2,29.86,West,276,11.0,24.0,23,0.00,,---,0.00,775.00,VWS V14.00,2013-03-21 20:21:00,
2013-03-21 16:22:00,64.9,25.2,29.86,WNW,284,5.0,24.0,22,0.00,,---,0.00,775.00,VWS V14.00,2013-03-21 20:22:00,
2013-03-21 16:23:00,65.0,26.3,29.85,NW,312,11.0,24.0,23,0.00,,---,0.00,775.00,VWS V14.00,2013-03-21 20:23:00,
2013-03-21 16:24:00,65.3,25.5,29.86,WNW,286,11.0,24.0,22,0.00,,---,0.00,381.00,VWS V14.00,2013-03-21 20:24:00,
2013-03-21 16:25:00,65.3,23.2,29.86,West,274,10.0,24.0,20,0.00,,---,0.00,381.00,VWS V14.00,2013-03-21 20:25:00,
2013-03-21 16:26:00,65.4,25.6,29.86,WNW,282,8.0,24.0,22,0.00,,---,0.00,710.00,VWS V14.00,2013-03-21 20:26:00,
2013-03-21 16:27:00,65.5,24.6,29.86,NW,319,10.0,24.0,21,0.00,,---,0.00,710.00,VWS V14.00,2013-03-21 20:27:00,
2013-03-21 16:28:00,65.5,23.4,29.85,NW,326,16.0,24.0,20,0.00,,---,0.00,710.00,VWS V14.00,2013-03-21 20:28:00,
2013-03-21 16:29:00,65.4,26.7,29.85,NNW,331,17.0,24.0,23,0.00,,---,0.00,689.00,VWS V14.00,2013-03-21 20:29:00,
2013-03-21 16:30:00,65.4,24.5,29.85,NW,318,12.0,24.0,21,0.00,,---,0.00,749.00,VWS V14.00,2013-03-21 20:30:00,
2013-03-21 16:31:00,65.3,24.4,29.85,West,263,10.0,10.0,21,0.00,,---,0.00,729.00,VWS V14.00,2013-03-21 20:31:00,
2013-03-21 16:32:00,65.3,24.4,29.85,West,277,9.0,10.0,21,0.00,,---,0.00,705.00,VWS V14.00,2013-03-21 20:32:00,
2013-03-21 16:33:00,65.3,23.2,29.85,NW,319,5.0,10.0,20,0.00,,---,0.00,705.00,VWS V14.00,2013-03-21 20:33:00,
2013-03-21 16:34:00,65.4,23.3,29.85,NW,310,10.0,15.0,20,0.00,,---,0.00,512.00,VWS V14.00,2013-03-21 20:34:00,
2013-03-21 16:35:00,65.5,24.6,29.85,NW,322,14.0,18.0,21,0.00,,---,0.00,564.00,VWS V14.00,2013-03-21 20:35:00,
2013-03-21 16:36:00,65.5,24.6,29.85,WNW,299,12.0,18.0,21,0.00,,---,0.00,439.00,VWS V14.00,2013-03-21 20:36:00,
2013-03-21 16:37:00,65.6,24.6,29.86,NW,308,9.0,18.0,21,0.00,,---,0.00,439.00,VWS V14.00,2013-03-21 20:37:00,
2013-03-21 16:38:00,65.6,23.5,29.86,WNW,292,11.0,18.0,20,0.00,,---,0.00,439.00,VWS V14.00,2013-03-21 20:38:00,
2013-03-21 16:39:00,65.6,23.5,29.86,WNW,302,10.0,18.0,20,0.00,,---,0.00,439.00,VWS V14.00,2013-03-21 20:39:00,
2013-03-21 16:40:00,65.6,25.8,29.86,NNW,339,9.0,18.0,22,0.00,,---,0.00,580.00,VWS V14.00,2013-03-21 20:40:00,
2013-03-21 16:41:00,65.6,26.8,29.86,NW,315,10.0,18.0,23,0.00,,---,0.00,580.00,VWS V14.00,2013-03-21 20:41:00,
2013-03-21 16:42:00,65.7,24.7,29.86,NNW,346,6.0,18.0,21,0.00,,---,0.00,782.00,VWS V14.00,2013-03-21 20:42:00,
2013-03-21 16:43:00,65.8,27.0,29.86,WNW,299,14.0,18.0,23,0.00,,---,0.00,782.00,VWS V14.00,2013-03-21 20:43:00,
2013-03-21 16:44:00,65.9,24.9,29.86,WNW,303,14.0,18.0,21,0.00,,---,0.00,598.00,VWS V14.00,2013-03-21 20:44:00,
2013-03-21 16:45:00,65.8,21.1,29.86,WNW,293,12.0,18.0,18,0.00,,---,0.00,606.00,VWS V14.00,2013-03-21 20:45:00,
2013-03-21 16:46:00,65.7,22.3,29.86,WNW,289,8.0,18.0,19,0.00,,---,0.00,599.00,VWS V14.00,2013-03-21 20:46:00,
2013-03-21 16:47:00,65.8,24.8,29.86,NNW,328,13.0,23.0,21,0.00,,---,0.00,585.00,VWS V14.00,2013-03-21 20:47:00,
2013-03-21 16:48:00,65.8,29.0,29.86,WNW,300,18.0,23.0,25,0.00,,---,0.00,657.00,VWS V14.00,2013-03-21 20:48:00,
2013-03-21 16:49:00,65.6,24.6,29.86,NW,318,16.0,26.0,21,0.00,,---,0.00,657.00,VWS V14.00,2013-03-21 20:49:00,
2013-03-21 16:50:00,65.6,24.6,29.86,NW,324,15.0,26.0,21,0.00,,---,0.00,654.00,VWS V14.00,2013-03-21 20:50:00,
2013-03-21 16:51:00,65.5,25.7,29.86,NW,323,17.0,26.0,22,0.00,,---,0.00,721.00,VWS V14.00,2013-03-21 20:51:00,
2013-03-21 16:52:00,65.4,25.6,29.86,NW,323,17.0,26.0,22,0.00,,---,0.00,789.00,VWS V14.00,2013-03-21 20:52:00,
2013-03-21 16:53:00,65.3,26.6,29.86,NNW,332,15.0,26.0,23,0.00,,---,0.00,703.00,VWS V14.00,2013-03-21 20:53:00,
2013-03-21 16:54:00,65.3,24.4,29.86,NNW,330,9.0,26.0,21,0.00,,---,0.00,689.00,VWS V14.00,2013-03-21 20:54:00,
2013-03-21 16:55:00,65.3,26.6,29.86,WNW,299,7.0,26.0,23,0.00,,---,0.00,675.00,VWS V14.00,2013-03-21 20:55:00,
2013-03-21 16:56:00,65.3,28.6,29.86,NW,320,8.0,26.0,25,0.00,,---,0.00,663.00,VWS V14.00,2013-03-21 20:56:00,
2013-03-21 16:57:00,65.4,26.7,29.86,NW,310,8.0,26.0,23,0.00,,---,0.00,670.00,VWS V14.00,2013-03-21 20:57:00,
2013-03-21 16:58:00,65.6,25.8,29.86,WNW,295,10.0,26.0,22,0.00,,---,0.00,666.00,VWS V14.00,2013-03-21 20:58:00,
2013-03-21 16:59:00,65.6,23.5,29.86,WNW,299,11.0,26.0,20,0.00,,---,0.00,497.00,VWS V14.00,2013-03-21 20:59:00,
2013-03-21 17:00:00,65.6,23.5,29.86,West,274,11.0,26.0,20,0.00,,---,0.00,438.00,VWS V14.00,2013-03-21 21:00:00,
2013-03-21 17:01:00,65.7,24.7,29.86,West,276,7.0,13.0,21,0.00,,---,0.00,492.00,VWS V14.00,2013-03-21 21:01:00,
2013-03-21 17:02:00,65.7,25.8,29.85,West,272,9.0,13.0,22,0.00,,---,0.00,492.00,VWS V14.00,2013-03-21 21:02:00,
2013-03-21 17:03:00,65.8,24.8,29.85,WNW,283,11.0,13.0,21,0.00,,---,0.00,603.00,VWS V14.00,2013-03-21 21:03:00,
2013-03-21 17:04:00,65.7,23.6,29.85,West,267,11.0,13.0,20,0.00,,---,0.00,647.00,VWS V14.00,2013-03-21 21:04:00,
2013-03-21 17:05:00,65.7,23.6,29.85,West,278,16.0,19.0,20,0.00,,---,0.00,633.00,VWS V14.00,2013-03-21 21:05:00,
2013-03-21 17:06:00,65.8,22.4,29.85,NW,322,9.0,19.0,19,0.00,,---,0.00,610.00,VWS V14.00,2013-03-21 21:06:00,
2013-03-21 17:07:00,65.8,27.0,29.86,WNW,300,15.0,25.0,23,0.00,,---,0.00,599.00,VWS V14.00,2013-03-21 21:07:00,
2013-03-21 17:08:00,65.9,23.7,29.86,NNW,328,14.0,25.0,20,0.00,,---,0.00,592.00,VWS V14.00,2013-03-21 21:08:00,
2013-03-21 17:09:00,65.9,23.7,29.86,NW,320,14.0,25.0,20,0.00,,---,0.00,587.00,VWS V14.00,2013-03-21 21:09:00,
2013-03-21 17:10:00,65.8,22.4,29.85,NW,310,12.0,25.0,19,0.00,,---,0.00,584.00,VWS V14.00,2013-03-21 21:10:00,
2013-03-21 17:11:00,65.9,22.5,29.86,NW,319,10.0,25.0,19,0.00,,---,0.00,575.00,VWS V14.00,2013-03-21 21:11:00,
2013-03-21 17:12:00,65.9,22.5,29.86,WNW,303,8.0,25.0,19,0.00,,---,0.00,570.00,VWS V14.00,2013-03-21 21:12:00,
2013-03-21 17:13:00,65.9,21.2,29.86,WNW,300,11.0,25.0,18,0.00,,---,0.00,568.00,VWS V14.00,2013-03-21 21:13:00,
2013-03-21 17:14:00,65.9,21.2,29.86,NW,309,9.0,25.0,18,0.00,,---,0.00,566.00,VWS V14.00,2013-03-21 21:14:00,
2013-03-21 17:15:00,66.0,21.3,29.86,NW,310,10.0,25.0,18,0.00,,---,0.00,564.00,VWS V14.00,2013-03-21 21:15:00,
2013-03-21 17:16:00,66.1,21.4,29.86,WNW,297,13.0,25.0,18,0.00,,---,0.00,555.00,VWS V14.00,2013-03-21 21:16:00,
2013-03-21 17:17:00,66.2,21.5,29.86,NW,317,16.0,25.0,18,0.00,,---,0.00,564.00,VWS V14.00,2013-03-21 21:17:00,
2013-03-21 17:18:00,66.1,20.0,29.86,WNW,300,13.0,25.0,17,0.00,,---,0.00,533.00,VWS V14.00,2013-03-21 21:18:00,
2013-03-21 17:19:00,66.1,21.4,29.86,West,268,10.0,25.0,18,0.00,,---,0.00,547.00,VWS V14.00,2013-03-21 21:19:00,
2013-03-21 17:20:00,66.0,18.5,29.86,WNW,283,13.0,25.0,16,0.00,,---,0.00,543.00,VWS V14.00,2013-03-21 21:20:00,
2013-03-21 17:21:00,65.9,21.2,29.86,WSW,255,14.0,25.0,18,0.00,,---,0.00,540.00,VWS V14.00,2013-03-21 21:21:00,
2013-03-21 17:22:00,65.8,23.6,29.86,West,281,5.0,25.0,20,0.00,,---,0.00,536.00,VWS V14.00,2013-03-21 21:22:00,
2013-03-21 17:23:00,65.9,23.7,29.86,NW,324,11.0,25.0,20,0.00,,---,0.00,529.00,VWS V14.00,2013-03-21 21:23:00,
2013-03-21 17:24:00,66.0,26.1,29.86,West,273,9.0,25.0,22,0.00,,---,0.00,533.00,VWS V14.00,2013-03-21 21:24:00,
2013-03-21 17:25:00,66.0,25.0,29.86,West,280,17.0,25.0,21,0.00,,---,0.00,476.00,VWS V14.00,2013-03-21 21:25:00,
2013-03-21 17:26:00,65.9,22.5,29.86,WNW,291,10.0,25.0,19,0.00,,---,0.00,476.00,VWS V14.00,2013-03-21 21:26:00,
2013-03-21 17:27:00,65.9,27.1,29.86,WNW,286,11.0,25.0,23,0.00,,---,0.00,476.00,VWS V14.00,2013-03-21 21:27:00,
2013-03-21 17:28:00,65.9,21.2,29.86,WNW,291,21.0,25.0,18,0.00,,---,0.00,476.00,VWS V14.00,2013-03-21 21:28:00,
2013-03-21 17:29:00,65.8,19.8,29.86,WNW,302,13.0,25.0,17,0.00,,---,0.00,482.00,VWS V14.00,2013-03-21 21:29:00,
2013-03-21 17:30:00,65.8,21.1,29.86,NW,320,14.0,25.0,18,0.00,,---,0.00,536.00,VWS V14.00,2013-03-21 21:30:00,
2013-03-21 17:31:00,65.7,21.1,29.86,NW,324,14.0,15.0,18,0.00,,---,0.00,524.00,VWS V14.00,2013-03-21 21:31:00,
2013-03-21 17:32:00,65.7,21.1,29.86,NW,311,15.0,15.0,18,0.00,,---,0.00,510.00,VWS V14.00,2013-03-21 21:32:00,
2013-03-21 17:33:00,65.7,21.1,29.86,WNW,293,15.0,17.0,18,0.00,,---,0.00,499.00,VWS V14.00,2013-03-21 21:33:00,
2013-03-21 17:34:00,65.7,21.1,29.86,WNW,302,15.0,18.0,18,0.00,,---,0.00,492.00,VWS V14.00,2013-03-21 21:34:00,
2013-03-21 17:35:00,65.7,21.1,29.86,WNW,292,13.0,18.0,18,0.00,,---,0.00,432.00,VWS V14.00,2013-03-21 21:35:00,
2013-03-21 17:36:00,65.6,22.3,29.86,West,272,15.0,18.0,19,0.00,,---,0.00,350.00,VWS V14.00,2013-03-21 21:36:00,
2013-03-21 17:37:00,65.6,19.6,29.86,WNW,289,9.0,18.0,17,0.00,,---,0.00,345.00,VWS V14.00,2013-03-21 21:37:00,
2013-03-21 17:38:00,65.6,23.5,29.86,WNW,291,10.0,18.0,20,0.00,,---,0.00,371.00,VWS V14.00,2013-03-21 21:38:00,
2013-03-21 17:39:00,65.6,22.3,29.86,NW,304,11.0,18.0,19,0.00,,---,0.00,371.00,VWS V14.00,2013-03-21 21:39:00,
2013-03-21 17:40:00,65.6,21.0,29.86,NW,310,14.0,18.0,18,0.00,,---,0.00,339.00,VWS V14.00,2013-03-21 21:40:00,
2013-03-21 17:41:00,65.5,23.4,29.86,NW,320,10.0,18.0,20,0.00,,---,0.00,339.00,VWS V14.00,2013-03-21 21:41:00,
2013-03-21 17:42:00,65.5,22.2,29.86,NW,308,8.0,18.0,19,0.00,,---,0.00,378.00,VWS V14.00,2013-03-21 21:42:00,
2013-03-21 17:43:00,65.5,23.4,29.86,NW,310,13.0,18.0,20,0.00,,---,0.00,459.00,VWS V14.00,2013-03-21 21:43:00,
2013-03-21 17:44:00,65.5,23.4,29.86,NW,308,8.0,18.0,20,0.00,,---,0.00,455.00,VWS V14.00,2013-03-21 21:44:00,
2013-03-21 17:45:00,65.5,22.2,29.86,WNW,292,11.0,18.0,19,0.00,,---,0.00,397.00,VWS V14.00,2013-03-21 21:45:00,
2013-03-21 17:46:00,65.5,24.6,29.86,NW,318,5.0,18.0,21,0.00,,---,0.00,388.00,VWS V14.00,2013-03-21 21:46:00,
2013-03-21 17:47:00,65.6,23.5,29.86,WNW,289,12.0,18.0,20,0.00,,---,0.00,404.00,VWS V14.00,2013-03-21 21:47:00,
2013-03-21 17:48:00,65.6,24.6,29.86,West,281,10.0,18.0,21,0.00,,---,0.00,401.00,VWS V14.00,2013-03-21 21:48:00,
2013-03-21 17:49:00,65.6,22.3,29.86,WNW,303,7.0,18.0,19,0.00,,---,0.00,329.00,VWS V14.00,2013-03-21 21:49:00,
2013-03-21 17:50:00,65.6,22.3,29.86,WNW,289,11.0,18.0,19,0.00,,---,0.00,380.00,VWS V14.00,2013-03-21 21:50:00,
2013-03-21 17:51:00,65.6,23.5,29.86,WNW,299,4.0,18.0,20,0.00,,---,0.00,381.00,VWS V14.00,2013-03-21 21:51:00,
2013-03-21 17:52:00,65.6,22.3,29.86,WNW,295,8.0,18.0,19,0.00,,---,0.00,366.00,VWS V14.00,2013-03-21 21:52:00,
2013-03-21 17:53:00,65.7,21.1,29.86,NW,326,16.0,18.0,18,0.00,,---,0.00,323.00,VWS V14.00,2013-03-21 21:53:00,
2013-03-21 17:54:00,65.8,21.1,29.86,WNW,301,14.0,18.0,18,0.00,,---,0.00,357.00,VWS V14.00,2013-03-21 21:54:00,
2013-03-21 17:55:00,65.7,22.3,29.86,WNW,303,5.0,18.0,19,0.00,,---,0.00,373.00,VWS V14.00,2013-03-21 21:55:00,
2013-03-21 17:56:00,65.7,21.1,29.86,West,274,8.0,18.0,18,0.00,,---,0.00,373.00,VWS V14.00,2013-03-21 21:56:00,
2013-03-21 17:57:00,65.7,23.6,29.86,WNW,293,14.0,18.0,20,0.00,,---,0.00,373.00,VWS V14.00,2013-03-21 21:57:00,
2013-03-21 17:58:00,65.7,23.6,29.86,West,280,7.0,18.0,20,0.00,,---,0.00,366.00,VWS V14.00,2013-03-21 21:58:00,
2013-03-21 17:59:00,65.7,22.3,29.86,WSW,258,8.0,18.0,19,0.00,,---,0.00,345.00,VWS V14.00,2013-03-21 21:59:00,
2013-03-21 18:00:00,65.7,22.3,29.86,West,274,5.0,18.0,19,0.00,,---,0.00,355.00,VWS V14.00,2013-03-21 22:00:00,
2013-03-21 18:01:00,65.7,22.3,29.86,WNW,292,2.0,5.0,19,0.00,,---,0.00,352.00,VWS V14.00,2013-03-21 22:01:00,
2013-03-21 18:02:00,65.8,25.9,29.86,WNW,301,3.0,5.0,22,0.00,,---,0.00,341.00,VWS V14.00,2013-03-21 22:02:00,
2013-03-21 18:03:00,65.9,24.9,29.86,WNW,297,2.0,5.0,21,0.00,,---,0.00,336.00,VWS V14.00,2013-03-21 22:03:00,
2013-03-21 18:04:00,66.0,23.8,29.86,WNW,291,9.0,14.0,20,0.00,,---,0.00,323.00,VWS V14.00,2013-03-21 22:04:00,
2013-03-21 18:05:00,66.0,22.6,29.86,WNW,301,10.0,14.0,19,0.00,,---,0.00,274.00,VWS V14.00,2013-03-21 22:05:00,
2013-03-21 18:06:00,66.0,22.6,29.86,NW,304,7.0,15.0,19,0.00,,---,0.00,285.00,VWS V14.00,2013-03-21 22:06:00,
2013-03-21 18:07:00,66.0,23.8,29.87,WNW,289,9.0,15.0,20,0.00,,---,0.00,304.00,VWS V14.00,2013-03-21 22:07:00,
2013-03-21 18:08:00,65.9,22.5,29.86,WNW,291,11.0,15.0,19,0.00,,---,0.00,299.00,VWS V14.00,2013-03-21 22:08:00,
2013-03-21 18:09:00,65.9,21.2,29.86,WNW,298,8.0,16.0,18,0.00,,---,0.00,294.00,VWS V14.00,2013-03-21 22:09:00,
2013-03-21 18:10:00,65.8,23.6,29.86,WNW,299,12.0,16.0,20,0.00,,---,0.00,288.00,VWS V14.00,2013-03-21 22:10:00,
2013-03-21 18:11:00,65.8,23.6,29.86,NW,314,4.0,16.0,20,0.00,,---,0.00,269.00,VWS V14.00,2013-03-21 22:11:00,
2013-03-21 18:12:00,65.8,24.8,29.86,WNW,301,7.0,16.0,21,0.00,,---,0.00,265.00,VWS V14.00,2013-03-21 22:12:00,
2013-03-21 18:13:00,65.8,22.4,29.86,WNW,291,5.0,16.0,19,0.00,,---,0.00,274.00,VWS V14.00,2013-03-21 22:13:00,
2013-03-21 18:14:00,65.9,22.5,29.86,West,274,7.0,16.0,19,0.00,,---,0.00,269.00,VWS V14.00,2013-03-21 22:14:00,
2013-03-21 18:15:00,65.9,22.5,29.87,WNW,285,8.0,16.0,19,0.00,,---,0.00,265.00,VWS V14.00,2013-03-21 22:15:00,
2013-03-21 18:16:00,65.9,24.9,29.87,WNW,286,12.0,16.0,21,0.00,,---,0.00,255.00,VWS V14.00,2013-03-21 22:16:00,
2013-03-21 18:17:00,65.9,23.7,29.87,WNW,299,5.0,16.0,20,0.00,,---,0.00,251.00,VWS V14.00,2013-03-21 22:17:00,
2013-03-21 18:18:00,65.9,22.5,29.87,West,280,6.0,16.0,19,0.00,,---,0.00,248.00,VWS V14.00,2013-03-21 22:18:00,
2013-03-21 18:19:00,65.9,24.9,29.87,West,278,6.0,16.0,21,0.00,,---,0.00,244.00,VWS V14.00,2013-03-21 22:19:00,
2013-03-21 18:20:00,65.9,22.5,29.87,WNW,296,9.0,16.0,19,0.00,,---,0.00,239.00,VWS V14.00,2013-03-21 22:20:00,
2013-03-21 18:21:00,65.9,24.9,29.87,WNW,290,5.0,16.0,21,0.00,,---,0.00,234.00,VWS V14.00,2013-03-21 22:21:00,
2013-03-21 18:22:00,65.9,23.7,29.87,WNW,283,3.0,16.0,20,0.00,,---,0.00,227.00,VWS V14.00,2013-03-21 22:22:00,
2013-03-21 18:23:00,65.9,26.0,29.87,NW,319,5.0,16.0,22,0.00,,---,0.00,221.00,VWS V14.00,2013-03-21 22:23:00,
2013-03-21 18:24:00,65.9,26.0,29.87,NW,322,7.0,16.0,22,0.00,,---,0.00,221.00,VWS V14.00,2013-03-21 22:24:00,
2013-03-21 18:25:00,65.9,26.0,29.87,NW,318,9.0,16.0,22,0.00,,---,0.00,221.00,VWS V14.00,2013-03-21 22:25:00,
2013-03-21 18:26:00,65.9,27.1,29.86,NW,320,9.0,16.0,23,0.00,,---,0.00,209.00,VWS V14.00,2013-03-21 22:26:00,
2013-03-21 18:27:00,65.9,26.0,29.87,NW,315,8.0,16.0,22,0.00,,---,0.00,206.00,VWS V14.00,2013-03-21 22:27:00,
2013-03-21 18:28:00,65.8,25.9,29.87,NW,322,10.0,16.0,22,0.00,,---,0.00,171.00,VWS V14.00,2013-03-21 22:28:00,
2013-03-21 18:29:00,65.7,25.8,29.87,NW,326,7.0,16.0,22,0.00,,---,0.00,179.00,VWS V14.00,2013-03-21 22:29:00,
2013-03-21 18:30:00,65.7,24.7,29.87,NW,309,6.0,16.0,21,0.00,,---,0.00,188.00,VWS V14.00,2013-03-21 22:30:00,
2013-03-21 18:31:00,65.7,25.8,29.87,WNW,299,5.0,10.0,22,0.00,,---,0.00,174.00,VWS V14.00,2013-03-21 22:31:00,
2013-03-21 18:32:00,65.7,25.8,29.87,NW,316,10.0,10.0,22,0.00,,---,0.00,172.00,VWS V14.00,2013-03-21 22:32:00,
2013-03-21 18:33:00,65.7,23.6,29.87,WNW,284,8.0,10.0,20,0.00,,---,0.00,174.00,VWS V14.00,2013-03-21 22:33:00,
2013-03-21 18:34:00,65.7,24.7,29.87,WNW,293,7.0,10.0,21,0.00,,---,0.00,167.00,VWS V14.00,2013-03-21 22:34:00,
2013-03-21 18:35:00,65.7,24.7,29.87,NW,308,7.0,10.0,21,0.00,,---,0.00,162.00,VWS V14.00,2013-03-21 22:35:00,
2013-03-21 18:36:00,65.7,25.8,29.87,WNW,302,13.0,13.0,22,0.00,,---,0.00,158.00,VWS V14.00,2013-03-21 22:36:00,
2013-03-21 18:37:00,65.7,24.7,29.87,West,266,11.0,13.0,21,0.00,,---,0.00,155.00,VWS V14.00,2013-03-21 22:37:00,
2013-03-21 18:38:00,65.6,24.6,29.87,NW,309,10.0,13.0,21,0.00,,---,0.00,151.00,VWS V14.00,2013-03-21 22:38:00,
2013-03-21 18:39:00,65.5,23.4,29.88,NNW,330,12.0,13.0,20,0.00,,---,0.00,142.00,VWS V14.00,2013-03-21 22:39:00,
2013-03-21 18:40:00,65.5,23.4,29.88,West,273,5.0,13.0,20,0.00,,---,0.00,139.00,VWS V14.00,2013-03-21 22:40:00,
2013-03-21 18:41:00,65.4,26.7,29.88,West,281,9.0,13.0,23,0.00,,---,0.00,134.00,VWS V14.00,2013-03-21 22:41:00,
2013-03-21 18:42:00,65.4,26.7,29.88,NW,304,6.0,13.0,23,0.00,,---,0.00,130.00,VWS V14.00,2013-03-21 22:42:00,
2013-03-21 18:43:00,65.4,25.6,29.88,NW,324,5.0,13.0,22,0.00,,---,0.00,127.00,VWS V14.00,2013-03-21 22:43:00,
2013-03-21 18:44:00,65.4,26.7,29.88,NNW,330,7.0,13.0,23,0.00,,---,0.00,121.00,VWS V14.00,2013-03-21 22:44:00,
2013-03-21 18:45:00,65.4,24.5,29.88,NW,318,7.0,13.0,21,0.00,,---,0.00,114.00,VWS V14.00,2013-03-21 22:45:00,
2013-03-21 18:46:00,65.4,25.6,29.88,WNW,303,7.0,13.0,22,0.00,,---,0.00,111.00,VWS V14.00,2013-03-21 22:46:00,
2013-03-21 18:47:00,65.4,26.7,29.88,WNW,286,10.0,13.0,23,0.00,,---,0.00,105.00,VWS V14.00,2013-03-21 22:47:00,
2013-03-21 18:48:00,65.3,25.5,29.88,NW,315,6.0,13.0,22,0.00,,---,0.00,100.00,VWS V14.00,2013-03-21 22:48:00,
2013-03-21 18:49:00,65.2,26.5,29.88,NW,317,10.0,13.0,23,0.00,,---,0.00,97.00,VWS V14.00,2013-03-21 22:49:00,
2013-03-21 18:50:00,65.1,26.4,29.88,NW,318,8.0,13.0,23,0.00,,---,0.00,95.00,VWS V14.00,2013-03-21 22:50:00,
2013-03-21 18:51:00,65.0,26.3,29.88,WNW,299,9.0,13.0,23,0.00,,---,0.00,84.00,VWS V14.00,2013-03-21 22:51:00,
2013-03-21 18:52:00,64.9,25.2,29.88,NW,320,8.0,13.0,22,0.00,,---,0.00,77.00,VWS V14.00,2013-03-21 22:52:00,
2013-03-21 18:53:00,64.8,26.2,29.88,NW,315,10.0,13.0,23,0.00,,---,0.00,79.00,VWS V14.00,2013-03-21 22:53:00,
2013-03-21 18:54:00,64.7,28.1,29.88,NW,320,8.0,13.0,25,0.00,,---,0.00,76.00,VWS V14.00,2013-03-21 22:54:00,
2013-03-21 18:55:00,64.7,30.0,29.88,NNW,336,13.0,13.0,27,0.00,,---,0.00,74.00,VWS V14.00,2013-03-21 22:55:00,
2013-03-21 18:56:00,64.6,29.9,29.89,NW,318,6.0,14.0,27,0.00,,---,0.00,63.00,VWS V14.00,2013-03-21 22:56:00,
2013-03-21 18:57:00,64.5,28.9,29.89,NW,324,11.0,14.0,26,0.00,,---,0.00,60.00,VWS V14.00,2013-03-21 22:57:00,
2013-03-21 18:58:00,64.4,28.8,29.89,NW,308,11.0,16.0,26,0.00,,---,0.00,58.00,VWS V14.00,2013-03-21 22:58:00,
2013-03-21 18:59:00,64.3,28.7,29.88,NW,322,11.0,16.0,26,0.00,,---,0.00,56.00,VWS V14.00,2013-03-21 22:59:00,
2013-03-21 19:00:00,64.2,28.6,29.88,WNW,303,13.0,16.0,26,0.00,,---,0.00,42.00,VWS V14.00,2013-03-21 23:00:00,
2013-03-21 19:01:00,64.1,25.6,29.88,NNW,330,10.0,13.0,23,0.00,,---,0.00,39.00,VWS V14.00,2013-03-21 23:01:00,
2013-03-21 19:02:00,64.0,26.5,29.88,NW,322,12.0,13.0,24,0.00,,---,0.00,44.00,VWS V14.00,2013-03-21 23:02:00,
2013-03-21 19:03:00,63.9,28.4,29.88,NNW,328,12.0,13.0,26,0.00,,---,0.00,32.00,VWS V14.00,2013-03-21 23:03:00,
2013-03-21 19:04:00,63.9,28.4,29.88,WNW,296,7.0,13.0,26,0.00,,---,0.00,35.00,VWS V14.00,2013-03-21 23:04:00,
2013-03-21 19:05:00,63.8,28.3,29.88,West,279,2.0,13.0,26,0.00,,---,0.00,35.00,VWS V14.00,2013-03-21 23:05:00,
2013-03-21 19:06:00,63.8,28.3,29.88,NW,326,9.0,13.0,26,0.00,,---,0.00,33.00,VWS V14.00,2013-03-21 23:06:00,
2013-03-21 19:07:00,63.7,29.1,29.89,NW,320,8.0,13.0,27,0.00,,---,0.00,33.00,VWS V14.00,2013-03-21 23:07:00,
2013-03-21 19:08:00,63.7,28.2,29.89,NW,314,8.0,13.0,26,0.00,,---,0.00,32.00,VWS V14.00,2013-03-21 23:08:00,
2013-03-21 19:09:00,63.6,28.1,29.89,NNW,334,6.0,13.0,26,0.00,,---,0.00,23.00,VWS V14.00,2013-03-21 23:09:00,
2013-03-21 19:10:00,63.5,28.0,29.89,NW,315,3.0,13.0,26,0.00,,---,0.00,21.00,VWS V14.00,2013-03-21 23:10:00,
2013-03-21 19:11:00,63.5,29.0,29.89,NW,313,7.0,13.0,27,0.00,,---,0.00,21.00,VWS V14.00,2013-03-21 23:11:00,
2013-03-21 19:12:00,63.4,27.9,29.89,NW,311,6.0,13.0,26,0.00,,---,0.00,18.00,VWS V14.00,2013-03-21 23:12:00,
2013-03-21 19:13:00,63.3,26.9,29.88,WNW,298,5.0,13.0,25,0.00,,---,0.00,18.00,VWS V14.00,2013-03-21 23:13:00,
2013-03-21 19:14:00,63.2,26.8,29.89,NW,326,6.0,13.0,25,0.00,,---,0.00,16.00,VWS V14.00,2013-03-21 23:14:00,
2013-03-21 19:15:00,63.2,29.6,29.89,WNW,302,7.0,13.0,28,0.00,,---,0.00,16.00,VWS V14.00,2013-03-21 23:15:00,
2013-03-21 19:16:00,63.1,26.7,29.88,NW,318,6.0,13.0,25,0.00,,---,0.00,14.00,VWS V14.00,2013-03-21 23:16:00,
2013-03-21 19:17:00,63.0,26.6,29.88,WNW,299,4.0,13.0,25,0.00,,---,0.00,14.00,VWS V14.00,2013-03-21 23:17:00,
2013-03-21 19:18:00,63.0,26.6,29.89,NNW,330,5.0,13.0,25,0.00,,---,0.00,12.00,VWS V14.00,2013-03-21 23:18:00,
2013-03-21 19:19:00,62.9,28.4,29.88,NW,310,5.0,13.0,27,0.00,,---,0.00,12.00,VWS V14.00,2013-03-21 23:19:00,
2013-03-21 19:20:00,62.8,28.4,29.88,NW,317,7.0,13.0,27,0.00,,---,0.00,11.00,VWS V14.00,2013-03-21 23:20:00,
2013-03-21 19:21:00,62.8,26.5,29.88,NW,309,5.0,13.0,25,0.00,,---,0.00,9.00,VWS V14.00,2013-03-21 23:21:00,
2013-03-21 19:22:00,62.7,27.4,29.88,NW,321,9.0,13.0,26,0.00,,---,0.00,7.00,VWS V14.00,2013-03-21 23:22:00,
2013-03-21 19:23:00,62.7,25.4,29.88,WNW,297,5.0,13.0,24,0.00,,---,0.00,7.00,VWS V14.00,2013-03-21 23:23:00,
2013-03-21 19:24:00,62.6,25.3,29.88,WNW,303,5.0,13.0,24,0.00,,---,0.00,5.00,VWS V14.00,2013-03-21 23:24:00,
2013-03-21 19:25:00,62.6,26.3,29.88,NW,314,6.0,13.0,25,0.00,,---,0.00,5.00,VWS V14.00,2013-03-21 23:25:00,
2013-03-21 19:26:00,62.6,27.3,29.88,NW,310,4.0,13.0,26,0.00,,---,0.00,5.00,VWS V14.00,2013-03-21 23:26:00,
2013-03-21 19:27:00,62.5,27.2,29.88,WNW,301,4.0,13.0,26,0.00,,---,0.00,0.00,VWS V14.00,2013-03-21 23:27:00,
2013-03-21 19:28:00,62.5,28.1,29.88,WNW,301,3.0,13.0,27,0.00,,---,0.00,0.00,VWS V14.00,2013-03-21 23:28:00,
2013-03-21 19:29:00,62.4,26.1,29.88,WNW,299,2.0,13.0,25,0.00,,---,0.00,0.00,VWS V14.00,2013-03-21 23:29:00,
2013-03-21 19:30:00,62.4,26.1,29.88,NW,307,3.0,13.0,25,0.00,,---,0.00,0.00,VWS V14.00,2013-03-21 23:30:00,
2013-03-21 19:31:00,62.3,28.8,29.88,NW,306,4.0,4.0,28,0.00,,---,0.00,0.00,VWS V14.00,2013-03-21 23:31:00,
2013-03-21 19:32:00,62.3,28.8,29.88,WNW,295,4.0,5.0,28,0.00,,---,0.00,0.00,VWS V14.00,2013-03-21 23:32:00,
2013-03-21 19:33:00,62.2,26.0,29.88,WNW,296,5.0,7.0,25,0.00,,---,0.00,0.00,VWS V14.00,2013-03-21 23:33:00,
2013-03-21 19:34:00,62.2,27.8,29.88,WNW,299,4.0,7.0,27,0.00,,---,0.00,0.00,VWS V14.00,2013-03-21 23:34:00,
2013-03-21 19:35:00,62.2,29.6,29.88,WNW,297,3.0,7.0,29,0.00,,---,0.00,0.00,VWS V14.00,2013-03-21 23:35:00,
2013-03-21 19:36:00,62.1,27.8,29.88,WNW,297,4.0,7.0,27,0.00,,---,0.00,0.00,VWS V14.00,2013-03-21 23:36:00,
2013-03-21 19:37:00,62.1,28.6,29.89,WNW,297,3.0,7.0,28,0.00,,---,0.00,0.00,VWS V14.00,2013-03-21 23:37:00,
2013-03-21 19:38:00,62.0,27.7,29.89,WNW,297,2.0,7.0,27,0.00,,---,0.00,0.00,VWS V14.00,2013-03-21 23:38:00,
2013-03-21 19:39:00,62.0,26.8,29.89,WNW,297,2.0,7.0,26,0.00,,---,0.00,0.00,VWS V14.00,2013-03-21 23:39:00,
2013-03-21 19:40:00,62.0,26.8,29.89,WNW,297,2.0,7.0,26,0.00,,---,0.00,0.00,VWS V14.00,2013-03-21 23:40:00,
2013-03-21 19:41:00,61.9,26.7,29.89,WNW,297,2.0,7.0,26,0.00,,---,0.00,0.00,VWS V14.00,2013-03-21 23:41:00,
2013-03-21 19:42:00,61.9,28.5,29.89,WNW,297,2.0,7.0,28,0.00,,---,0.00,0.00,VWS V14.00,2013-03-21 23:42:00,
2013-03-21 19:43:00,61.8,28.4,29.89,WNW,297,3.0,7.0,28,0.00,,---,0.00,0.00,VWS V14.00,2013-03-21 23:43:00,
2013-03-21 19:44:00,61.8,29.2,29.89,WNW,299,2.0,7.0,29,0.00,,---,0.00,0.00,VWS V14.00,2013-03-21 23:44:00,
2013-03-21 19:45:00,61.7,29.1,29.89,WNW,299,4.0,7.0,29,0.00,,---,0.00,0.00,VWS V14.00,2013-03-21 23:45:00,
2013-03-21 19:46:00,61.7,28.3,29.89,WNW,298,2.0,7.0,28,0.00,,---,0.00,0.00,VWS V14.00,2013-03-21 23:46:00,
2013-03-21 19:47:00,61.6,28.2,29.90,WNW,298,3.0,7.0,28,0.00,,---,0.00,0.00,VWS V14.00,2013-03-21 23:47:00,
2013-03-21 19:48:00,61.6,27.3,29.90,WNW,298,1.0,7.0,27,0.00,,---,0.00,0.00,VWS V14.00,2013-03-21 23:48:00,
2013-03-21 19:49:00,61.5,27.2,29.90,WNW,298,3.0,7.0,27,0.00,,---,0.00,0.00,VWS V14.00,2013-03-21 23:49:00,
2013-03-21 19:50:00,61.4,27.1,29.90,WNW,297,3.0,7.0,27,0.00,,---,0.00,0.00,VWS V14.00,2013-03-21 23:50:00,
2013-03-21 19:51:00,61.4,27.1,29.90,WNW,297,3.0,7.0,27,0.00,,---,0.00,0.00,VWS V14.00,2013-03-21 23:51:00,
2013-03-21 19:52:00,61.3,27.1,29.90,WNW,298,2.0,7.0,27,0.00,,---,0.00,0.00,VWS V14.00,2013-03-21 23:52:00,
2013-03-21 19:53:00,61.3,27.1,29.90,WNW,297,2.0,7.0,27,0.00,,---,0.00,0.00,VWS V14.00,2013-03-21 23:53:00,
2013-03-21 19:54:00,61.3,29.6,29.90,WNW,297,3.0,7.0,30,0.00,,---,0.00,0.00,VWS V14.00,2013-03-21 23:54:00,
2013-03-21 19:55:00,61.2,27.9,29.90,WNW,296,3.0,7.0,28,0.00,,---,0.00,0.00,VWS V14.00,2013-03-21 23:55:00,
2013-03-21 19:56:00,61.2,27.9,29.90,WNW,296,4.0,7.0,28,0.00,,---,0.00,0.00,VWS V14.00,2013-03-21 23:56:00,
2013-03-21 19:57:00,61.1,28.6,29.90,WNW,296,1.0,7.0,29,0.00,,---,0.00,0.00,VWS V14.00,2013-03-21 23:57:00,
2013-03-21 19:58:00,61.1,28.6,29.90,WNW,296,3.0,7.0,29,0.00,,---,0.00,0.00,VWS V14.00,2013-03-21 23:58:00,
2013-03-21 19:59:00,61.0,28.5,29.90,WNW,298,4.0,7.0,29,0.00,,---,0.00,0.00,VWS V14.00,2013-03-21 23:59:00,
2013-03-21 20:00:00,61.0,27.7,29.90,WNW,298,2.0,7.0,28,0.00,,---,0.00,0.00,VWS V14.00,2013-03-22 00:00:00,
2013-03-21 20:01:00,60.9,27.6,29.90,WNW,298,3.0,4.0,28,0.00,,---,0.00,0.00,VWS V14.00,2013-03-22 00:01:00,
2013-03-21 20:02:00,60.9,27.6,29.90,WNW,297,1.0,4.0,28,0.00,,---,0.00,0.00,VWS V14.00,2013-03-22 00:02:00,
2013-03-21 20:03:00,60.9,28.5,29.90,WNW,297,3.0,4.0,29,0.00,,---,0.00,0.00,VWS V14.00,2013-03-22 00:03:00,
2013-03-21 20:04:00,60.8,27.5,29.90,WNW,297,2.0,4.0,28,0.00,,---,0.00,0.00,VWS V14.00,2013-03-22 00:04:00,
2013-03-21 20:05:00,60.8,28.4,29.90,WNW,297,2.0,4.0,29,0.00,,---,0.00,0.00,VWS V14.00,2013-03-22 00:05:00,
2013-03-21 20:06:00,60.8,29.2,29.90,WNW,302,3.0,5.0,30,0.00,,---,0.00,0.00,VWS V14.00,2013-03-22 00:06:00,
2013-03-21 20:07:00,60.7,29.1,29.90,WNW,302,2.0,5.0,30,0.00,,---,0.00,0.00,VWS V14.00,2013-03-22 00:07:00,
2013-03-21 20:08:00,60.7,27.4,29.90,WNW,301,4.0,5.0,28,0.00,,---,0.00,0.00,VWS V14.00,2013-03-22 00:08:00,
2013-03-21 20:09:00,60.6,27.3,29.90,WNW,301,3.0,5.0,28,0.00,,---,0.00,0.00,VWS V14.00,2013-03-22 00:09:00,
2013-03-21 20:10:00,60.6,28.2,29.90,WNW,301,3.0,5.0,29,0.00,,---,0.00,0.00,VWS V14.00,2013-03-22 00:10:00,
2013-03-21 20:11:00,60.6,29.8,29.90,WNW,301,3.0,5.0,31,0.00,,---,0.00,0.00,VWS V14.00,2013-03-22 00:11:00,
2013-03-21 20:12:00,60.5,27.3,29.90,WNW,301,1.0,7.0,28,0.00,,---,0.00,0.00,VWS V14.00,2013-03-22 00:12:00,
2013-03-21 20:13:00,60.5,28.1,29.89,WNW,301,2.0,7.0,29,0.00,,---,0.00,0.00,VWS V14.00,2013-03-22 00:13:00,
2013-03-21 20:14:00,60.4,28.0,29.89,WNW,301,2.0,7.0,29,0.00,,---,0.00,0.00,VWS V14.00,2013-03-22 00:14:00,
2013-03-21 20:15:00,60.4,28.0,29.90,WNW,301,2.0,7.0,29,0.00,,---,0.00,0.00,VWS V14.00,2013-03-22 00:15:00,
2013-03-21 20:16:00,60.4,28.9,29.89,WNW,301,3.0,7.0,30,0.00,,---,0.00,0.00,VWS V14.00,2013-03-22 00:16:00,
2013-03-21 20:17:00,60.3,27.9,29.90,WNW,298,3.0,7.0,29,0.00,,---,0.00,0.00,VWS V14.00,2013-03-22 00:17:00,
2013-03-21 20:18:00,60.3,27.9,29.90,WNW,298,2.0,7.0,29,0.00,,---,0.00,0.00,VWS V14.00,2013-03-22 00:18:00,
2013-03-21 20:19:00,60.3,27.9,29.90,WNW,298,2.0,7.0,29,0.00,,---,0.00,0.00,VWS V14.00,2013-03-22 00:19:00,
2013-03-21 20:20:00,60.3,29.6,29.90,WNW,298,3.0,7.0,31,0.00,,---,0.00,0.00,VWS V14.00,2013-03-22 00:20:00,
2013-03-21 20:21:00,60.2,29.5,29.90,WNW,298,2.0,7.0,31,0.00,,---,0.00,0.00,VWS V14.00,2013-03-22 00:21:00,
2013-03-21 20:22:00,60.2,29.5,29.90,WNW,298,2.0,7.0,31,0.00,,---,0.00,0.00,VWS V14.00,2013-03-22 00:22:00,
2013-03-21 20:23:00,60.2,28.7,29.90,WNW,298,3.0,7.0,30,0.00,,---,0.00,0.00,VWS V14.00,2013-03-22 00:23:00,
2013-03-21 20:24:00,60.1,28.6,29.90,WNW,298,4.0,7.0,30,0.00,,---,0.00,0.00,VWS V14.00,2013-03-22 00:24:00,
2013-03-21 20:25:00,60.1,27.8,29.90,WNW,298,2.0,7.0,29,0.00,,---,0.00,0.00,VWS V14.00,2013-03-22 00:25:00,
2013-03-21 20:26:00,60.0,29.3,29.90,WNW,297,3.0,7.0,31,0.00,,---,0.00,0.00,VWS V14.00,2013-03-22 00:26:00,
2013-03-21 20:27:00,60.0,29.3,29.90,WNW,297,2.0,7.0,31,0.00,,---,0.00,0.00,VWS V14.00,2013-03-22 00:27:00,
2013-03-21 20:28:00,60.0,27.7,29.90,WNW,297,3.0,7.0,29,0.00,,---,0.00,0.00,VWS V14.00,2013-03-22 00:28:00,
2013-03-21 20:29:00,59.9,27.6,29.90,WNW,296,2.0,7.0,29,0.00,,---,0.00,0.00,VWS V14.00,2013-03-22 00:29:00,
2013-03-21 20:30:00,59.9,27.6,29.90,WNW,296,3.0,7.0,29,0.00,,---,0.00,0.00,VWS V14.00,2013-03-22 00:30:00,
2013-03-21 20:31:00,59.9,27.6,29.90,WNW,297,2.0,5.0,29,0.00,,---,0.00,0.00,VWS V14.00,2013-03-22 00:31:00,
2013-03-21 20:32:00,59.8,29.1,29.91,WNW,297,2.0,5.0,31,0.00,,---,0.00,0.00,VWS V14.00,2013-03-22 00:32:00,
2013-03-21 20:33:00,59.8,28.3,29.91,WNW,295,2.0,5.0,30,0.00,,---,0.00,0.00,VWS V14.00,2013-03-22 00:33:00,
2013-03-21 20:34:00,59.8,28.3,29.91,WNW,295,3.0,5.0,30,0.00,,---,0.00,0.00,VWS V14.00,2013-03-22 00:34:00,
2013-03-21 20:35:00,59.7,27.4,29.91,WNW,294,3.0,5.0,29,0.00,,---,0.00,0.00,VWS V14.00,2013-03-22 00:35:00,
2013-03-21 20:36:00,59.7,28.2,29.90,WNW,294,2.0,5.0,30,0.00,,---,0.00,0.00,VWS V14.00,2013-03-22 00:36:00,
2013-03-21 20:37:00,59.7,29.0,29.90,WNW,294,2.0,5.0,31,0.00,,---,0.00,0.00,VWS V14.00,2013-03-22 00:37:00,
2013-03-21 20:38:00,59.6,28.1,29.91,WNW,293,3.0,5.0,30,0.00,,---,0.00,0.00,VWS V14.00,2013-03-22 00:38:00,
2013-03-21 20:39:00,59.6,27.3,29.90,WNW,293,3.0,5.0,29,0.00,,---,0.00,0.00,VWS V14.00,2013-03-22 00:39:00,
2013-03-21 20:40:00,59.5,27.2,29.91,WNW,293,2.0,5.0,29,0.00,,---,0.00,0.00,VWS V14.00,2013-03-22 00:40:00,
2013-03-21 20:41:00,59.5,28.1,29.91,WNW,293,3.0,5.0,30,0.00,,---,0.00,0.00,VWS V14.00,2013-03-22 00:41:00,
2013-03-21 20:42:00,59.4,28.0,29.91,WNW,293,2.0,5.0,30,0.00,,---,0.00,0.00,VWS V14.00,2013-03-22 00:42:00,
2013-03-21 20:43:00,59.4,28.0,29.91,WNW,293,2.0,5.0,30,0.00,,---,0.00,0.00,VWS V14.00,2013-03-22 00:43:00,
2013-03-21 20:44:00,59.3,28.7,29.91,WNW,293,3.0,5.0,31,0.00,,---,0.00,0.00,VWS V14.00,2013-03-22 00:44:00,
2013-03-21 20:45:00,59.3,27.9,29.91,WNW,293,4.0,5.0,30,0.00,,---,0.00,0.00,VWS V14.00,2013-03-22 00:45:00,
2013-03-21 20:46:00,59.3,29.5,29.91,WNW,293,3.0,5.0,32,0.00,,---,0.00,0.00,VWS V14.00,2013-03-22 00:46:00,
2013-03-21 20:47:00,59.2,27.8,29.91,WNW,293,3.0,5.0,30,0.00,,---,0.00,0.00,VWS V14.00,2013-03-22 00:47:00,
2013-03-21 20:48:00,59.2,27.8,29.91,WNW,293,2.0,5.0,30,0.00,,---,0.00,0.00,VWS V14.00,2013-03-22 00:48:00,
2013-03-21 20:49:00,59.2,28.6,29.91,WNW,294,2.0,5.0,31,0.00,,---,0.00,0.00,VWS V14.00,2013-03-22 00:49:00,
2013-03-21 20:50:00,59.1,28.5,29.91,WNW,293,2.0,5.0,31,0.00,,---,0.00,0.00,VWS V14.00,2013-03-22 00:50:00,
2013-03-21 20:51:00,59.1,28.5,29.91,WNW,293,3.0,5.0,31,0.00,,---,0.00,0.00,VWS V14.00,2013-03-22 00:51:00,
2013-03-21 20:52:00,59.0,29.2,29.91,WNW,293,3.0,5.0,32,0.00,,---,0.00,0.00,VWS V14.00,2013-03-22 00:52:00,
2013-03-21 20:53:00,59.0,29.2,29.91,WNW,293,2.0,5.0,32,0.00,,---,0.00,0.00,VWS V14.00,2013-03-22 00:53:00,
2013-03-21 20:54:00,59.0,27.6,29.91,WNW,293,1.0,5.0,30,0.00,,---,0.00,0.00,VWS V14.00,2013-03-22 00:54:00,
2013-03-21 20:55:00,58.9,29.1,29.91,WNW,293,3.0,5.0,32,0.00,,---,0.00,0.00,VWS V14.00,2013-03-22 00:55:00,
2013-03-21 20:56:00,58.9,28.3,29.91,WNW,293,1.0,5.0,31,0.00,,---,0.00,0.00,VWS V14.00,2013-03-22 00:56:00,
2013-03-21 20:57:00,58.8,27.5,29.91,WNW,293,2.0,5.0,30,0.00,,---,0.00,0.00,VWS V14.00,2013-03-22 00:57:00,
2013-03-21 20:58:00,58.8,28.3,29.91,WNW,293,2.0,5.0,31,0.00,,---,0.00,0.00,VWS V14.00,2013-03-22 00:58:00,
2013-03-21 20:59:00,58.7,28.9,29.91,WNW,293,3.0,5.0,32,0.00,,---,0.00,0.00,VWS V14.00,2013-03-22 00:59:00,
2013-03-21 21:00:00,58.7,27.4,29.91,WNW,293,2.0,5.0,30,0.00,,---,0.00,0.00,VWS V14.00,2013-03-22 01:00:00,
2013-03-21 21:01:00,58.7,27.4,29.91,WNW,293,1.0,3.0,30,0.00,,---,0.00,0.00,VWS V14.00,2013-03-22 01:01:00,
2013-03-21 21:02:00,58.6,28.9,29.91,WNW,293,2.0,3.0,32,0.00,,---,0.00,0.00,VWS V14.00,2013-03-22 01:02:00,
2013-03-21 21:03:00,58.6,28.9,29.91,WNW,293,1.0,3.0,32,0.00,,---,0.00,0.00,VWS V14.00,2013-03-22 01:03:00,
2013-03-21 21:04:00,58.6,27.3,29.91,WNW,293,1.0,3.0,30,0.00,,---,0.00,0.00,VWS V14.00,2013-03-22 01:04:00,
2013-03-21 21:05:00,58.5,28.8,29.91,WNW,293,2.0,3.0,32,0.00,,---,0.00,0.00,VWS V14.00,2013-03-22 01:05:00,
2013-03-21 21:06:00,58.5,28.8,29.91,WNW,296,1.0,5.0,32,0.00,,---,0.00,0.00,VWS V14.00,2013-03-22 01:06:00,
2013-03-21 21:07:00,58.5,28.8,29.91,WNW,296,2.0,5.0,32,0.00,,---,0.00,0.00,VWS V14.00,2013-03-22 01:07:00,
2013-03-21 21:08:00,58.4,29.4,29.91,WNW,296,1.0,5.0,33,0.00,,---,0.00,0.00,VWS V14.00,2013-03-22 01:08:00,
2013-03-21 21:09:00,58.4,28.7,29.91,WNW,296,1.0,5.0,32,0.00,,---,0.00,0.00,VWS V14.00,2013-03-22 01:09:00,
2013-03-21 21:10:00,58.4,28.7,29.91,WNW,296,0.0,5.0,32,0.00,,---,0.00,0.00,VWS V14.00,2013-03-22 01:10:00,
2013-03-21 21:11:00,58.3,28.6,29.91,WNW,296,0.0,5.0,32,0.00,,---,0.00,0.00,VWS V14.00,2013-03-22 01:11:00,
2013-03-21 21:12:00,58.3,30.8,29.91,WNW,296,0.0,5.0,35,0.00,,---,0.00,0.00,VWS V14.00,2013-03-22 01:12:00,
2013-03-21 21:13:00,58.3,30.1,29.91,WNW,296,0.0,5.0,34,0.00,,---,0.00,0.00,VWS V14.00,2013-03-22 01:13:00,
2013-03-21 21:14:00,58.2,30.0,29.91,WNW,296,0.0,5.0,34,0.00,,---,0.00,0.00,VWS V14.00,2013-03-22 01:14:00,
2013-03-21 21:15:00,58.2,29.3,29.91,WNW,296,0.0,5.0,33,0.00,,---,0.00,0.00,VWS V14.00,2013-03-22 01:15:00,
2013-03-21 21:16:00,58.1,29.9,29.91,WNW,296,0.0,5.0,34,0.00,,---,0.00,0.00,VWS V14.00,2013-03-22 01:16:00,
2013-03-21 21:17:00,58.1,29.2,29.91,WNW,296,0.0,5.0,33,0.00,,---,0.00,0.00,VWS V14.00,2013-03-22 01:17:00,
2013-03-21 21:18:00,58.1,28.4,29.91,WNW,296,0.0,5.0,32,0.00,,---,0.00,0.00,VWS V14.00,2013-03-22 01:18:00,
2013-03-21 21:19:00,58.0,30.5,29.91,WNW,296,0.0,5.0,35,0.00,,---,0.00,0.00,VWS V14.00,2013-03-22 01:19:00,
2013-03-21 21:20:00,58.0,28.3,29.91,WNW,296,0.0,5.0,32,0.00,,---,0.00,0.00,VWS V14.00,2013-03-22 01:20:00,
2013-03-21 21:21:00,58.0,28.3,29.91,WNW,296,1.0,5.0,32,0.00,,---,0.00,0.00,VWS V14.00,2013-03-22 01:21:00,
2013-03-21 21:22:00,57.9,29.7,29.91,WNW,296,2.0,5.0,34,0.00,,---,0.00,0.00,VWS V14.00,2013-03-22 01:22:00,
2013-03-21 21:23:00,57.9,29.7,29.91,WNW,296,1.0,5.0,34,0.00,,---,0.00,0.00,VWS V14.00,2013-03-22 01:23:00,
2013-03-21 21:24:00,57.8,28.2,29.91,WNW,296,2.0,5.0,32,0.00,,---,0.00,0.00,VWS V14.00,2013-03-22 01:24:00,
2013-03-21 21:25:00,57.8,29.6,29.91,WNW,296,2.0,5.0,34,0.00,,---,0.00,0.00,VWS V14.00,2013-03-22 01:25:00,
2013-03-21 21:26:00,57.8,31.0,29.91,WNW,296,1.0,5.0,36,0.00,,---,0.00,0.00,VWS V14.00,2013-03-22 01:26:00,
2013-03-21 21:27:00,57.8,29.6,29.92,WNW,296,2.0,5.0,34,0.00,,---,0.00,0.00,VWS V14.00,2013-03-22 01:27:00,
2013-03-21 21:28:00,57.7,31.0,29.92,WNW,296,2.0,5.0,36,0.00,,---,0.00,0.00,VWS V14.00,2013-03-22 01:28:00,
2013-03-21 21:29:00,57.7,32.3,29.92,WNW,296,2.0,5.0,38,0.00,,---,0.00,0.00,VWS V14.00,2013-03-22 01:29:00,
2013-03-21 21:30:00,57.6,29.5,29.91,WNW,296,1.0,5.0,34,0.00,,---,0.00,0.00,VWS V14.00,2013-03-22 01:30:00,
2013-03-21 21:31:00,57.6,30.2,29.92,WNW,296,2.0,3.0,35,0.00,,---,0.00,0.00,VWS V14.00,2013-03-22 01:31:00,
2013-03-21 21:32:00,57.5,30.8,29.92,WNW,296,2.0,3.0,36,0.00,,---,0.00,0.00,VWS V14.00,2013-03-22 01:32:00,
2013-03-21 21:33:00,57.5,30.1,29.92,WNW,296,2.0,3.0,35,0.00,,---,0.00,0.00,VWS V14.00,2013-03-22 01:33:00,
2013-03-21 21:34:00,57.4,29.3,29.92,WNW,296,3.0,3.0,34,0.00,,---,0.00,0.00,VWS V14.00,2013-03-22 01:34:00,
2013-03-21 21:35:00,57.4,29.3,29.92,WNW,296,1.0,3.0,34,0.00,,---,0.00,0.00,VWS V14.00,2013-03-22 01:35:00,
2013-03-21 21:36:00,57.3,29.2,29.92,WNW,296,1.0,3.0,34,0.00,,---,0.00,0.00,VWS V14.00,2013-03-22 01:36:00,
2013-03-21 21:37:00,57.3,31.3,29.92,WNW,296,1.0,3.0,37,0.00,,---,0.00,0.00,VWS V14.00,2013-03-22 01:37:00,
2013-03-21 21:38:00,57.2,31.2,29.92,WNW,296,1.0,3.0,37,0.00,,---,0.00,0.00,VWS V14.00,2013-03-22 01:38:00,
2013-03-21 21:39:00,57.2,33.7,29.92,WNW,296,1.0,3.0,41,0.00,,---,0.00,0.00,VWS V14.00,2013-03-22 01:39:00,
2013-03-21 21:40:00,57.1,33.6,29.92,WNW,296,0.0,3.0,41,0.00,,---,0.00,0.00,VWS V14.00,2013-03-22 01:40:00,
2013-03-21 21:41:00,57.0,34.8,29.92,WNW,296,0.0,3.0,43,0.00,,---,0.00,0.00,VWS V14.00,2013-03-22 01:41:00,
2013-03-21 21:42:00,56.9,35.2,29.92,WNW,296,0.0,3.0,44,0.00,,---,0.00,0.00,VWS V14.00,2013-03-22 01:42:00,
2013-03-21 21:43:00,56.7,35.0,29.92,WNW,296,0.0,3.0,44,0.00,,---,0.00,0.00,VWS V14.00,2013-03-22 01:43:00,
2013-03-21 21:44:00,56.6,35.0,29.92,WNW,296,0.0,3.0,44,0.00,,---,0.00,0.00,VWS V14.00,2013-03-22 01:44:00,
2013-03-21 21:45:00,56.4,35.3,29.92,WNW,296,0.0,3.0,45,0.00,,---,0.00,0.00,VWS V14.00,2013-03-22 01:45:00,
2013-03-21 21:46:00,56.3,35.2,29.92,WNW,296,0.0,3.0,45,0.00,,---,0.00,0.00,VWS V14.00,2013-03-22 01:46:00,
2013-03-21 21:47:00,56.2,35.7,29.92,WNW,296,0.0,3.0,46,0.00,,---,0.00,0.00,VWS V14.00,2013-03-22 01:47:00,
2013-03-21 21:48:00,56.0,35.5,29.92,WNW,296,0.0,3.0,46,0.00,,---,0.00,0.00,VWS V14.00,2013-03-22 01:48:00,
2013-03-21 21:49:00,55.8,35.3,29.92,WNW,296,0.0,3.0,46,0.00,,---,0.00,0.00,VWS V14.00,2013-03-22 01:49:00,
2013-03-21 21:50:00,55.7,35.8,29.92,WNW,296,0.0,3.0,47,0.00,,---,0.00,0.00,VWS V14.00,2013-03-22 01:50:00,
2013-03-21 21:51:00,55.5,35.6,29.92,WNW,296,0.0,3.0,47,0.00,,---,0.00,0.00,VWS V14.00,2013-03-22 01:51:00,
2013-03-21 21:52:00,55.3,35.4,29.92,WNW,296,0.0,3.0,47,0.00,,---,0.00,0.00,VWS V14.00,2013-03-22 01:52:00,
2013-03-21 21:53:00,55.1,35.2,29.92,WNW,296,0.0,3.0,47,0.00,,---,0.00,0.00,VWS V14.00,2013-03-22 01:53:00,
2013-03-21 21:54:00,54.9,35.1,29.92,WNW,296,0.0,3.0,47,0.00,,---,0.00,0.00,VWS V14.00,2013-03-22 01:54:00,
2013-03-21 21:55:00,54.8,35.0,29.92,WNW,296,0.0,3.0,47,0.00,,---,0.00,0.00,VWS V14.00,2013-03-22 01:55:00,
2013-03-21 21:56:00,54.7,35.4,29.92,WNW,296,0.0,3.0,48,0.00,,---,0.00,0.00,VWS V14.00,2013-03-22 01:56:00,
2013-03-21 21:57:00,54.6,35.8,29.92,WNW,296,0.0,3.0,49,0.00,,---,0.00,0.00,VWS V14.00,2013-03-22 01:57:00,
2013-03-21 21:58:00,54.4,36.2,29.92,WNW,296,0.0,3.0,50,0.00,,---,0.00,0.00,VWS V14.00,2013-03-22 01:58:00,
2013-03-21 21:59:00,54.3,36.6,29.92,WNW,296,0.0,3.0,51,0.00,,---,0.00,0.00,VWS V14.00,2013-03-22 01:59:00,
2013-03-21 22:00:00,54.2,37.0,29.92,WNW,296,0.0,3.0,52,0.00,,---,0.00,0.00,VWS V14.00,2013-03-22 02:00:00,
2013-03-21 22:01:00,54.1,36.4,29.92,WNW,296,0.0,0.0,51,0.00,,---,0.00,0.00,VWS V14.00,2013-03-22 02:01:00,
2013-03-21 22:02:00,54.0,36.8,29.92,WNW,296,0.0,0.0,52,0.00,,---,0.00,0.00,VWS V14.00,2013-03-22 02:02:00,
2013-03-21 22:03:00,53.9,36.7,29.92,WNW,296,0.0,0.0,52,0.00,,---,0.00,0.00,VWS V14.00,2013-03-22 02:03:00,
2013-03-21 22:04:00,53.8,37.1,29.92,WNW,296,0.0,0.0,53,0.00,,---,0.00,0.00,VWS V14.00,2013-03-22 02:04:00,
2013-03-21 22:05:00,53.7,37.0,29.92,WNW,296,0.0,0.0,53,0.00,,---,0.00,0.00,VWS V14.00,2013-03-22 02:05:00,
2013-03-21 22:06:00,53.6,37.4,29.93,WNW,296,0.0,0.0,54,0.00,,---,0.00,0.00,VWS V14.00,2013-03-22 02:06:00,
2013-03-21 22:07:00,53.5,37.8,29.93,WNW,296,0.0,0.0,55,0.00,,---,0.00,0.00,VWS V14.00,2013-03-22 02:07:00,
2013-03-21 22:08:00,53.4,37.2,29.93,WNW,296,0.0,0.0,54,0.00,,---,0.00,0.00,VWS V14.00,2013-03-22 02:08:00,
2013-03-21 22:09:00,53.3,36.6,29.93,WNW,296,0.0,0.0,53,0.00,,---,0.00,0.00,VWS V14.00,2013-03-22 02:09:00,
2013-03-21 22:10:00,53.2,37.0,29.93,WNW,296,0.0,0.0,54,0.00,,---,0.00,0.00,VWS V14.00,2013-03-22 02:10:00,
2013-03-21 22:11:00,53.2,37.5,29.93,WNW,296,0.0,0.0,55,0.00,,---,0.00,0.00,VWS V14.00,2013-03-22 02:11:00,
2013-03-21 22:12:00,53.1,36.9,29.93,WNW,296,0.0,0.0,54,0.00,,---,0.00,0.00,VWS V14.00,2013-03-22 02:12:00,
2013-03-21 22:13:00,53.1,36.9,29.93,WNW,296,0.0,0.0,54,0.00,,---,0.00,0.00,VWS V14.00,2013-03-22 02:13:00,
2013-03-21 22:14:00,53.1,38.3,29.93,WNW,296,0.0,0.0,57,0.00,,---,0.00,0.00,VWS V14.00,2013-03-22 02:14:00,
2013-03-21 22:15:00,53.1,37.8,29.93,WNW,296,2.0,3.0,56,0.00,,---,0.00,0.00,VWS V14.00,2013-03-22 02:15:00,
2013-03-21 22:16:00,53.1,36.9,29.93,WNW,296,1.0,3.0,54,0.00,,---,0.00,0.00,VWS V14.00,2013-03-22 02:16:00,
2013-03-21 22:17:00,53.2,37.5,29.93,WNW,296,2.0,3.0,55,0.00,,---,0.00,0.00,VWS V14.00,2013-03-22 02:17:00,
2013-03-21 22:18:00,53.2,37.0,29.93,WNW,296,2.0,3.0,54,0.00,,---,0.00,0.00,VWS V14.00,2013-03-22 02:18:00,
2013-03-21 22:19:00,53.2,35.1,29.93,WNW,296,1.0,3.0,50,0.00,,---,0.00,0.00,VWS V14.00,2013-03-22 02:19:00,
2013-03-21 22:20:00,53.3,34.1,29.93,WNW,296,1.0,3.0,48,0.00,,---,0.00,0.00,VWS V14.00,2013-03-22 02:20:00,
2013-03-21 22:21:00,53.3,36.1,29.93,WNW,296,2.0,3.0,52,0.00,,---,0.00,0.00,VWS V14.00,2013-03-22 02:21:00,
2013-03-21 22:22:00,53.4,36.7,29.93,WNW,296,2.0,3.0,53,0.00,,---,0.00,0.00,VWS V14.00,2013-03-22 02:22:00,
2013-03-21 22:23:00,53.4,35.7,29.93,WNW,296,2.0,3.0,51,0.00,,---,0.00,0.00,VWS V14.00,2013-03-22 02:23:00,
2013-03-21 22:24:00,53.5,35.3,29.93,WNW,296,2.0,3.0,50,0.00,,---,0.00,0.00,VWS V14.00,2013-03-22 02:24:00,
2013-03-21 22:25:00,53.5,35.8,29.93,WNW,296,2.0,3.0,51,0.00,,---,0.00,0.00,VWS V14.00,2013-03-22 02:25:00,
2013-03-21 22:26:00,53.6,36.4,29.93,WNW,296,3.0,3.0,52,0.00,,---,0.00,0.00,VWS V14.00,2013-03-22 02:26:00,
2013-03-21 22:27:00,53.6,33.9,29.93,WNW,296,3.0,3.0,47,0.00,,---,0.00,0.00,VWS V14.00,2013-03-22 02:27:00,
2013-03-21 22:28:00,53.7,32.9,29.93,WNW,296,3.0,3.0,45,0.00,,---,0.00,0.00,VWS V14.00,2013-03-22 02:28:00,
2013-03-21 22:29:00,53.9,32.5,29.93,WNW,296,2.0,3.0,44,0.00,,---,0.00,0.00,VWS V14.00,2013-03-22 02:29:00,
2013-03-21 22:30:00,53.9,33.1,29.93,WNW,296,1.0,3.0,45,0.00,,---,0.00,0.00,VWS V14.00,2013-03-22 02:30:00,
2013-03-21 22:31:00,54.0,35.8,29.93,WNW,296,2.0,3.0,50,0.00,,---,0.00,0.00,VWS V14.00,2013-03-22 02:31:00,
2013-03-21 22:32:00,54.0,34.8,29.93,WNW,296,2.0,3.0,48,0.00,,---,0.00,0.00,VWS V14.00,2013-03-22 02:32:00,
2013-03-21 22:33:00,54.0,34.8,29.93,WNW,296,1.0,3.0,48,0.00,,---,0.00,0.00,VWS V14.00,2013-03-22 02:33:00,
2013-03-21 22:34:00,54.0,34.8,29.93,WNW,296,1.0,3.0,48,0.00,,---,0.00,0.00,VWS V14.00,2013-03-22 02:34:00,
2013-03-21 22:35:00,54.0,35.8,29.93,WNW,296,2.0,3.0,50,0.00,,---,0.00,0.00,VWS V14.00,2013-03-22 02:35:00,
2013-03-21 22:36:00,54.0,36.8,29.93,WNW,296,0.0,3.0,52,0.00,,---,0.00,0.00,VWS V14.00,2013-03-22 02:36:00,
2013-03-21 22:37:00,53.8,36.6,29.93,WNW,296,0.0,3.0,52,0.00,,---,0.00,0.00,VWS V14.00,2013-03-22 02:37:00,
2013-03-21 22:38:00,53.7,36.5,29.93,WNW,296,0.0,3.0,52,0.00,,---,0.00,0.00,VWS V14.00,2013-03-22 02:38:00,
2013-03-21 22:39:00,53.5,36.3,29.93,WNW,296,0.0,3.0,52,0.00,,---,0.00,0.00,VWS V14.00,2013-03-22 02:39:00,
2013-03-21 22:40:00,53.3,37.1,29.93,WNW,296,0.0,3.0,54,0.00,,---,0.00,0.00,VWS V14.00,2013-03-22 02:40:00,
2013-03-21 22:41:00,53.1,36.4,29.93,WNW,296,0.0,3.0,53,0.00,,---,0.00,0.00,VWS V14.00,2013-03-22 02:41:00,
2013-03-21 22:42:00,53.0,36.3,29.93,WNW,296,0.0,3.0,53,0.00,,---,0.00,0.00,VWS V14.00,2013-03-22 02:42:00,
2013-03-21 22:43:00,52.8,35.7,29.93,WNW,296,0.0,3.0,52,0.00,,---,0.00,0.00,VWS V14.00,2013-03-22 02:43:00,
2013-03-21 22:44:00,52.7,36.1,29.94,WNW,296,0.0,3.0,53,0.00,,---,0.00,0.00,VWS V14.00,2013-03-22 02:44:00,
2013-03-21 22:45:00,52.5,35.9,29.94,WNW,296,0.0,3.0,53,0.00,,---,0.00,0.00,VWS V14.00,2013-03-22 02:45:00,
2013-03-21 22:46:00,52.4,36.3,29.94,WNW,296,0.0,3.0,54,0.00,,---,0.00,0.00,VWS V14.00,2013-03-22 02:46:00,
2013-03-21 22:47:00,52.4,36.3,29.94,WNW,296,0.0,3.0,54,0.00,,---,0.00,0.00,VWS V14.00,2013-03-22 02:47:00,
2013-03-21 22:48:00,52.3,36.2,29.94,WNW,296,0.0,3.0,54,0.00,,---,0.00,0.00,VWS V14.00,2013-03-22 02:48:00,
2013-03-21 22:49:00,52.1,35.5,29.93,WNW,296,0.0,3.0,53,0.00,,---,0.00,0.00,VWS V14.00,2013-03-22 02:49:00,
2013-03-21 22:50:00,52.1,35.5,29.93,WNW,296,0.0,3.0,53,0.00,,---,0.00,0.00,VWS V14.00,2013-03-22 02:50:00,
2013-03-21 22:51:00,52.0,35.9,29.93,WNW,296,0.0,3.0,54,0.00,,---,0.00,0.00,VWS V14.00,2013-03-22 02:51:00,
2013-03-21 22:52:00,51.9,35.8,29.93,WNW,296,0.0,3.0,54,0.00,,---,0.00,0.00,VWS V14.00,2013-03-22 02:52:00,
2013-03-21 22:53:00,51.8,35.7,29.93,WNW,296,0.0,3.0,54,0.00,,---,0.00,0.00,VWS V14.00,2013-03-22 02:53:00,
2013-03-21 22:54:00,51.7,36.1,29.93,WNW,296,0.0,3.0,55,0.00,,---,0.00,0.00,VWS V14.00,2013-03-22 02:54:00,
2013-03-21 22:55:00,51.6,36.0,29.93,WNW,296,0.0,3.0,55,0.00,,---,0.00,0.00,VWS V14.00,2013-03-22 02:55:00,
2013-03-21 22:56:00,51.5,35.9,29.94,WNW,296,0.0,3.0,55,0.00,,---,0.00,0.00,VWS V14.00,2013-03-22 02:56:00,
2013-03-21 22:57:00,51.5,36.3,29.94,WNW,296,0.0,3.0,56,0.00,,---,0.00,0.00,VWS V14.00,2013-03-22 02:57:00,
2013-03-21 22:58:00,51.4,35.8,29.94,WNW,296,0.0,3.0,55,0.00,,---,0.00,0.00,VWS V14.00,2013-03-22 02:58:00,
2013-03-21 22:59:00,51.3,35.7,29.94,WNW,296,0.0,3.0,55,0.00,,---,0.00,0.00,VWS V14.00,2013-03-22 02:59:00,
2013-03-21 23:00:00,51.2,36.1,29.94,WNW,296,0.0,3.0,56,0.00,,---,0.00,0.00,VWS V14.00,2013-03-22 03:00:00,
2013-03-21 23:01:00,51.2,36.1,29.94,WNW,296,0.0,0.0,56,0.00,,---,0.00,0.00,VWS V14.00,2013-03-22 03:01:00,
2013-03-21 23:02:00,51.2,36.1,29.94,WNW,296,0.0,0.0,56,0.00,,---,0.00,0.00,VWS V14.00,2013-03-22 03:02:00,
2013-03-21 23:03:00,51.1,36.8,29.94,WNW,296,0.0,0.0,58,0.00,,---,0.00,0.00,VWS V14.00,2013-03-22 03:03:00,
2013-03-21 23:04:00,51.1,37.3,29.94,WNW,296,0.0,0.0,59,0.00,,---,0.00,0.00,VWS V14.00,2013-03-22 03:04:00,
2013-03-21 23:05:00,51.1,36.8,29.94,WNW,296,0.0,0.0,58,0.00,,---,0.00,0.00,VWS V14.00,2013-03-22 03:05:00,
2013-03-21 23:06:00,51.0,36.8,29.94,WNW,296,0.0,0.0,58,0.00,,---,0.00,0.00,VWS V14.00,2013-03-22 03:06:00,
2013-03-21 23:07:00,51.0,36.8,29.94,WNW,296,0.0,0.0,58,0.00,,---,0.00,0.00,VWS V14.00,2013-03-22 03:07:00,
2013-03-21 23:08:00,50.9,36.7,29.94,WNW,296,0.0,0.0,58,0.00,,---,0.00,0.00,VWS V14.00,2013-03-22 03:08:00,
2013-03-21 23:09:00,50.9,37.1,29.94,WNW,296,0.0,0.0,59,0.00,,---,0.00,0.00,VWS V14.00,2013-03-22 03:09:00,
2013-03-21 23:10:00,50.8,37.0,29.94,WNW,296,0.0,0.0,59,0.00,,---,0.00,0.00,VWS V14.00,2013-03-22 03:10:00,
2013-03-21 23:11:00,50.8,37.0,29.94,WNW,296,0.0,0.0,59,0.00,,---,0.00,0.00,VWS V14.00,2013-03-22 03:11:00,
2013-03-21 23:12:00,50.8,37.0,29.94,WNW,296,0.0,0.0,59,0.00,,---,0.00,0.00,VWS V14.00,2013-03-22 03:12:00,
2013-03-21 23:13:00,50.7,36.9,29.94,WNW,296,0.0,0.0,59,0.00,,---,0.00,0.00,VWS V14.00,2013-03-22 03:13:00,
2013-03-21 23:14:00,50.7,37.3,29.94,WNW,296,0.0,0.0,60,0.00,,---,0.00,0.00,VWS V14.00,2013-03-22 03:14:00,
2013-03-21 23:15:00,50.6,37.2,29.94,WNW,296,0.0,0.0,60,0.00,,---,0.00,0.00,VWS V14.00,2013-03-22 03:15:00,
2013-03-21 23:16:00,50.6,37.2,29.94,WNW,296,0.0,0.0,60,0.00,,---,0.00,0.00,VWS V14.00,2013-03-22 03:16:00,
2013-03-21 23:17:00,50.6,37.2,29.94,WNW,296,0.0,0.0,60,0.00,,---,0.00,0.00,VWS V14.00,2013-03-22 03:17:00,
2013-03-21 23:18:00,50.5,37.6,29.94,WNW,296,0.0,0.0,61,0.00,,---,0.00,0.00,VWS V14.00,2013-03-22 03:18:00,
2013-03-21 23:19:00,50.5,37.6,29.94,WNW,296,0.0,0.0,61,0.00,,---,0.00,0.00,VWS V14.00,2013-03-22 03:19:00,
2013-03-21 23:20:00,50.5,37.6,29.94,WNW,296,0.0,0.0,61,0.00,,---,0.00,0.00,VWS V14.00,2013-03-22 03:20:00,
2013-03-21 23:21:00,50.5,38.0,29.94,WNW,296,0.0,0.0,62,0.00,,---,0.00,0.00,VWS V14.00,2013-03-22 03:21:00,
2013-03-21 23:22:00,50.5,38.0,29.94,WNW,296,0.0,0.0,62,0.00,,---,0.00,0.00,VWS V14.00,2013-03-22 03:22:00,
2013-03-21 23:23:00,50.4,37.9,29.94,WNW,296,0.0,0.0,62,0.00,,---,0.00,0.00,VWS V14.00,2013-03-22 03:23:00,
2013-03-21 23:24:00,50.4,37.9,29.94,WNW,296,0.0,0.0,62,0.00,,---,0.00,0.00,VWS V14.00,2013-03-22 03:24:00,
2013-03-21 23:25:00,50.4,37.9,29.94,WNW,296,0.0,0.0,62,0.00,,---,0.00,0.00,VWS V14.00,2013-03-22 03:25:00,
2013-03-21 23:26:00,50.3,37.0,29.94,WNW,296,0.0,0.0,60,0.00,,---,0.00,0.00,VWS V14.00,2013-03-22 03:26:00,
2013-03-21 23:27:00,50.3,36.5,29.94,WNW,296,0.0,0.0,59,0.00,,---,0.00,0.00,VWS V14.00,2013-03-22 03:27:00,
2013-03-21 23:28:00,50.3,36.5,29.94,WNW,296,0.0,0.0,59,0.00,,---,0.00,0.00,VWS V14.00,2013-03-22 03:28:00,
2013-03-21 23:29:00,50.2,36.9,29.94,WNW,296,0.0,0.0,60,0.00,,---,0.00,0.00,VWS V14.00,2013-03-22 03:29:00,
2013-03-21 23:30:00,50.2,36.4,29.94,WNW,296,0.0,0.0,59,0.00,,---,0.00,0.00,VWS V14.00,2013-03-22 03:30:00,
2013-03-21 23:31:00,50.1,35.5,29.94,WNW,296,2.0,2.0,57,0.00,,---,0.00,0.00,VWS V14.00,2013-03-22 03:31:00,
2013-03-21 23:32:00,50.1,35.0,29.94,WNW,296,3.0,3.0,56,0.00,,---,0.00,0.00,VWS V14.00,2013-03-22 03:32:00,
2013-03-21 23:33:00,50.1,35.0,29.94,WNW,296,2.0,3.0,56,0.00,,---,0.00,0.00,VWS V14.00,2013-03-22 03:33:00,
2013-03-21 23:34:00,50.1,34.6,29.94,WNW,296,2.0,3.0,55,0.00,,---,0.00,0.00,VWS V14.00,2013-03-22 03:34:00,
2013-03-21 23:35:00,50.1,35.0,29.94,WNW,296,0.0,3.0,56,0.00,,---,0.00,0.00,VWS V14.00,2013-03-22 03:35:00,
2013-03-21 23:36:00,50.1,35.0,29.94,WNW,296,0.0,3.0,56,0.00,,---,0.00,0.00,VWS V14.00,2013-03-22 03:36:00,
2013-03-21 23:37:00,50.1,35.0,29.94,WNW,296,0.0,3.0,56,0.00,,---,0.00,0.00,VWS V14.00,2013-03-22 03:37:00,
2013-03-21 23:38:00,50.1,35.5,29.95,WNW,296,1.0,3.0,57,0.00,,---,0.00,0.00,VWS V14.00,2013-03-22 03:38:00,
2013-03-21 23:39:00,50.1,35.5,29.95,WNW,296,2.0,3.0,57,0.00,,---,0.00,0.00,VWS V14.00,2013-03-22 03:39:00,
2013-03-21 23:40:00,50.1,35.9,29.95,WNW,296,2.0,3.0,58,0.00,,---,0.00,0.00,VWS V14.00,2013-03-22 03:40:00,
2013-03-21 23:41:00,50.1,35.9,29.95,WNW,296,2.0,3.0,58,0.00,,---,0.00,0.00,VWS V14.00,2013-03-22 03:41:00,
2013-03-21 23:42:00,50.1,35.9,29.95,WNW,296,2.0,3.0,58,0.00,,---,0.00,0.00,VWS V14.00,2013-03-22 03:42:00,
2013-03-21 23:43:00,50.0,35.8,29.95,WNW,296,1.0,3.0,58,0.00,,---,0.00,0.00,VWS V14.00,2013-03-22 03:43:00,
2013-03-21 23:44:00,50.0,35.8,29.95,WNW,296,2.0,3.0,58,0.00,,---,0.00,0.00,VWS V14.00,2013-03-22 03:44:00,
2013-03-21 23:45:00,50.0,36.2,29.95,WNW,296,1.0,3.0,59,0.00,,---,0.00,0.00,VWS V14.00,2013-03-22 03:45:00,
2013-03-21 23:46:00,50.0,36.7,29.95,WNW,296,0.0,3.0,60,0.00,,---,0.00,0.00,VWS V14.00,2013-03-22 03:46:00,
2013-03-21 23:47:00,49.9,36.6,29.95,WNW,296,0.0,3.0,60,0.00,,---,0.00,0.00,VWS V14.00,2013-03-22 03:47:00,
2013-03-21 23:48:00,49.9,36.6,29.95,WNW,296,0.0,3.0,60,0.00,,---,0.00,0.00,VWS V14.00,2013-03-22 03:48:00,
2013-03-21 23:49:00,49.9,36.6,29.95,WNW,296,0.0,3.0,60,0.00,,---,0.00,0.00,VWS V14.00,2013-03-22 03:49:00,
2013-03-21 23:50:00,49.9,37.0,29.95,WNW,296,0.0,3.0,61,0.00,,---,0.00,0.00,VWS V14.00,2013-03-22 03:50:00,
2013-03-21 23:51:00,49.8,36.9,29.95,WNW,296,0.0,3.0,61,0.00,,---,0.00,0.00,VWS V14.00,2013-03-22 03:51:00,
2013-03-21 23:52:00,49.8,37.3,29.95,WNW,296,0.0,3.0,62,0.00,,---,0.00,0.00,VWS V14.00,2013-03-22 03:52:00,
2013-03-21 23:53:00,49.8,36.9,29.95,WNW,296,0.0,3.0,61,0.00,,---,0.00,0.00,VWS V14.00,2013-03-22 03:53:00,
2013-03-21 23:54:00,49.8,37.3,29.96,WNW,296,0.0,3.0,62,0.00,,---,0.00,0.00,VWS V14.00,2013-03-22 03:54:00,
2013-03-21 23:55:00,49.7,37.6,29.96,WNW,296,0.0,3.0,63,0.00,,---,0.00,0.00,VWS V14.00,2013-03-22 03:55:00,
2013-03-21 23:56:00,49.7,37.6,29.95,WNW,296,0.0,3.0,63,0.00,,---,0.00,0.00,VWS V14.00,2013-03-22 03:56:00,
2013-03-21 23:57:00,49.7,37.6,29.95,WNW,296,0.0,3.0,63,0.00,,---,0.00,0.00,VWS V14.00,2013-03-22 03:57:00,
2013-03-21 23:58:00,49.7,37.6,29.96,WNW,296,0.0,3.0,63,0.00,,---,0.00,0.00,VWS V14.00,2013-03-22 03:58:00,
2013-03-21 23:59:00,49.7,37.6,29.96,WNW,296,0.0,3.0,63,0.00,,---,0.00,0.00,VWS V14.00,2013-03-22 03:59:00,